<?xml version="1.0" encoding="UTF-8" standalone="no" ?>
<gpx xmlns="http://www.topografix.com/GPX/1/1" creator="RoadTrip 2.0.2" version="1.1" xmlns:xsi="http://www.w3.org/2001/XMLSchema-instance" xsi:schemaLocation="http://www.topografix.com/GPX/1/1 http://www.topografix.com/GPX/1/1/gpx.xsd">

  <metadata>
    <link href="http://www.garmin.com">
      <text>Garmin International</text>
    </link>
    <time>2012-07-29T10:45:52Z</time>
    <bounds maxlat="46.5624790" maxlon="6.9030820" minlat="46.4819320" minlon="6.7710860"/>
  </metadata>

  <trk>
    <name>2012-07-28T07:09:00Z</name>
    <extensions>
      <gpxx:TrackExtension xmlns:gpxx="http://www.garmin.com/xmlschemas/GpxExtensions/v3">
        <gpxx:DisplayColor>White</gpxx:DisplayColor>
      </gpxx:TrackExtension>
    </extensions>
    <trkseg>
      <trkpt lat="46.4822450" lon="6.8321360">
        <ele>840.0630000</ele>
        <time>2012-07-28T07:09:01Z</time>
      </trkpt>
      <trkpt lat="46.4822260" lon="6.8319590">
        <ele>840.0610000</ele>
        <time>2012-07-28T07:09:05Z</time>
      </trkpt>
      <trkpt lat="46.4821450" lon="6.8316030">
        <ele>836.1740000</ele>
        <time>2012-07-28T07:09:12Z</time>
      </trkpt>
      <trkpt lat="46.4820420" lon="6.8315820">
        <ele>837.1450000</ele>
        <time>2012-07-28T07:09:16Z</time>
      </trkpt>
      <trkpt lat="46.4819920" lon="6.8317170">
        <ele>836.3630000</ele>
        <time>2012-07-28T07:09:19Z</time>
      </trkpt>
      <trkpt lat="46.4819320" lon="6.8320200">
        <ele>835.5180000</ele>
        <time>2012-07-28T07:09:24Z</time>
      </trkpt>
      <trkpt lat="46.4819690" lon="6.8325530">
        <ele>835.1490000</ele>
        <time>2012-07-28T07:09:31Z</time>
      </trkpt>
      <trkpt lat="46.4819870" lon="6.8327240">
        <ele>835.1250000</ele>
        <time>2012-07-28T07:09:33Z</time>
      </trkpt>
      <trkpt lat="46.4819900" lon="6.8334740">
        <ele>834.2230000</ele>
        <time>2012-07-28T07:09:41Z</time>
      </trkpt>
      <trkpt lat="46.4819720" lon="6.8341290">
        <ele>832.6510000</ele>
        <time>2012-07-28T07:09:47Z</time>
      </trkpt>
      <trkpt lat="46.4820150" lon="6.8347840">
        <ele>830.5700000</ele>
        <time>2012-07-28T07:09:52Z</time>
      </trkpt>
      <trkpt lat="46.4820760" lon="6.8352710">
        <ele>828.8050000</ele>
        <time>2012-07-28T07:09:56Z</time>
      </trkpt>
      <trkpt lat="46.4821030" lon="6.8355050">
        <ele>827.5340000</ele>
        <time>2012-07-28T07:09:58Z</time>
      </trkpt>
      <trkpt lat="46.4821540" lon="6.8358710">
        <ele>825.5980000</ele>
        <time>2012-07-28T07:10:01Z</time>
      </trkpt>
      <trkpt lat="46.4823970" lon="6.8365760">
        <ele>822.0380000</ele>
        <time>2012-07-28T07:10:07Z</time>
      </trkpt>
      <trkpt lat="46.4826730" lon="6.8371340">
        <ele>818.1300000</ele>
        <time>2012-07-28T07:10:13Z</time>
      </trkpt>
      <trkpt lat="46.4827790" lon="6.8373330">
        <ele>816.4960000</ele>
        <time>2012-07-28T07:10:17Z</time>
      </trkpt>
      <trkpt lat="46.4827980" lon="6.8373820">
        <ele>814.9270000</ele>
        <time>2012-07-28T07:10:21Z</time>
      </trkpt>
      <trkpt lat="46.4828060" lon="6.8373730">
        <ele>814.1250000</ele>
        <time>2012-07-28T07:10:29Z</time>
      </trkpt>
      <trkpt lat="46.4828540" lon="6.8374160">
        <ele>813.7280000</ele>
        <time>2012-07-28T07:10:38Z</time>
      </trkpt>
      <trkpt lat="46.4828780" lon="6.8374420">
        <ele>813.7390000</ele>
        <time>2012-07-28T07:10:39Z</time>
      </trkpt>
      <trkpt lat="46.4830480" lon="6.8376930">
        <ele>813.2660000</ele>
        <time>2012-07-28T07:10:44Z</time>
      </trkpt>
      <trkpt lat="46.4833620" lon="6.8379140">
        <ele>811.8810000</ele>
        <time>2012-07-28T07:10:49Z</time>
      </trkpt>
      <trkpt lat="46.4838510" lon="6.8381240">
        <ele>809.5500000</ele>
        <time>2012-07-28T07:10:55Z</time>
      </trkpt>
      <trkpt lat="46.4843180" lon="6.8384640">
        <ele>806.4340000</ele>
        <time>2012-07-28T07:11:01Z</time>
      </trkpt>
      <trkpt lat="46.4846650" lon="6.8386200">
        <ele>803.7650000</ele>
        <time>2012-07-28T07:11:05Z</time>
      </trkpt>
      <trkpt lat="46.4848550" lon="6.8386630">
        <ele>803.1060000</ele>
        <time>2012-07-28T07:11:07Z</time>
      </trkpt>
      <trkpt lat="46.4849480" lon="6.8386820">
        <ele>802.4190000</ele>
        <time>2012-07-28T07:11:08Z</time>
      </trkpt>
      <trkpt lat="46.4851450" lon="6.8389120">
        <ele>800.3510000</ele>
        <time>2012-07-28T07:11:09Z</time>
      </trkpt>
      <trkpt lat="46.4851910" lon="6.8390310">
        <ele>799.6770000</ele>
        <time>2012-07-28T07:11:10Z</time>
      </trkpt>
      <trkpt lat="46.4854710" lon="6.8394340">
        <ele>797.4840000</ele>
        <time>2012-07-28T07:11:14Z</time>
      </trkpt>
      <trkpt lat="46.4856690" lon="6.8395670">
        <ele>796.5780000</ele>
        <time>2012-07-28T07:11:16Z</time>
      </trkpt>
      <trkpt lat="46.4863400" lon="6.8398460">
        <ele>793.5050000</ele>
        <time>2012-07-28T07:11:22Z</time>
      </trkpt>
      <trkpt lat="46.4870260" lon="6.8401130">
        <ele>789.4350000</ele>
        <time>2012-07-28T07:11:28Z</time>
      </trkpt>
      <trkpt lat="46.4873260" lon="6.8400700">
        <ele>788.1070000</ele>
        <time>2012-07-28T07:11:31Z</time>
      </trkpt>
      <trkpt lat="46.4876470" lon="6.8399810">
        <ele>786.1320000</ele>
        <time>2012-07-28T07:11:34Z</time>
      </trkpt>
      <trkpt lat="46.4877900" lon="6.8401330">
        <ele>785.1100000</ele>
        <time>2012-07-28T07:11:36Z</time>
      </trkpt>
      <trkpt lat="46.4879190" lon="6.8404860">
        <ele>784.1130000</ele>
        <time>2012-07-28T07:11:39Z</time>
      </trkpt>
      <trkpt lat="46.4879800" lon="6.8405820">
        <ele>783.9310000</ele>
        <time>2012-07-28T07:11:40Z</time>
      </trkpt>
      <trkpt lat="46.4883410" lon="6.8409420">
        <ele>783.3870000</ele>
        <time>2012-07-28T07:11:45Z</time>
      </trkpt>
      <trkpt lat="46.4884770" lon="6.8410750">
        <ele>783.0610000</ele>
        <time>2012-07-28T07:11:47Z</time>
      </trkpt>
      <trkpt lat="46.4886010" lon="6.8414760">
        <ele>782.3870000</ele>
        <time>2012-07-28T07:11:51Z</time>
      </trkpt>
      <trkpt lat="46.4884860" lon="6.8416740">
        <ele>782.1310000</ele>
        <time>2012-07-28T07:11:53Z</time>
      </trkpt>
      <trkpt lat="46.4879350" lon="6.8425610">
        <ele>779.8950000</ele>
        <time>2012-07-28T07:12:02Z</time>
      </trkpt>
      <trkpt lat="46.4874130" lon="6.8434170">
        <ele>778.2900000</ele>
        <time>2012-07-28T07:12:11Z</time>
      </trkpt>
      <trkpt lat="46.4869870" lon="6.8441590">
        <ele>777.7200000</ele>
        <time>2012-07-28T07:12:19Z</time>
      </trkpt>
      <trkpt lat="46.4866960" lon="6.8447190">
        <ele>777.4130000</ele>
        <time>2012-07-28T07:12:25Z</time>
      </trkpt>
      <trkpt lat="46.4864650" lon="6.8451320">
        <ele>777.2860000</ele>
        <time>2012-07-28T07:12:30Z</time>
      </trkpt>
      <trkpt lat="46.4863200" lon="6.8453310">
        <ele>777.5130000</ele>
        <time>2012-07-28T07:12:33Z</time>
      </trkpt>
      <trkpt lat="46.4861990" lon="6.8456670">
        <ele>778.1510000</ele>
        <time>2012-07-28T07:12:37Z</time>
      </trkpt>
      <trkpt lat="46.4861980" lon="6.8457620">
        <ele>778.3060000</ele>
        <time>2012-07-28T07:12:38Z</time>
      </trkpt>
      <trkpt lat="46.4862160" lon="6.8461370">
        <ele>778.7600000</ele>
        <time>2012-07-28T07:12:42Z</time>
      </trkpt>
      <trkpt lat="46.4863720" lon="6.8465190">
        <ele>779.2120000</ele>
        <time>2012-07-28T07:12:47Z</time>
      </trkpt>
      <trkpt lat="46.4865630" lon="6.8467630">
        <ele>779.7610000</ele>
        <time>2012-07-28T07:12:51Z</time>
      </trkpt>
      <trkpt lat="46.4866720" lon="6.8470750">
        <ele>780.2290000</ele>
        <time>2012-07-28T07:12:55Z</time>
      </trkpt>
      <trkpt lat="46.4866740" lon="6.8471670">
        <ele>780.3030000</ele>
        <time>2012-07-28T07:12:56Z</time>
      </trkpt>
      <trkpt lat="46.4866710" lon="6.8473600">
        <ele>780.3680000</ele>
        <time>2012-07-28T07:12:58Z</time>
      </trkpt>
      <trkpt lat="46.4867410" lon="6.8477700">
        <ele>779.9180000</ele>
        <time>2012-07-28T07:13:02Z</time>
      </trkpt>
      <trkpt lat="46.4871030" lon="6.8489270">
        <ele>779.4560000</ele>
        <time>2012-07-28T07:13:14Z</time>
      </trkpt>
      <trkpt lat="46.4874000" lon="6.8494040">
        <ele>780.3400000</ele>
        <time>2012-07-28T07:13:21Z</time>
      </trkpt>
      <trkpt lat="46.4877310" lon="6.8497220">
        <ele>781.6700000</ele>
        <time>2012-07-28T07:13:28Z</time>
      </trkpt>
      <trkpt lat="46.4880980" lon="6.8500300">
        <ele>782.2120000</ele>
        <time>2012-07-28T07:13:35Z</time>
      </trkpt>
      <trkpt lat="46.4883720" lon="6.8504290">
        <ele>782.0730000</ele>
        <time>2012-07-28T07:13:41Z</time>
      </trkpt>
      <trkpt lat="46.4887640" lon="6.8511210">
        <ele>781.4320000</ele>
        <time>2012-07-28T07:13:50Z</time>
      </trkpt>
      <trkpt lat="46.4892340" lon="6.8517190">
        <ele>780.8540000</ele>
        <time>2012-07-28T07:13:59Z</time>
      </trkpt>
      <trkpt lat="46.4895500" lon="6.8520850">
        <ele>780.4610000</ele>
        <time>2012-07-28T07:14:05Z</time>
      </trkpt>
      <trkpt lat="46.4897030" lon="6.8524430">
        <ele>779.8050000</ele>
        <time>2012-07-28T07:14:09Z</time>
      </trkpt>
      <trkpt lat="46.4897990" lon="6.8526330">
        <ele>779.4570000</ele>
        <time>2012-07-28T07:14:11Z</time>
      </trkpt>
      <trkpt lat="46.4899200" lon="6.8528010">
        <ele>778.9590000</ele>
        <time>2012-07-28T07:14:13Z</time>
      </trkpt>
      <trkpt lat="46.4902300" lon="6.8533340">
        <ele>777.7310000</ele>
        <time>2012-07-28T07:14:19Z</time>
      </trkpt>
      <trkpt lat="46.4902910" lon="6.8534070">
        <ele>777.5760000</ele>
        <time>2012-07-28T07:14:20Z</time>
      </trkpt>
      <trkpt lat="46.4905100" lon="6.8536950">
        <ele>777.1270000</ele>
        <time>2012-07-28T07:14:24Z</time>
      </trkpt>
      <trkpt lat="46.4905290" lon="6.8537890">
        <ele>777.2150000</ele>
        <time>2012-07-28T07:14:25Z</time>
      </trkpt>
      <trkpt lat="46.4906210" lon="6.8543410">
        <ele>777.8490000</ele>
        <time>2012-07-28T07:14:31Z</time>
      </trkpt>
      <trkpt lat="46.4908010" lon="6.8547340">
        <ele>778.0690000</ele>
        <time>2012-07-28T07:14:36Z</time>
      </trkpt>
      <trkpt lat="46.4908900" lon="6.8548480">
        <ele>778.3410000</ele>
        <time>2012-07-28T07:14:38Z</time>
      </trkpt>
      <trkpt lat="46.4910240" lon="6.8549680">
        <ele>779.1710000</ele>
        <time>2012-07-28T07:14:41Z</time>
      </trkpt>
      <trkpt lat="46.4911750" lon="6.8550630">
        <ele>780.9360000</ele>
        <time>2012-07-28T07:14:45Z</time>
      </trkpt>
      <trkpt lat="46.4912230" lon="6.8553290">
        <ele>783.7700000</ele>
        <time>2012-07-28T07:14:51Z</time>
      </trkpt>
      <trkpt lat="46.4912210" lon="6.8554940">
        <ele>784.3890000</ele>
        <time>2012-07-28T07:14:54Z</time>
      </trkpt>
      <trkpt lat="46.4911690" lon="6.8558530">
        <ele>785.2620000</ele>
        <time>2012-07-28T07:15:00Z</time>
      </trkpt>
      <trkpt lat="46.4910310" lon="6.8564730">
        <ele>785.7350000</ele>
        <time>2012-07-28T07:15:09Z</time>
      </trkpt>
      <trkpt lat="46.4909880" lon="6.8570350">
        <ele>785.8770000</ele>
        <time>2012-07-28T07:15:16Z</time>
      </trkpt>
      <trkpt lat="46.4910280" lon="6.8573740">
        <ele>785.9490000</ele>
        <time>2012-07-28T07:15:20Z</time>
      </trkpt>
      <trkpt lat="46.4909890" lon="6.8577950">
        <ele>786.2240000</ele>
        <time>2012-07-28T07:15:25Z</time>
      </trkpt>
      <trkpt lat="46.4908340" lon="6.8582020">
        <ele>787.0920000</ele>
        <time>2012-07-28T07:15:31Z</time>
      </trkpt>
      <trkpt lat="46.4905550" lon="6.8585430">
        <ele>788.4300000</ele>
        <time>2012-07-28T07:15:38Z</time>
      </trkpt>
      <trkpt lat="46.4903020" lon="6.8590020">
        <ele>788.5610000</ele>
        <time>2012-07-28T07:15:45Z</time>
      </trkpt>
      <trkpt lat="46.4902440" lon="6.8591500">
        <ele>788.4130000</ele>
        <time>2012-07-28T07:15:47Z</time>
      </trkpt>
      <trkpt lat="46.4901620" lon="6.8595850">
        <ele>787.7190000</ele>
        <time>2012-07-28T07:15:52Z</time>
      </trkpt>
      <trkpt lat="46.4901350" lon="6.8598290">
        <ele>787.0870000</ele>
        <time>2012-07-28T07:15:54Z</time>
      </trkpt>
      <trkpt lat="46.4900250" lon="6.8601760">
        <ele>785.3200000</ele>
        <time>2012-07-28T07:15:57Z</time>
      </trkpt>
      <trkpt lat="46.4900100" lon="6.8606540">
        <ele>783.0770000</ele>
        <time>2012-07-28T07:16:01Z</time>
      </trkpt>
      <trkpt lat="46.4901430" lon="6.8609330">
        <ele>782.3640000</ele>
        <time>2012-07-28T07:16:04Z</time>
      </trkpt>
      <trkpt lat="46.4904320" lon="6.8615050">
        <ele>782.9800000</ele>
        <time>2012-07-28T07:16:11Z</time>
      </trkpt>
      <trkpt lat="46.4904580" lon="6.8615880">
        <ele>783.1660000</ele>
        <time>2012-07-28T07:16:12Z</time>
      </trkpt>
      <trkpt lat="46.4906810" lon="6.8619040">
        <ele>783.6620000</ele>
        <time>2012-07-28T07:16:17Z</time>
      </trkpt>
      <trkpt lat="46.4908080" lon="6.8619420">
        <ele>783.8520000</ele>
        <time>2012-07-28T07:16:19Z</time>
      </trkpt>
      <trkpt lat="46.4910610" lon="6.8620230">
        <ele>784.1580000</ele>
        <time>2012-07-28T07:16:23Z</time>
      </trkpt>
      <trkpt lat="46.4912670" lon="6.8622190">
        <ele>784.4730000</ele>
        <time>2012-07-28T07:16:27Z</time>
      </trkpt>
      <trkpt lat="46.4914270" lon="6.8624630">
        <ele>784.9030000</ele>
        <time>2012-07-28T07:16:31Z</time>
      </trkpt>
      <trkpt lat="46.4914710" lon="6.8627710">
        <ele>785.2570000</ele>
        <time>2012-07-28T07:16:35Z</time>
      </trkpt>
      <trkpt lat="46.4914320" lon="6.8635360">
        <ele>784.6560000</ele>
        <time>2012-07-28T07:16:43Z</time>
      </trkpt>
      <trkpt lat="46.4913920" lon="6.8644300">
        <ele>783.7470000</ele>
        <time>2012-07-28T07:16:52Z</time>
      </trkpt>
      <trkpt lat="46.4913460" lon="6.8654000">
        <ele>783.4480000</ele>
        <time>2012-07-28T07:17:02Z</time>
      </trkpt>
      <trkpt lat="46.4913630" lon="6.8662140">
        <ele>782.6970000</ele>
        <time>2012-07-28T07:17:10Z</time>
      </trkpt>
      <trkpt lat="46.4914030" lon="6.8671680">
        <ele>781.7610000</ele>
        <time>2012-07-28T07:17:19Z</time>
      </trkpt>
      <trkpt lat="46.4914510" lon="6.8676780">
        <ele>781.1660000</ele>
        <time>2012-07-28T07:17:24Z</time>
      </trkpt>
      <trkpt lat="46.4916440" lon="6.8681920">
        <ele>779.8290000</ele>
        <time>2012-07-28T07:17:29Z</time>
      </trkpt>
      <trkpt lat="46.4917710" lon="6.8685200">
        <ele>778.9490000</ele>
        <time>2012-07-28T07:17:32Z</time>
      </trkpt>
      <trkpt lat="46.4918360" lon="6.8689850">
        <ele>777.4520000</ele>
        <time>2012-07-28T07:17:36Z</time>
      </trkpt>
      <trkpt lat="46.4918860" lon="6.8695010">
        <ele>775.7650000</ele>
        <time>2012-07-28T07:17:41Z</time>
      </trkpt>
      <trkpt lat="46.4919350" lon="6.8695790">
        <ele>775.5230000</ele>
        <time>2012-07-28T07:17:42Z</time>
      </trkpt>
      <trkpt lat="46.4921350" lon="6.8698910">
        <ele>774.8660000</ele>
        <time>2012-07-28T07:17:46Z</time>
      </trkpt>
      <trkpt lat="46.4922570" lon="6.8700180">
        <ele>774.8400000</ele>
        <time>2012-07-28T07:17:48Z</time>
      </trkpt>
      <trkpt lat="46.4925220" lon="6.8702250">
        <ele>775.2730000</ele>
        <time>2012-07-28T07:17:52Z</time>
      </trkpt>
      <trkpt lat="46.4927070" lon="6.8703670">
        <ele>775.9640000</ele>
        <time>2012-07-28T07:17:55Z</time>
      </trkpt>
      <trkpt lat="46.4929390" lon="6.8705430">
        <ele>777.0340000</ele>
        <time>2012-07-28T07:17:59Z</time>
      </trkpt>
      <trkpt lat="46.4931060" lon="6.8706650">
        <ele>777.8500000</ele>
        <time>2012-07-28T07:18:02Z</time>
      </trkpt>
      <trkpt lat="46.4933630" lon="6.8708550">
        <ele>778.8730000</ele>
        <time>2012-07-28T07:18:07Z</time>
      </trkpt>
      <trkpt lat="46.4934240" lon="6.8710760">
        <ele>779.0170000</ele>
        <time>2012-07-28T07:18:11Z</time>
      </trkpt>
      <trkpt lat="46.4933370" lon="6.8713570">
        <ele>778.2190000</ele>
        <time>2012-07-28T07:18:14Z</time>
      </trkpt>
      <trkpt lat="46.4933570" lon="6.8717600">
        <ele>773.9700000</ele>
        <time>2012-07-28T07:18:18Z</time>
      </trkpt>
      <trkpt lat="46.4934080" lon="6.8718920">
        <ele>772.5440000</ele>
        <time>2012-07-28T07:18:19Z</time>
      </trkpt>
      <trkpt lat="46.4936180" lon="6.8724370">
        <ele>765.3960000</ele>
        <time>2012-07-28T07:18:23Z</time>
      </trkpt>
      <trkpt lat="46.4937000" lon="6.8728640">
        <ele>757.4840000</ele>
        <time>2012-07-28T07:18:27Z</time>
      </trkpt>
      <trkpt lat="46.4936930" lon="6.8730060">
        <ele>753.8700000</ele>
        <time>2012-07-28T07:18:29Z</time>
      </trkpt>
      <trkpt lat="46.4935100" lon="6.8730570">
        <ele>748.2370000</ele>
        <time>2012-07-28T07:18:33Z</time>
      </trkpt>
      <trkpt lat="46.4931490" lon="6.8730050">
        <ele>742.5320000</ele>
        <time>2012-07-28T07:18:38Z</time>
      </trkpt>
      <trkpt lat="46.4930920" lon="6.8729940">
        <ele>742.5260000</ele>
        <time>2012-07-28T07:18:39Z</time>
      </trkpt>
      <trkpt lat="46.4930210" lon="6.8729720">
        <ele>740.3320000</ele>
        <time>2012-07-28T07:18:41Z</time>
      </trkpt>
      <trkpt lat="46.4930000" lon="6.8730190">
        <ele>737.6800000</ele>
        <time>2012-07-28T07:18:44Z</time>
      </trkpt>
      <trkpt lat="46.4930170" lon="6.8730490">
        <ele>737.0040000</ele>
        <time>2012-07-28T07:18:45Z</time>
      </trkpt>
      <trkpt lat="46.4930760" lon="6.8731400">
        <ele>735.9500000</ele>
        <time>2012-07-28T07:18:47Z</time>
      </trkpt>
      <trkpt lat="46.4931990" lon="6.8733490">
        <ele>734.9820000</ele>
        <time>2012-07-28T07:18:50Z</time>
      </trkpt>
      <trkpt lat="46.4936090" lon="6.8739960">
        <ele>732.6280000</ele>
        <time>2012-07-28T07:18:58Z</time>
      </trkpt>
      <trkpt lat="46.4939870" lon="6.8745680">
        <ele>730.4580000</ele>
        <time>2012-07-28T07:19:05Z</time>
      </trkpt>
      <trkpt lat="46.4941210" lon="6.8747380">
        <ele>731.7020000</ele>
        <time>2012-07-28T07:19:09Z</time>
      </trkpt>
      <trkpt lat="46.4941940" lon="6.8748170">
        <ele>732.7430000</ele>
        <time>2012-07-28T07:19:11Z</time>
      </trkpt>
      <trkpt lat="46.4945710" lon="6.8751050">
        <ele>734.5390000</ele>
        <time>2012-07-28T07:19:19Z</time>
      </trkpt>
      <trkpt lat="46.4947790" lon="6.8752790">
        <ele>735.2920000</ele>
        <time>2012-07-28T07:19:24Z</time>
      </trkpt>
      <trkpt lat="46.4950650" lon="6.8754910">
        <ele>736.5320000</ele>
        <time>2012-07-28T07:19:31Z</time>
      </trkpt>
      <trkpt lat="46.4953850" lon="6.8756500">
        <ele>738.0520000</ele>
        <time>2012-07-28T07:19:38Z</time>
      </trkpt>
      <trkpt lat="46.4958150" lon="6.8757950">
        <ele>738.1000000</ele>
        <time>2012-07-28T07:19:46Z</time>
      </trkpt>
      <trkpt lat="46.4961250" lon="6.8757320">
        <ele>737.7610000</ele>
        <time>2012-07-28T07:19:52Z</time>
      </trkpt>
      <trkpt lat="46.4962690" lon="6.8756590">
        <ele>737.7590000</ele>
        <time>2012-07-28T07:19:55Z</time>
      </trkpt>
      <trkpt lat="46.4963840" lon="6.8756820">
        <ele>737.6740000</ele>
        <time>2012-07-28T07:19:58Z</time>
      </trkpt>
      <trkpt lat="46.4964460" lon="6.8759410">
        <ele>737.0960000</ele>
        <time>2012-07-28T07:20:01Z</time>
      </trkpt>
      <trkpt lat="46.4966900" lon="6.8764680">
        <ele>734.5460000</ele>
        <time>2012-07-28T07:20:06Z</time>
      </trkpt>
      <trkpt lat="46.4970910" lon="6.8770500">
        <ele>729.4730000</ele>
        <time>2012-07-28T07:20:11Z</time>
      </trkpt>
      <trkpt lat="46.4976710" lon="6.8778700">
        <ele>721.8810000</ele>
        <time>2012-07-28T07:20:17Z</time>
      </trkpt>
      <trkpt lat="46.4979790" lon="6.8782760">
        <ele>718.8120000</ele>
        <time>2012-07-28T07:20:20Z</time>
      </trkpt>
      <trkpt lat="46.4982660" lon="6.8785300">
        <ele>714.1530000</ele>
        <time>2012-07-28T07:20:23Z</time>
      </trkpt>
      <trkpt lat="46.4984460" lon="6.8786200">
        <ele>709.6890000</ele>
        <time>2012-07-28T07:20:26Z</time>
      </trkpt>
      <trkpt lat="46.4983650" lon="6.8786710">
        <ele>707.4800000</ele>
        <time>2012-07-28T07:20:28Z</time>
      </trkpt>
      <trkpt lat="46.4981660" lon="6.8786890">
        <ele>704.6290000</ele>
        <time>2012-07-28T07:20:31Z</time>
      </trkpt>
      <trkpt lat="46.4980710" lon="6.8786680">
        <ele>703.8970000</ele>
        <time>2012-07-28T07:20:32Z</time>
      </trkpt>
      <trkpt lat="46.4979120" lon="6.8786230">
        <ele>702.4900000</ele>
        <time>2012-07-28T07:20:34Z</time>
      </trkpt>
      <trkpt lat="46.4977980" lon="6.8787310">
        <ele>700.1870000</ele>
        <time>2012-07-28T07:20:37Z</time>
      </trkpt>
      <trkpt lat="46.4978600" lon="6.8789890">
        <ele>698.1550000</ele>
        <time>2012-07-28T07:20:40Z</time>
      </trkpt>
      <trkpt lat="46.4979470" lon="6.8790480">
        <ele>697.4270000</ele>
        <time>2012-07-28T07:20:41Z</time>
      </trkpt>
      <trkpt lat="46.4983970" lon="6.8794670">
        <ele>694.5510000</ele>
        <time>2012-07-28T07:20:46Z</time>
      </trkpt>
      <trkpt lat="46.4987600" lon="6.8798300">
        <ele>690.2840000</ele>
        <time>2012-07-28T07:20:50Z</time>
      </trkpt>
      <trkpt lat="46.4989340" lon="6.8800030">
        <ele>686.4460000</ele>
        <time>2012-07-28T07:20:53Z</time>
      </trkpt>
      <trkpt lat="46.4990170" lon="6.8801600">
        <ele>682.3600000</ele>
        <time>2012-07-28T07:20:57Z</time>
      </trkpt>
      <trkpt lat="46.4990340" lon="6.8802450">
        <ele>681.2270000</ele>
        <time>2012-07-28T07:20:59Z</time>
      </trkpt>
      <trkpt lat="46.4991460" lon="6.8803140">
        <ele>680.5080000</ele>
        <time>2012-07-28T07:21:02Z</time>
      </trkpt>
      <trkpt lat="46.4995560" lon="6.8805210">
        <ele>681.7810000</ele>
        <time>2012-07-28T07:21:11Z</time>
      </trkpt>
      <trkpt lat="46.4995990" lon="6.8805440">
        <ele>682.0280000</ele>
        <time>2012-07-28T07:21:12Z</time>
      </trkpt>
      <trkpt lat="46.4999100" lon="6.8807810">
        <ele>683.4480000</ele>
        <time>2012-07-28T07:21:20Z</time>
      </trkpt>
      <trkpt lat="46.5000300" lon="6.8810160">
        <ele>684.9300000</ele>
        <time>2012-07-28T07:21:26Z</time>
      </trkpt>
      <trkpt lat="46.5001800" lon="6.8813500">
        <ele>686.0990000</ele>
        <time>2012-07-28T07:21:33Z</time>
      </trkpt>
      <trkpt lat="46.5002930" lon="6.8817580">
        <ele>687.7090000</ele>
        <time>2012-07-28T07:21:41Z</time>
      </trkpt>
      <trkpt lat="46.5003960" lon="6.8821060">
        <ele>689.3930000</ele>
        <time>2012-07-28T07:21:48Z</time>
      </trkpt>
      <trkpt lat="46.5005120" lon="6.8824660">
        <ele>690.8910000</ele>
        <time>2012-07-28T07:21:56Z</time>
      </trkpt>
      <trkpt lat="46.5006160" lon="6.8827670">
        <ele>691.7750000</ele>
        <time>2012-07-28T07:22:02Z</time>
      </trkpt>
      <trkpt lat="46.5006990" lon="6.8829930">
        <ele>692.8510000</ele>
        <time>2012-07-28T07:22:07Z</time>
      </trkpt>
      <trkpt lat="46.5008180" lon="6.8832540">
        <ele>694.3440000</ele>
        <time>2012-07-28T07:22:13Z</time>
      </trkpt>
      <trkpt lat="46.5010070" lon="6.8834500">
        <ele>695.5790000</ele>
        <time>2012-07-28T07:22:19Z</time>
      </trkpt>
      <trkpt lat="46.5012250" lon="6.8835940">
        <ele>696.6680000</ele>
        <time>2012-07-28T07:22:25Z</time>
      </trkpt>
      <trkpt lat="46.5015010" lon="6.8838640">
        <ele>698.1740000</ele>
        <time>2012-07-28T07:22:34Z</time>
      </trkpt>
      <trkpt lat="46.5016420" lon="6.8841350">
        <ele>699.7820000</ele>
        <time>2012-07-28T07:22:41Z</time>
      </trkpt>
      <trkpt lat="46.5017510" lon="6.8843580">
        <ele>700.7290000</ele>
        <time>2012-07-28T07:22:47Z</time>
      </trkpt>
      <trkpt lat="46.5019320" lon="6.8845380">
        <ele>701.8050000</ele>
        <time>2012-07-28T07:22:53Z</time>
      </trkpt>
      <trkpt lat="46.5021600" lon="6.8847970">
        <ele>703.3230000</ele>
        <time>2012-07-28T07:23:01Z</time>
      </trkpt>
      <trkpt lat="46.5022800" lon="6.8850140">
        <ele>704.3930000</ele>
        <time>2012-07-28T07:23:06Z</time>
      </trkpt>
      <trkpt lat="46.5024030" lon="6.8853390">
        <ele>705.9570000</ele>
        <time>2012-07-28T07:23:14Z</time>
      </trkpt>
      <trkpt lat="46.5025130" lon="6.8855610">
        <ele>706.6650000</ele>
        <time>2012-07-28T07:23:20Z</time>
      </trkpt>
      <trkpt lat="46.5027330" lon="6.8857780">
        <ele>707.9330000</ele>
        <time>2012-07-28T07:23:27Z</time>
      </trkpt>
      <trkpt lat="46.5029050" lon="6.8859100">
        <ele>709.0870000</ele>
        <time>2012-07-28T07:23:33Z</time>
      </trkpt>
      <trkpt lat="46.5031580" lon="6.8860690">
        <ele>710.4830000</ele>
        <time>2012-07-28T07:23:42Z</time>
      </trkpt>
      <trkpt lat="46.5033540" lon="6.8862230">
        <ele>711.6030000</ele>
        <time>2012-07-28T07:23:49Z</time>
      </trkpt>
      <trkpt lat="46.5035670" lon="6.8865010">
        <ele>713.1800000</ele>
        <time>2012-07-28T07:23:58Z</time>
      </trkpt>
      <trkpt lat="46.5036840" lon="6.8867270">
        <ele>714.5170000</ele>
        <time>2012-07-28T07:24:05Z</time>
      </trkpt>
      <trkpt lat="46.5037910" lon="6.8869640">
        <ele>715.5130000</ele>
        <time>2012-07-28T07:24:11Z</time>
      </trkpt>
      <trkpt lat="46.5040110" lon="6.8873920">
        <ele>717.5630000</ele>
        <time>2012-07-28T07:24:22Z</time>
      </trkpt>
      <trkpt lat="46.5041620" lon="6.8875670">
        <ele>718.5950000</ele>
        <time>2012-07-28T07:24:28Z</time>
      </trkpt>
      <trkpt lat="46.5044200" lon="6.8877030">
        <ele>719.9080000</ele>
        <time>2012-07-28T07:24:36Z</time>
      </trkpt>
      <trkpt lat="46.5047000" lon="6.8878590">
        <ele>721.7530000</ele>
        <time>2012-07-28T07:24:45Z</time>
      </trkpt>
      <trkpt lat="46.5048720" lon="6.8880850">
        <ele>722.9160000</ele>
        <time>2012-07-28T07:24:52Z</time>
      </trkpt>
      <trkpt lat="46.5049930" lon="6.8883570">
        <ele>724.0480000</ele>
        <time>2012-07-28T07:24:59Z</time>
      </trkpt>
      <trkpt lat="46.5051850" lon="6.8888420">
        <ele>725.9390000</ele>
        <time>2012-07-28T07:25:11Z</time>
      </trkpt>
      <trkpt lat="46.5054300" lon="6.8894250">
        <ele>728.5710000</ele>
        <time>2012-07-28T07:25:25Z</time>
      </trkpt>
      <trkpt lat="46.5056060" lon="6.8898290">
        <ele>730.2270000</ele>
        <time>2012-07-28T07:25:35Z</time>
      </trkpt>
      <trkpt lat="46.5057650" lon="6.8901330">
        <ele>731.4690000</ele>
        <time>2012-07-28T07:25:43Z</time>
      </trkpt>
      <trkpt lat="46.5059530" lon="6.8903290">
        <ele>732.5070000</ele>
        <time>2012-07-28T07:25:50Z</time>
      </trkpt>
      <trkpt lat="46.5061360" lon="6.8904050">
        <ele>733.6210000</ele>
        <time>2012-07-28T07:25:55Z</time>
      </trkpt>
      <trkpt lat="46.5063440" lon="6.8906430">
        <ele>735.1080000</ele>
        <time>2012-07-28T07:26:03Z</time>
      </trkpt>
      <trkpt lat="46.5064480" lon="6.8908990">
        <ele>736.3200000</ele>
        <time>2012-07-28T07:26:09Z</time>
      </trkpt>
      <trkpt lat="46.5065140" lon="6.8911210">
        <ele>737.0910000</ele>
        <time>2012-07-28T07:26:15Z</time>
      </trkpt>
      <trkpt lat="46.5065020" lon="6.8911640">
        <ele>737.8000000</ele>
        <time>2012-07-28T07:26:20Z</time>
      </trkpt>
      <trkpt lat="46.5064950" lon="6.8911970">
        <ele>738.1580000</ele>
        <time>2012-07-28T07:26:30Z</time>
      </trkpt>
      <trkpt lat="46.5065160" lon="6.8912300">
        <ele>737.6650000</ele>
        <time>2012-07-28T07:26:40Z</time>
      </trkpt>
      <trkpt lat="46.5065260" lon="6.8912300">
        <ele>737.5010000</ele>
        <time>2012-07-28T07:26:45Z</time>
      </trkpt>
      <trkpt lat="46.5065490" lon="6.8913450">
        <ele>737.4140000</ele>
        <time>2012-07-28T07:26:49Z</time>
      </trkpt>
      <trkpt lat="46.5066320" lon="6.8915980">
        <ele>735.9450000</ele>
        <time>2012-07-28T07:26:53Z</time>
      </trkpt>
      <trkpt lat="46.5067140" lon="6.8919590">
        <ele>732.2980000</ele>
        <time>2012-07-28T07:26:58Z</time>
      </trkpt>
      <trkpt lat="46.5067280" lon="6.8920400">
        <ele>730.1460000</ele>
        <time>2012-07-28T07:27:01Z</time>
      </trkpt>
      <trkpt lat="46.5067640" lon="6.8921420">
        <ele>728.0310000</ele>
        <time>2012-07-28T07:27:07Z</time>
      </trkpt>
      <trkpt lat="46.5068330" lon="6.8922810">
        <ele>726.8880000</ele>
        <time>2012-07-28T07:27:11Z</time>
      </trkpt>
      <trkpt lat="46.5068490" lon="6.8923430">
        <ele>726.5190000</ele>
        <time>2012-07-28T07:27:12Z</time>
      </trkpt>
      <trkpt lat="46.5069000" lon="6.8924940">
        <ele>725.7030000</ele>
        <time>2012-07-28T07:27:14Z</time>
      </trkpt>
      <trkpt lat="46.5069820" lon="6.8929900">
        <ele>721.8350000</ele>
        <time>2012-07-28T07:27:19Z</time>
      </trkpt>
      <trkpt lat="46.5069920" lon="6.8932600">
        <ele>717.3290000</ele>
        <time>2012-07-28T07:27:23Z</time>
      </trkpt>
      <trkpt lat="46.5070030" lon="6.8934870">
        <ele>713.1250000</ele>
        <time>2012-07-28T07:27:27Z</time>
      </trkpt>
      <trkpt lat="46.5070100" lon="6.8935740">
        <ele>712.2200000</ele>
        <time>2012-07-28T07:27:29Z</time>
      </trkpt>
      <trkpt lat="46.5070410" lon="6.8938330">
        <ele>707.7970000</ele>
        <time>2012-07-28T07:27:36Z</time>
      </trkpt>
      <trkpt lat="46.5070520" lon="6.8940290">
        <ele>704.9490000</ele>
        <time>2012-07-28T07:27:40Z</time>
      </trkpt>
      <trkpt lat="46.5070650" lon="6.8942420">
        <ele>700.3350000</ele>
        <time>2012-07-28T07:27:45Z</time>
      </trkpt>
      <trkpt lat="46.5071210" lon="6.8944550">
        <ele>696.4440000</ele>
        <time>2012-07-28T07:27:49Z</time>
      </trkpt>
      <trkpt lat="46.5071500" lon="6.8944980">
        <ele>695.4860000</ele>
        <time>2012-07-28T07:27:50Z</time>
      </trkpt>
      <trkpt lat="46.5072870" lon="6.8946430">
        <ele>692.2800000</ele>
        <time>2012-07-28T07:27:54Z</time>
      </trkpt>
      <trkpt lat="46.5073740" lon="6.8947100">
        <ele>690.4850000</ele>
        <time>2012-07-28T07:27:56Z</time>
      </trkpt>
      <trkpt lat="46.5074650" lon="6.8949640">
        <ele>686.6840000</ele>
        <time>2012-07-28T07:28:00Z</time>
      </trkpt>
      <trkpt lat="46.5075170" lon="6.8950970">
        <ele>682.7570000</ele>
        <time>2012-07-28T07:28:04Z</time>
      </trkpt>
      <trkpt lat="46.5075360" lon="6.8951110">
        <ele>680.6500000</ele>
        <time>2012-07-28T07:28:08Z</time>
      </trkpt>
      <trkpt lat="46.5075700" lon="6.8950800">
        <ele>680.8190000</ele>
        <time>2012-07-28T07:28:13Z</time>
      </trkpt>
      <trkpt lat="46.5075840" lon="6.8950660">
        <ele>680.6230000</ele>
        <time>2012-07-28T07:28:18Z</time>
      </trkpt>
      <trkpt lat="46.5075960" lon="6.8950640">
        <ele>680.6250000</ele>
        <time>2012-07-28T07:28:19Z</time>
      </trkpt>
      <trkpt lat="46.5077890" lon="6.8951100">
        <ele>680.7700000</ele>
        <time>2012-07-28T07:28:24Z</time>
      </trkpt>
      <trkpt lat="46.5078490" lon="6.8951240">
        <ele>680.8850000</ele>
        <time>2012-07-28T07:28:25Z</time>
      </trkpt>
      <trkpt lat="46.5081580" lon="6.8952170">
        <ele>680.0030000</ele>
        <time>2012-07-28T07:28:31Z</time>
      </trkpt>
      <trkpt lat="46.5083170" lon="6.8952230">
        <ele>677.6220000</ele>
        <time>2012-07-28T07:28:35Z</time>
      </trkpt>
      <trkpt lat="46.5083550" lon="6.8952600">
        <ele>674.6280000</ele>
        <time>2012-07-28T07:28:39Z</time>
      </trkpt>
      <trkpt lat="46.5083530" lon="6.8953050">
        <ele>672.6560000</ele>
        <time>2012-07-28T07:28:44Z</time>
      </trkpt>
      <trkpt lat="46.5084140" lon="6.8953160">
        <ele>671.3670000</ele>
        <time>2012-07-28T07:28:50Z</time>
      </trkpt>
      <trkpt lat="46.5083830" lon="6.8953270">
        <ele>670.1110000</ele>
        <time>2012-07-28T07:28:55Z</time>
      </trkpt>
      <trkpt lat="46.5083750" lon="6.8953300">
        <ele>669.8070000</ele>
        <time>2012-07-28T07:28:56Z</time>
      </trkpt>
      <trkpt lat="46.5083280" lon="6.8954410">
        <ele>668.6030000</ele>
        <time>2012-07-28T07:29:01Z</time>
      </trkpt>
      <trkpt lat="46.5083050" lon="6.8954880">
        <ele>668.4570000</ele>
        <time>2012-07-28T07:29:08Z</time>
      </trkpt>
      <trkpt lat="46.5083190" lon="6.8954460">
        <ele>668.5770000</ele>
        <time>2012-07-28T07:29:15Z</time>
      </trkpt>
      <trkpt lat="46.5083220" lon="6.8953630">
        <ele>668.6060000</ele>
        <time>2012-07-28T07:29:23Z</time>
      </trkpt>
      <trkpt lat="46.5082680" lon="6.8953250">
        <ele>668.8860000</ele>
        <time>2012-07-28T07:29:36Z</time>
      </trkpt>
      <trkpt lat="46.5082580" lon="6.8953220">
        <ele>669.0860000</ele>
        <time>2012-07-28T07:29:40Z</time>
      </trkpt>
      <trkpt lat="46.5082580" lon="6.8953340">
        <ele>669.1220000</ele>
        <time>2012-07-28T07:29:41Z</time>
      </trkpt>
      <trkpt lat="46.5082310" lon="6.8953810">
        <ele>669.1350000</ele>
        <time>2012-07-28T07:29:45Z</time>
      </trkpt>
      <trkpt lat="46.5081890" lon="6.8953870">
        <ele>668.9680000</ele>
        <time>2012-07-28T07:29:50Z</time>
      </trkpt>
      <trkpt lat="46.5081140" lon="6.8955350">
        <ele>669.2250000</ele>
        <time>2012-07-28T07:29:56Z</time>
      </trkpt>
      <trkpt lat="46.5080260" lon="6.8956240">
        <ele>669.2660000</ele>
        <time>2012-07-28T07:30:00Z</time>
      </trkpt>
      <trkpt lat="46.5079780" lon="6.8956840">
        <ele>669.2760000</ele>
        <time>2012-07-28T07:30:03Z</time>
      </trkpt>
      <trkpt lat="46.5079660" lon="6.8957100">
        <ele>669.1850000</ele>
        <time>2012-07-28T07:30:05Z</time>
      </trkpt>
      <trkpt lat="46.5079520" lon="6.8957540">
        <ele>669.3000000</ele>
        <time>2012-07-28T07:30:07Z</time>
      </trkpt>
      <trkpt lat="46.5079720" lon="6.8958750">
        <ele>670.3590000</ele>
        <time>2012-07-28T07:30:13Z</time>
      </trkpt>
      <trkpt lat="46.5079680" lon="6.8959850">
        <ele>672.1100000</ele>
        <time>2012-07-28T07:30:20Z</time>
      </trkpt>
      <trkpt lat="46.5079900" lon="6.8960700">
        <ele>672.9370000</ele>
        <time>2012-07-28T07:30:26Z</time>
      </trkpt>
      <trkpt lat="46.5080150" lon="6.8961290">
        <ele>674.0380000</ele>
        <time>2012-07-28T07:30:31Z</time>
      </trkpt>
      <trkpt lat="46.5080290" lon="6.8961570">
        <ele>674.6140000</ele>
        <time>2012-07-28T07:30:34Z</time>
      </trkpt>
      <trkpt lat="46.5080560" lon="6.8962080">
        <ele>676.3300000</ele>
        <time>2012-07-28T07:30:42Z</time>
      </trkpt>
      <trkpt lat="46.5080960" lon="6.8962250">
        <ele>677.6420000</ele>
        <time>2012-07-28T07:30:48Z</time>
      </trkpt>
      <trkpt lat="46.5081660" lon="6.8962010">
        <ele>679.8810000</ele>
        <time>2012-07-28T07:30:57Z</time>
      </trkpt>
      <trkpt lat="46.5082190" lon="6.8962030">
        <ele>680.8970000</ele>
        <time>2012-07-28T07:31:02Z</time>
      </trkpt>
      <trkpt lat="46.5083050" lon="6.8962470">
        <ele>681.4400000</ele>
        <time>2012-07-28T07:31:09Z</time>
      </trkpt>
      <trkpt lat="46.5083790" lon="6.8962300">
        <ele>682.5110000</ele>
        <time>2012-07-28T07:31:16Z</time>
      </trkpt>
      <trkpt lat="46.5084330" lon="6.8962760">
        <ele>683.7650000</ele>
        <time>2012-07-28T07:31:23Z</time>
      </trkpt>
      <trkpt lat="46.5085130" lon="6.8963070">
        <ele>685.5470000</ele>
        <time>2012-07-28T07:31:31Z</time>
      </trkpt>
      <trkpt lat="46.5086010" lon="6.8963350">
        <ele>687.1480000</ele>
        <time>2012-07-28T07:31:38Z</time>
      </trkpt>
      <trkpt lat="46.5086300" lon="6.8963170">
        <ele>688.3590000</ele>
        <time>2012-07-28T07:31:44Z</time>
      </trkpt>
      <trkpt lat="46.5086420" lon="6.8963030">
        <ele>689.4730000</ele>
        <time>2012-07-28T07:31:48Z</time>
      </trkpt>
      <trkpt lat="46.5086220" lon="6.8962580">
        <ele>690.9850000</ele>
        <time>2012-07-28T07:31:54Z</time>
      </trkpt>
      <trkpt lat="46.5086130" lon="6.8962150">
        <ele>692.1460000</ele>
        <time>2012-07-28T07:32:00Z</time>
      </trkpt>
      <trkpt lat="46.5086120" lon="6.8961470">
        <ele>693.8590000</ele>
        <time>2012-07-28T07:32:09Z</time>
      </trkpt>
      <trkpt lat="46.5086430" lon="6.8960660">
        <ele>695.6630000</ele>
        <time>2012-07-28T07:32:17Z</time>
      </trkpt>
      <trkpt lat="46.5086590" lon="6.8960260">
        <ele>696.9410000</ele>
        <time>2012-07-28T07:32:22Z</time>
      </trkpt>
      <trkpt lat="46.5086870" lon="6.8959990">
        <ele>698.3810000</ele>
        <time>2012-07-28T07:32:28Z</time>
      </trkpt>
      <trkpt lat="46.5087430" lon="6.8959610">
        <ele>700.1850000</ele>
        <time>2012-07-28T07:32:36Z</time>
      </trkpt>
      <trkpt lat="46.5087890" lon="6.8959060">
        <ele>702.4150000</ele>
        <time>2012-07-28T07:32:44Z</time>
      </trkpt>
      <trkpt lat="46.5088040" lon="6.8958590">
        <ele>703.8040000</ele>
        <time>2012-07-28T07:32:50Z</time>
      </trkpt>
      <trkpt lat="46.5088230" lon="6.8958290">
        <ele>705.2880000</ele>
        <time>2012-07-28T07:32:57Z</time>
      </trkpt>
      <trkpt lat="46.5088470" lon="6.8958500">
        <ele>707.3410000</ele>
        <time>2012-07-28T07:33:09Z</time>
      </trkpt>
      <trkpt lat="46.5088720" lon="6.8959040">
        <ele>709.8020000</ele>
        <time>2012-07-28T07:33:18Z</time>
      </trkpt>
      <trkpt lat="46.5088540" lon="6.8959530">
        <ele>710.9170000</ele>
        <time>2012-07-28T07:33:24Z</time>
      </trkpt>
      <trkpt lat="46.5088680" lon="6.8960150">
        <ele>712.7590000</ele>
        <time>2012-07-28T07:33:31Z</time>
      </trkpt>
      <trkpt lat="46.5088950" lon="6.8960390">
        <ele>715.0870000</ele>
        <time>2012-07-28T07:33:40Z</time>
      </trkpt>
      <trkpt lat="46.5089000" lon="6.8959970">
        <ele>716.4150000</ele>
        <time>2012-07-28T07:33:47Z</time>
      </trkpt>
      <trkpt lat="46.5089420" lon="6.8959820">
        <ele>717.7810000</ele>
        <time>2012-07-28T07:33:53Z</time>
      </trkpt>
      <trkpt lat="46.5089980" lon="6.8959950">
        <ele>720.1550000</ele>
        <time>2012-07-28T07:34:04Z</time>
      </trkpt>
      <trkpt lat="46.5090250" lon="6.8959900">
        <ele>721.7330000</ele>
        <time>2012-07-28T07:34:10Z</time>
      </trkpt>
      <trkpt lat="46.5090630" lon="6.8959850">
        <ele>723.2190000</ele>
        <time>2012-07-28T07:34:17Z</time>
      </trkpt>
      <trkpt lat="46.5091020" lon="6.8959820">
        <ele>725.1900000</ele>
        <time>2012-07-28T07:34:26Z</time>
      </trkpt>
      <trkpt lat="46.5091220" lon="6.8959790">
        <ele>726.1370000</ele>
        <time>2012-07-28T07:34:31Z</time>
      </trkpt>
      <trkpt lat="46.5091540" lon="6.8959920">
        <ele>727.6450000</ele>
        <time>2012-07-28T07:34:38Z</time>
      </trkpt>
      <trkpt lat="46.5091910" lon="6.8960240">
        <ele>728.7490000</ele>
        <time>2012-07-28T07:34:45Z</time>
      </trkpt>
      <trkpt lat="46.5092340" lon="6.8960610">
        <ele>729.5310000</ele>
        <time>2012-07-28T07:34:50Z</time>
      </trkpt>
      <trkpt lat="46.5093070" lon="6.8960960">
        <ele>732.3520000</ele>
        <time>2012-07-28T07:35:03Z</time>
      </trkpt>
      <trkpt lat="46.5093770" lon="6.8961450">
        <ele>735.6870000</ele>
        <time>2012-07-28T07:35:17Z</time>
      </trkpt>
      <trkpt lat="46.5094120" lon="6.8961600">
        <ele>737.3440000</ele>
        <time>2012-07-28T07:35:23Z</time>
      </trkpt>
      <trkpt lat="46.5094470" lon="6.8961730">
        <ele>738.6510000</ele>
        <time>2012-07-28T07:35:29Z</time>
      </trkpt>
      <trkpt lat="46.5094740" lon="6.8961820">
        <ele>740.0030000</ele>
        <time>2012-07-28T07:35:38Z</time>
      </trkpt>
      <trkpt lat="46.5094870" lon="6.8961880">
        <ele>741.0020000</ele>
        <time>2012-07-28T07:35:46Z</time>
      </trkpt>
      <trkpt lat="46.5095280" lon="6.8962050">
        <ele>741.6840000</ele>
        <time>2012-07-28T07:35:55Z</time>
      </trkpt>
      <trkpt lat="46.5095550" lon="6.8962020">
        <ele>742.3380000</ele>
        <time>2012-07-28T07:36:04Z</time>
      </trkpt>
      <trkpt lat="46.5095930" lon="6.8961990">
        <ele>742.8440000</ele>
        <time>2012-07-28T07:36:18Z</time>
      </trkpt>
      <trkpt lat="46.5096300" lon="6.8962160">
        <ele>743.9120000</ele>
        <time>2012-07-28T07:36:25Z</time>
      </trkpt>
      <trkpt lat="46.5096920" lon="6.8962270">
        <ele>745.5300000</ele>
        <time>2012-07-28T07:36:34Z</time>
      </trkpt>
      <trkpt lat="46.5097450" lon="6.8962490">
        <ele>747.0050000</ele>
        <time>2012-07-28T07:36:43Z</time>
      </trkpt>
      <trkpt lat="46.5098170" lon="6.8962870">
        <ele>748.4720000</ele>
        <time>2012-07-28T07:36:53Z</time>
      </trkpt>
      <trkpt lat="46.5098630" lon="6.8963030">
        <ele>749.6670000</ele>
        <time>2012-07-28T07:37:00Z</time>
      </trkpt>
      <trkpt lat="46.5099290" lon="6.8963190">
        <ele>750.9510000</ele>
        <time>2012-07-28T07:37:09Z</time>
      </trkpt>
      <trkpt lat="46.5099700" lon="6.8963360">
        <ele>751.8530000</ele>
        <time>2012-07-28T07:37:16Z</time>
      </trkpt>
      <trkpt lat="46.5100250" lon="6.8963540">
        <ele>753.0640000</ele>
        <time>2012-07-28T07:37:24Z</time>
      </trkpt>
      <trkpt lat="46.5100790" lon="6.8963900">
        <ele>754.3630000</ele>
        <time>2012-07-28T07:37:32Z</time>
      </trkpt>
      <trkpt lat="46.5101210" lon="6.8964190">
        <ele>755.2740000</ele>
        <time>2012-07-28T07:37:38Z</time>
      </trkpt>
      <trkpt lat="46.5101680" lon="6.8964400">
        <ele>756.1020000</ele>
        <time>2012-07-28T07:37:44Z</time>
      </trkpt>
      <trkpt lat="46.5102070" lon="6.8964830">
        <ele>757.0740000</ele>
        <time>2012-07-28T07:37:51Z</time>
      </trkpt>
      <trkpt lat="46.5102390" lon="6.8965380">
        <ele>758.5390000</ele>
        <time>2012-07-28T07:37:58Z</time>
      </trkpt>
      <trkpt lat="46.5103000" lon="6.8966260">
        <ele>760.1410000</ele>
        <time>2012-07-28T07:38:07Z</time>
      </trkpt>
      <trkpt lat="46.5103530" lon="6.8967100">
        <ele>761.9690000</ele>
        <time>2012-07-28T07:38:16Z</time>
      </trkpt>
      <trkpt lat="46.5103960" lon="6.8967920">
        <ele>763.4860000</ele>
        <time>2012-07-28T07:38:25Z</time>
      </trkpt>
      <trkpt lat="46.5104690" lon="6.8968740">
        <ele>765.2710000</ele>
        <time>2012-07-28T07:38:35Z</time>
      </trkpt>
      <trkpt lat="46.5105450" lon="6.8969130">
        <ele>766.3110000</ele>
        <time>2012-07-28T07:38:44Z</time>
      </trkpt>
      <trkpt lat="46.5105650" lon="6.8969230">
        <ele>766.6640000</ele>
        <time>2012-07-28T07:38:47Z</time>
      </trkpt>
      <trkpt lat="46.5106490" lon="6.8969800">
        <ele>767.7310000</ele>
        <time>2012-07-28T07:38:58Z</time>
      </trkpt>
      <trkpt lat="46.5107010" lon="6.8969790">
        <ele>768.7330000</ele>
        <time>2012-07-28T07:39:07Z</time>
      </trkpt>
      <trkpt lat="46.5107240" lon="6.8969660">
        <ele>769.1270000</ele>
        <time>2012-07-28T07:39:15Z</time>
      </trkpt>
      <trkpt lat="46.5107350" lon="6.8969740">
        <ele>769.4770000</ele>
        <time>2012-07-28T07:39:22Z</time>
      </trkpt>
      <trkpt lat="46.5107550" lon="6.8970090">
        <ele>770.6110000</ele>
        <time>2012-07-28T07:39:29Z</time>
      </trkpt>
      <trkpt lat="46.5108180" lon="6.8970430">
        <ele>770.9300000</ele>
        <time>2012-07-28T07:39:37Z</time>
      </trkpt>
      <trkpt lat="46.5108400" lon="6.8970500">
        <ele>771.5200000</ele>
        <time>2012-07-28T07:39:45Z</time>
      </trkpt>
      <trkpt lat="46.5108820" lon="6.8970650">
        <ele>771.7140000</ele>
        <time>2012-07-28T07:39:49Z</time>
      </trkpt>
      <trkpt lat="46.5109560" lon="6.8970910">
        <ele>772.7280000</ele>
        <time>2012-07-28T07:39:55Z</time>
      </trkpt>
      <trkpt lat="46.5110670" lon="6.8971350">
        <ele>775.2600000</ele>
        <time>2012-07-28T07:40:04Z</time>
      </trkpt>
      <trkpt lat="46.5111800" lon="6.8971860">
        <ele>778.1580000</ele>
        <time>2012-07-28T07:40:15Z</time>
      </trkpt>
      <trkpt lat="46.5112730" lon="6.8972270">
        <ele>779.6580000</ele>
        <time>2012-07-28T07:40:23Z</time>
      </trkpt>
      <trkpt lat="46.5113830" lon="6.8972840">
        <ele>781.2430000</ele>
        <time>2012-07-28T07:40:32Z</time>
      </trkpt>
      <trkpt lat="46.5115160" lon="6.8973540">
        <ele>782.6150000</ele>
        <time>2012-07-28T07:40:42Z</time>
      </trkpt>
      <trkpt lat="46.5116500" lon="6.8974350">
        <ele>784.6230000</ele>
        <time>2012-07-28T07:40:53Z</time>
      </trkpt>
      <trkpt lat="46.5117730" lon="6.8975510">
        <ele>787.0600000</ele>
        <time>2012-07-28T07:41:04Z</time>
      </trkpt>
      <trkpt lat="46.5118990" lon="6.8976670">
        <ele>788.5620000</ele>
        <time>2012-07-28T07:41:13Z</time>
      </trkpt>
      <trkpt lat="46.5120130" lon="6.8977500">
        <ele>789.2920000</ele>
        <time>2012-07-28T07:41:21Z</time>
      </trkpt>
      <trkpt lat="46.5121710" lon="6.8978450">
        <ele>790.4590000</ele>
        <time>2012-07-28T07:41:31Z</time>
      </trkpt>
      <trkpt lat="46.5123370" lon="6.8978670">
        <ele>791.4600000</ele>
        <time>2012-07-28T07:41:40Z</time>
      </trkpt>
      <trkpt lat="46.5124790" lon="6.8978740">
        <ele>792.0610000</ele>
        <time>2012-07-28T07:41:46Z</time>
      </trkpt>
      <trkpt lat="46.5126970" lon="6.8979180">
        <ele>792.9850000</ele>
        <time>2012-07-28T07:41:56Z</time>
      </trkpt>
      <trkpt lat="46.5128690" lon="6.8979310">
        <ele>794.4700000</ele>
        <time>2012-07-28T07:42:04Z</time>
      </trkpt>
      <trkpt lat="46.5130130" lon="6.8979610">
        <ele>795.7870000</ele>
        <time>2012-07-28T07:42:11Z</time>
      </trkpt>
      <trkpt lat="46.5131610" lon="6.8980080">
        <ele>797.0340000</ele>
        <time>2012-07-28T07:42:18Z</time>
      </trkpt>
      <trkpt lat="46.5133110" lon="6.8980810">
        <ele>799.0270000</ele>
        <time>2012-07-28T07:42:27Z</time>
      </trkpt>
      <trkpt lat="46.5133970" lon="6.8981750">
        <ele>800.0550000</ele>
        <time>2012-07-28T07:42:32Z</time>
      </trkpt>
      <trkpt lat="46.5134590" lon="6.8983760">
        <ele>799.5310000</ele>
        <time>2012-07-28T07:42:37Z</time>
      </trkpt>
      <trkpt lat="46.5134900" lon="6.8985610">
        <ele>797.9020000</ele>
        <time>2012-07-28T07:42:41Z</time>
      </trkpt>
      <trkpt lat="46.5135040" lon="6.8986810">
        <ele>797.0400000</ele>
        <time>2012-07-28T07:42:43Z</time>
      </trkpt>
      <trkpt lat="46.5136530" lon="6.8990280">
        <ele>795.1460000</ele>
        <time>2012-07-28T07:42:48Z</time>
      </trkpt>
      <trkpt lat="46.5138040" lon="6.8991740">
        <ele>795.7270000</ele>
        <time>2012-07-28T07:42:54Z</time>
      </trkpt>
      <trkpt lat="46.5139460" lon="6.8993450">
        <ele>797.0680000</ele>
        <time>2012-07-28T07:43:00Z</time>
      </trkpt>
      <trkpt lat="46.5139940" lon="6.8994850">
        <ele>796.8890000</ele>
        <time>2012-07-28T07:43:03Z</time>
      </trkpt>
      <trkpt lat="46.5140640" lon="6.8996690">
        <ele>795.1910000</ele>
        <time>2012-07-28T07:43:07Z</time>
      </trkpt>
      <trkpt lat="46.5140840" lon="6.8996730">
        <ele>794.8520000</ele>
        <time>2012-07-28T07:43:08Z</time>
      </trkpt>
      <trkpt lat="46.5142140" lon="6.8996650">
        <ele>796.1010000</ele>
        <time>2012-07-28T07:43:16Z</time>
      </trkpt>
      <trkpt lat="46.5142500" lon="6.8996600">
        <ele>797.0050000</ele>
        <time>2012-07-28T07:43:19Z</time>
      </trkpt>
      <trkpt lat="46.5143260" lon="6.8996550">
        <ele>799.7070000</ele>
        <time>2012-07-28T07:43:28Z</time>
      </trkpt>
      <trkpt lat="46.5143660" lon="6.8996580">
        <ele>801.3040000</ele>
        <time>2012-07-28T07:43:35Z</time>
      </trkpt>
      <trkpt lat="46.5143910" lon="6.8996430">
        <ele>803.1300000</ele>
        <time>2012-07-28T07:43:43Z</time>
      </trkpt>
      <trkpt lat="46.5144000" lon="6.8996020">
        <ele>804.8940000</ele>
        <time>2012-07-28T07:43:51Z</time>
      </trkpt>
      <trkpt lat="46.5144320" lon="6.8995830">
        <ele>805.5250000</ele>
        <time>2012-07-28T07:43:56Z</time>
      </trkpt>
      <trkpt lat="46.5145130" lon="6.8995860">
        <ele>806.8750000</ele>
        <time>2012-07-28T07:44:05Z</time>
      </trkpt>
      <trkpt lat="46.5145790" lon="6.8996030">
        <ele>808.1450000</ele>
        <time>2012-07-28T07:44:13Z</time>
      </trkpt>
      <trkpt lat="46.5146280" lon="6.8995750">
        <ele>808.7830000</ele>
        <time>2012-07-28T07:44:21Z</time>
      </trkpt>
      <trkpt lat="46.5147300" lon="6.8995850">
        <ele>808.9200000</ele>
        <time>2012-07-28T07:44:37Z</time>
      </trkpt>
      <trkpt lat="46.5147860" lon="6.8995610">
        <ele>809.1030000</ele>
        <time>2012-07-28T07:44:48Z</time>
      </trkpt>
      <trkpt lat="46.5147910" lon="6.8995720">
        <ele>809.1400000</ele>
        <time>2012-07-28T07:45:04Z</time>
      </trkpt>
      <trkpt lat="46.5147770" lon="6.8995640">
        <ele>809.4100000</ele>
        <time>2012-07-28T07:45:18Z</time>
      </trkpt>
      <trkpt lat="46.5147660" lon="6.8995780">
        <ele>809.2450000</ele>
        <time>2012-07-28T07:45:25Z</time>
      </trkpt>
      <trkpt lat="46.5147500" lon="6.8995960">
        <ele>809.5170000</ele>
        <time>2012-07-28T07:45:32Z</time>
      </trkpt>
      <trkpt lat="46.5147420" lon="6.8996110">
        <ele>809.4550000</ele>
        <time>2012-07-28T07:45:39Z</time>
      </trkpt>
      <trkpt lat="46.5147640" lon="6.8995950">
        <ele>809.5600000</ele>
        <time>2012-07-28T07:46:00Z</time>
      </trkpt>
      <trkpt lat="46.5148680" lon="6.8995840">
        <ele>809.6520000</ele>
        <time>2012-07-28T07:46:06Z</time>
      </trkpt>
      <trkpt lat="46.5150060" lon="6.8995350">
        <ele>810.5940000</ele>
        <time>2012-07-28T07:46:13Z</time>
      </trkpt>
      <trkpt lat="46.5151310" lon="6.8994720">
        <ele>812.3010000</ele>
        <time>2012-07-28T07:46:20Z</time>
      </trkpt>
      <trkpt lat="46.5152930" lon="6.8994370">
        <ele>813.2720000</ele>
        <time>2012-07-28T07:46:27Z</time>
      </trkpt>
      <trkpt lat="46.5154820" lon="6.8993500">
        <ele>813.6980000</ele>
        <time>2012-07-28T07:46:34Z</time>
      </trkpt>
      <trkpt lat="46.5157180" lon="6.8992130">
        <ele>813.8770000</ele>
        <time>2012-07-28T07:46:41Z</time>
      </trkpt>
      <trkpt lat="46.5158980" lon="6.8991200">
        <ele>814.2440000</ele>
        <time>2012-07-28T07:46:46Z</time>
      </trkpt>
      <trkpt lat="46.5161950" lon="6.8988930">
        <ele>814.3570000</ele>
        <time>2012-07-28T07:46:54Z</time>
      </trkpt>
      <trkpt lat="46.5164020" lon="6.8987120">
        <ele>815.4610000</ele>
        <time>2012-07-28T07:47:01Z</time>
      </trkpt>
      <trkpt lat="46.5166020" lon="6.8985820">
        <ele>818.7720000</ele>
        <time>2012-07-28T07:47:09Z</time>
      </trkpt>
      <trkpt lat="46.5168720" lon="6.8985140">
        <ele>819.6280000</ele>
        <time>2012-07-28T07:47:17Z</time>
      </trkpt>
      <trkpt lat="46.5169810" lon="6.8984950">
        <ele>819.6690000</ele>
        <time>2012-07-28T07:47:20Z</time>
      </trkpt>
      <trkpt lat="46.5172060" lon="6.8985960">
        <ele>819.1310000</ele>
        <time>2012-07-28T07:47:25Z</time>
      </trkpt>
      <trkpt lat="46.5173220" lon="6.8988540">
        <ele>817.8140000</ele>
        <time>2012-07-28T07:47:28Z</time>
      </trkpt>
      <trkpt lat="46.5173760" lon="6.8991130">
        <ele>816.6660000</ele>
        <time>2012-07-28T07:47:31Z</time>
      </trkpt>
      <trkpt lat="46.5174240" lon="6.8994250">
        <ele>817.1250000</ele>
        <time>2012-07-28T07:47:36Z</time>
      </trkpt>
      <trkpt lat="46.5175310" lon="6.8996350">
        <ele>819.0560000</ele>
        <time>2012-07-28T07:47:42Z</time>
      </trkpt>
      <trkpt lat="46.5178120" lon="6.8996990">
        <ele>820.8230000</ele>
        <time>2012-07-28T07:47:50Z</time>
      </trkpt>
      <trkpt lat="46.5181230" lon="6.8997620">
        <ele>821.7330000</ele>
        <time>2012-07-28T07:47:59Z</time>
      </trkpt>
      <trkpt lat="46.5183980" lon="6.8998750">
        <ele>822.9580000</ele>
        <time>2012-07-28T07:48:08Z</time>
      </trkpt>
      <trkpt lat="46.5185610" lon="6.8999340">
        <ele>824.7330000</ele>
        <time>2012-07-28T07:48:15Z</time>
      </trkpt>
      <trkpt lat="46.5187570" lon="6.8999980">
        <ele>828.1560000</ele>
        <time>2012-07-28T07:48:24Z</time>
      </trkpt>
      <trkpt lat="46.5189420" lon="6.9000700">
        <ele>829.8900000</ele>
        <time>2012-07-28T07:48:31Z</time>
      </trkpt>
      <trkpt lat="46.5192110" lon="6.9000980">
        <ele>830.7750000</ele>
        <time>2012-07-28T07:48:39Z</time>
      </trkpt>
      <trkpt lat="46.5195350" lon="6.9002060">
        <ele>830.9770000</ele>
        <time>2012-07-28T07:48:47Z</time>
      </trkpt>
      <trkpt lat="46.5199130" lon="6.9003350">
        <ele>830.8580000</ele>
        <time>2012-07-28T07:48:55Z</time>
      </trkpt>
      <trkpt lat="46.5204330" lon="6.9004750">
        <ele>830.2360000</ele>
        <time>2012-07-28T07:49:05Z</time>
      </trkpt>
      <trkpt lat="46.5208260" lon="6.9006980">
        <ele>830.0630000</ele>
        <time>2012-07-28T07:49:13Z</time>
      </trkpt>
      <trkpt lat="46.5211150" lon="6.9009670">
        <ele>830.6630000</ele>
        <time>2012-07-28T07:49:20Z</time>
      </trkpt>
      <trkpt lat="46.5215860" lon="6.9014040">
        <ele>830.3600000</ele>
        <time>2012-07-28T07:49:31Z</time>
      </trkpt>
      <trkpt lat="46.5218360" lon="6.9015410">
        <ele>830.4230000</ele>
        <time>2012-07-28T07:49:36Z</time>
      </trkpt>
      <trkpt lat="46.5219970" lon="6.9017100">
        <ele>830.6390000</ele>
        <time>2012-07-28T07:49:40Z</time>
      </trkpt>
      <trkpt lat="46.5222160" lon="6.9018660">
        <ele>831.6360000</ele>
        <time>2012-07-28T07:49:46Z</time>
      </trkpt>
      <trkpt lat="46.5225420" lon="6.9018920">
        <ele>834.7850000</ele>
        <time>2012-07-28T07:49:55Z</time>
      </trkpt>
      <trkpt lat="46.5228430" lon="6.9018580">
        <ele>834.9780000</ele>
        <time>2012-07-28T07:50:01Z</time>
      </trkpt>
      <trkpt lat="46.5232070" lon="6.9018520">
        <ele>833.1130000</ele>
        <time>2012-07-28T07:50:06Z</time>
      </trkpt>
      <trkpt lat="46.5233850" lon="6.9018610">
        <ele>832.1180000</ele>
        <time>2012-07-28T07:50:08Z</time>
      </trkpt>
      <trkpt lat="46.5238930" lon="6.9020910">
        <ele>829.9840000</ele>
        <time>2012-07-28T07:50:14Z</time>
      </trkpt>
      <trkpt lat="46.5242050" lon="6.9024320">
        <ele>829.2280000</ele>
        <time>2012-07-28T07:50:19Z</time>
      </trkpt>
      <trkpt lat="46.5242620" lon="6.9024880">
        <ele>829.2430000</ele>
        <time>2012-07-28T07:50:20Z</time>
      </trkpt>
      <trkpt lat="46.5245810" lon="6.9026570">
        <ele>830.4380000</ele>
        <time>2012-07-28T07:50:26Z</time>
      </trkpt>
      <trkpt lat="46.5249350" lon="6.9028390">
        <ele>832.5410000</ele>
        <time>2012-07-28T07:50:34Z</time>
      </trkpt>
      <trkpt lat="46.5252500" lon="6.9029760">
        <ele>833.1180000</ele>
        <time>2012-07-28T07:50:41Z</time>
      </trkpt>
      <trkpt lat="46.5254600" lon="6.9030820">
        <ele>833.3200000</ele>
        <time>2012-07-28T07:50:46Z</time>
      </trkpt>
      <trkpt lat="46.5256380" lon="6.9030670">
        <ele>832.8550000</ele>
        <time>2012-07-28T07:50:50Z</time>
      </trkpt>
      <trkpt lat="46.5257900" lon="6.9029910">
        <ele>832.4190000</ele>
        <time>2012-07-28T07:50:53Z</time>
      </trkpt>
      <trkpt lat="46.5259750" lon="6.9027990">
        <ele>832.3460000</ele>
        <time>2012-07-28T07:50:57Z</time>
      </trkpt>
      <trkpt lat="46.5261940" lon="6.9023930">
        <ele>831.8260000</ele>
        <time>2012-07-28T07:51:03Z</time>
      </trkpt>
      <trkpt lat="46.5264010" lon="6.9022340">
        <ele>831.2760000</ele>
        <time>2012-07-28T07:51:07Z</time>
      </trkpt>
      <trkpt lat="46.5265140" lon="6.9022370">
        <ele>831.2820000</ele>
        <time>2012-07-28T07:51:09Z</time>
      </trkpt>
      <trkpt lat="46.5266120" lon="6.9022550">
        <ele>831.4380000</ele>
        <time>2012-07-28T07:51:11Z</time>
      </trkpt>
      <trkpt lat="46.5267880" lon="6.9022560">
        <ele>832.2770000</ele>
        <time>2012-07-28T07:51:15Z</time>
      </trkpt>
      <trkpt lat="46.5269000" lon="6.9020320">
        <ele>833.1460000</ele>
        <time>2012-07-28T07:51:19Z</time>
      </trkpt>
      <trkpt lat="46.5269240" lon="6.9017970">
        <ele>833.2750000</ele>
        <time>2012-07-28T07:51:22Z</time>
      </trkpt>
      <trkpt lat="46.5269250" lon="6.9014340">
        <ele>832.7880000</ele>
        <time>2012-07-28T07:51:26Z</time>
      </trkpt>
      <trkpt lat="46.5269620" lon="6.9009210">
        <ele>831.8290000</ele>
        <time>2012-07-28T07:51:32Z</time>
      </trkpt>
      <trkpt lat="46.5269930" lon="6.9006020">
        <ele>831.5020000</ele>
        <time>2012-07-28T07:51:36Z</time>
      </trkpt>
      <trkpt lat="46.5270210" lon="6.9005330">
        <ele>831.4670000</ele>
        <time>2012-07-28T07:51:37Z</time>
      </trkpt>
      <trkpt lat="46.5272700" lon="6.9001220">
        <ele>831.7170000</ele>
        <time>2012-07-28T07:51:44Z</time>
      </trkpt>
      <trkpt lat="46.5275080" lon="6.8995990">
        <ele>832.1510000</ele>
        <time>2012-07-28T07:51:52Z</time>
      </trkpt>
      <trkpt lat="46.5275680" lon="6.8992110">
        <ele>832.7130000</ele>
        <time>2012-07-28T07:51:57Z</time>
      </trkpt>
      <trkpt lat="46.5275740" lon="6.8988150">
        <ele>833.0570000</ele>
        <time>2012-07-28T07:52:02Z</time>
      </trkpt>
      <trkpt lat="46.5276600" lon="6.8983290">
        <ele>832.9640000</ele>
        <time>2012-07-28T07:52:08Z</time>
      </trkpt>
      <trkpt lat="46.5278410" lon="6.8978520">
        <ele>832.6430000</ele>
        <time>2012-07-28T07:52:14Z</time>
      </trkpt>
      <trkpt lat="46.5281000" lon="6.8973540">
        <ele>832.5470000</ele>
        <time>2012-07-28T07:52:21Z</time>
      </trkpt>
      <trkpt lat="46.5283140" lon="6.8967940">
        <ele>832.8110000</ele>
        <time>2012-07-28T07:52:28Z</time>
      </trkpt>
      <trkpt lat="46.5283830" lon="6.8962820">
        <ele>832.1670000</ele>
        <time>2012-07-28T07:52:33Z</time>
      </trkpt>
      <trkpt lat="46.5283530" lon="6.8957510">
        <ele>831.2350000</ele>
        <time>2012-07-28T07:52:38Z</time>
      </trkpt>
      <trkpt lat="46.5282590" lon="6.8950810">
        <ele>829.9540000</ele>
        <time>2012-07-28T07:52:44Z</time>
      </trkpt>
      <trkpt lat="46.5280850" lon="6.8942690">
        <ele>827.7870000</ele>
        <time>2012-07-28T07:52:51Z</time>
      </trkpt>
      <trkpt lat="46.5279960" lon="6.8940540">
        <ele>827.2140000</ele>
        <time>2012-07-28T07:52:53Z</time>
      </trkpt>
      <trkpt lat="46.5278910" lon="6.8938590">
        <ele>826.5360000</ele>
        <time>2012-07-28T07:52:55Z</time>
      </trkpt>
      <trkpt lat="46.5276360" lon="6.8932550">
        <ele>825.2090000</ele>
        <time>2012-07-28T07:53:01Z</time>
      </trkpt>
      <trkpt lat="46.5275150" lon="6.8929040">
        <ele>825.2980000</ele>
        <time>2012-07-28T07:53:05Z</time>
      </trkpt>
      <trkpt lat="46.5274870" lon="6.8925100">
        <ele>826.0570000</ele>
        <time>2012-07-28T07:53:10Z</time>
      </trkpt>
      <trkpt lat="46.5274560" lon="6.8919270">
        <ele>828.1910000</ele>
        <time>2012-07-28T07:53:18Z</time>
      </trkpt>
      <trkpt lat="46.5273970" lon="6.8915230">
        <ele>829.4780000</ele>
        <time>2012-07-28T07:53:24Z</time>
      </trkpt>
      <trkpt lat="46.5273860" lon="6.8911760">
        <ele>830.6800000</ele>
        <time>2012-07-28T07:53:30Z</time>
      </trkpt>
      <trkpt lat="46.5274590" lon="6.8909020">
        <ele>831.7410000</ele>
        <time>2012-07-28T07:53:36Z</time>
      </trkpt>
      <trkpt lat="46.5276080" lon="6.8906340">
        <ele>834.0900000</ele>
        <time>2012-07-28T07:53:44Z</time>
      </trkpt>
      <trkpt lat="46.5277560" lon="6.8903610">
        <ele>835.6040000</ele>
        <time>2012-07-28T07:53:52Z</time>
      </trkpt>
      <trkpt lat="46.5278640" lon="6.8900710">
        <ele>837.6450000</ele>
        <time>2012-07-28T07:54:00Z</time>
      </trkpt>
      <trkpt lat="46.5279660" lon="6.8897790">
        <ele>838.8330000</ele>
        <time>2012-07-28T07:54:06Z</time>
      </trkpt>
      <trkpt lat="46.5281350" lon="6.8894180">
        <ele>838.0520000</ele>
        <time>2012-07-28T07:54:11Z</time>
      </trkpt>
      <trkpt lat="46.5282450" lon="6.8892450">
        <ele>837.0140000</ele>
        <time>2012-07-28T07:54:13Z</time>
      </trkpt>
      <trkpt lat="46.5286020" lon="6.8888680">
        <ele>834.5880000</ele>
        <time>2012-07-28T07:54:19Z</time>
      </trkpt>
      <trkpt lat="46.5287200" lon="6.8887520">
        <ele>833.9600000</ele>
        <time>2012-07-28T07:54:21Z</time>
      </trkpt>
      <trkpt lat="46.5289020" lon="6.8884040">
        <ele>833.0210000</ele>
        <time>2012-07-28T07:54:25Z</time>
      </trkpt>
      <trkpt lat="46.5289010" lon="6.8880390">
        <ele>831.4640000</ele>
        <time>2012-07-28T07:54:28Z</time>
      </trkpt>
      <trkpt lat="46.5288030" lon="6.8878760">
        <ele>830.4040000</ele>
        <time>2012-07-28T07:54:30Z</time>
      </trkpt>
      <trkpt lat="46.5287470" lon="6.8878240">
        <ele>829.8140000</ele>
        <time>2012-07-28T07:54:31Z</time>
      </trkpt>
      <trkpt lat="46.5286100" lon="6.8874200">
        <ele>827.2450000</ele>
        <time>2012-07-28T07:54:36Z</time>
      </trkpt>
      <trkpt lat="46.5286000" lon="6.8873200">
        <ele>826.8040000</ele>
        <time>2012-07-28T07:54:37Z</time>
      </trkpt>
      <trkpt lat="46.5286890" lon="6.8868790">
        <ele>824.4170000</ele>
        <time>2012-07-28T07:54:41Z</time>
      </trkpt>
      <trkpt lat="46.5288230" lon="6.8866500">
        <ele>822.8470000</ele>
        <time>2012-07-28T07:54:43Z</time>
      </trkpt>
      <trkpt lat="46.5289740" lon="6.8864100">
        <ele>820.9670000</ele>
        <time>2012-07-28T07:54:45Z</time>
      </trkpt>
      <trkpt lat="46.5291860" lon="6.8858530">
        <ele>818.2980000</ele>
        <time>2012-07-28T07:54:49Z</time>
      </trkpt>
      <trkpt lat="46.5292940" lon="6.8855180">
        <ele>816.9970000</ele>
        <time>2012-07-28T07:54:52Z</time>
      </trkpt>
      <trkpt lat="46.5294300" lon="6.8853470">
        <ele>817.4060000</ele>
        <time>2012-07-28T07:54:55Z</time>
      </trkpt>
      <trkpt lat="46.5295680" lon="6.8851950">
        <ele>818.9190000</ele>
        <time>2012-07-28T07:54:59Z</time>
      </trkpt>
      <trkpt lat="46.5297790" lon="6.8851240">
        <ele>820.4600000</ele>
        <time>2012-07-28T07:55:04Z</time>
      </trkpt>
      <trkpt lat="46.5301810" lon="6.8851920">
        <ele>821.6750000</ele>
        <time>2012-07-28T07:55:12Z</time>
      </trkpt>
      <trkpt lat="46.5306000" lon="6.8853160">
        <ele>822.6150000</ele>
        <time>2012-07-28T07:55:21Z</time>
      </trkpt>
      <trkpt lat="46.5307460" lon="6.8852460">
        <ele>822.8300000</ele>
        <time>2012-07-28T07:55:25Z</time>
      </trkpt>
      <trkpt lat="46.5307820" lon="6.8850960">
        <ele>823.2120000</ele>
        <time>2012-07-28T07:55:28Z</time>
      </trkpt>
      <trkpt lat="46.5308660" lon="6.8846820">
        <ele>825.7030000</ele>
        <time>2012-07-28T07:55:37Z</time>
      </trkpt>
      <trkpt lat="46.5309730" lon="6.8844870">
        <ele>827.2540000</ele>
        <time>2012-07-28T07:55:43Z</time>
      </trkpt>
      <trkpt lat="46.5311140" lon="6.8843080">
        <ele>829.5310000</ele>
        <time>2012-07-28T07:55:50Z</time>
      </trkpt>
      <trkpt lat="46.5312050" lon="6.8840750">
        <ele>831.3430000</ele>
        <time>2012-07-28T07:55:57Z</time>
      </trkpt>
      <trkpt lat="46.5311750" lon="6.8838640">
        <ele>832.2040000</ele>
        <time>2012-07-28T07:56:02Z</time>
      </trkpt>
      <trkpt lat="46.5310100" lon="6.8834450">
        <ele>833.6660000</ele>
        <time>2012-07-28T07:56:12Z</time>
      </trkpt>
      <trkpt lat="46.5308810" lon="6.8830820">
        <ele>835.7410000</ele>
        <time>2012-07-28T07:56:21Z</time>
      </trkpt>
      <trkpt lat="46.5308300" lon="6.8827340">
        <ele>838.2140000</ele>
        <time>2012-07-28T07:56:30Z</time>
      </trkpt>
      <trkpt lat="46.5308550" lon="6.8825470">
        <ele>839.3200000</ele>
        <time>2012-07-28T07:56:34Z</time>
      </trkpt>
      <trkpt lat="46.5310030" lon="6.8821080">
        <ele>838.2190000</ele>
        <time>2012-07-28T07:56:40Z</time>
      </trkpt>
      <trkpt lat="46.5312230" lon="6.8815850">
        <ele>834.8690000</ele>
        <time>2012-07-28T07:56:46Z</time>
      </trkpt>
      <trkpt lat="46.5312810" lon="6.8811130">
        <ele>832.2620000</ele>
        <time>2012-07-28T07:56:50Z</time>
      </trkpt>
      <trkpt lat="46.5312510" lon="6.8802260">
        <ele>828.1070000</ele>
        <time>2012-07-28T07:56:55Z</time>
      </trkpt>
      <trkpt lat="46.5311760" lon="6.8793380">
        <ele>823.0720000</ele>
        <time>2012-07-28T07:57:00Z</time>
      </trkpt>
      <trkpt lat="46.5311250" lon="6.8787280">
        <ele>820.4150000</ele>
        <time>2012-07-28T07:57:04Z</time>
      </trkpt>
      <trkpt lat="46.5311180" lon="6.8785910">
        <ele>820.0210000</ele>
        <time>2012-07-28T07:57:05Z</time>
      </trkpt>
      <trkpt lat="46.5311790" lon="6.8783660">
        <ele>819.2180000</ele>
        <time>2012-07-28T07:57:08Z</time>
      </trkpt>
      <trkpt lat="46.5312920" lon="6.8783810">
        <ele>819.1970000</ele>
        <time>2012-07-28T07:57:10Z</time>
      </trkpt>
      <trkpt lat="46.5313980" lon="6.8783940">
        <ele>819.4290000</ele>
        <time>2012-07-28T07:57:12Z</time>
      </trkpt>
      <trkpt lat="46.5314940" lon="6.8783920">
        <ele>819.6960000</ele>
        <time>2012-07-28T07:57:14Z</time>
      </trkpt>
      <trkpt lat="46.5316170" lon="6.8783620">
        <ele>820.2780000</ele>
        <time>2012-07-28T07:57:17Z</time>
      </trkpt>
      <trkpt lat="46.5319270" lon="6.8781080">
        <ele>821.5130000</ele>
        <time>2012-07-28T07:57:25Z</time>
      </trkpt>
      <trkpt lat="46.5320050" lon="6.8780500">
        <ele>821.7510000</ele>
        <time>2012-07-28T07:57:27Z</time>
      </trkpt>
      <trkpt lat="46.5322150" lon="6.8779750">
        <ele>822.2680000</ele>
        <time>2012-07-28T07:57:32Z</time>
      </trkpt>
      <trkpt lat="46.5327070" lon="6.8780220">
        <ele>823.1590000</ele>
        <time>2012-07-28T07:57:43Z</time>
      </trkpt>
      <trkpt lat="46.5330630" lon="6.8780050">
        <ele>824.1580000</ele>
        <time>2012-07-28T07:57:51Z</time>
      </trkpt>
      <trkpt lat="46.5333680" lon="6.8778280">
        <ele>825.5710000</ele>
        <time>2012-07-28T07:57:59Z</time>
      </trkpt>
      <trkpt lat="46.5336700" lon="6.8776790">
        <ele>827.1430000</ele>
        <time>2012-07-28T07:58:07Z</time>
      </trkpt>
      <trkpt lat="46.5339690" lon="6.8776580">
        <ele>828.8120000</ele>
        <time>2012-07-28T07:58:15Z</time>
      </trkpt>
      <trkpt lat="46.5343450" lon="6.8776610">
        <ele>831.0990000</ele>
        <time>2012-07-28T07:58:25Z</time>
      </trkpt>
      <trkpt lat="46.5347300" lon="6.8776680">
        <ele>832.3640000</ele>
        <time>2012-07-28T07:58:35Z</time>
      </trkpt>
      <trkpt lat="46.5350750" lon="6.8777360">
        <ele>834.0110000</ele>
        <time>2012-07-28T07:58:44Z</time>
      </trkpt>
      <trkpt lat="46.5354870" lon="6.8778700">
        <ele>835.9410000</ele>
        <time>2012-07-28T07:58:55Z</time>
      </trkpt>
      <trkpt lat="46.5360010" lon="6.8780010">
        <ele>837.3740000</ele>
        <time>2012-07-28T07:59:08Z</time>
      </trkpt>
      <trkpt lat="46.5363390" lon="6.8780460">
        <ele>838.3290000</ele>
        <time>2012-07-28T07:59:16Z</time>
      </trkpt>
      <trkpt lat="46.5368320" lon="6.8781090">
        <ele>839.1010000</ele>
        <time>2012-07-28T07:59:27Z</time>
      </trkpt>
      <trkpt lat="46.5372980" lon="6.8781750">
        <ele>840.9420000</ele>
        <time>2012-07-28T07:59:38Z</time>
      </trkpt>
      <trkpt lat="46.5377220" lon="6.8782330">
        <ele>843.2170000</ele>
        <time>2012-07-28T07:59:49Z</time>
      </trkpt>
      <trkpt lat="46.5380740" lon="6.8782720">
        <ele>845.4980000</ele>
        <time>2012-07-28T07:59:59Z</time>
      </trkpt>
      <trkpt lat="46.5383660" lon="6.8782800">
        <ele>847.8240000</ele>
        <time>2012-07-28T08:00:08Z</time>
      </trkpt>
      <trkpt lat="46.5385270" lon="6.8781440">
        <ele>848.8810000</ele>
        <time>2012-07-28T08:00:13Z</time>
      </trkpt>
      <trkpt lat="46.5388030" lon="6.8778940">
        <ele>849.3390000</ele>
        <time>2012-07-28T08:00:20Z</time>
      </trkpt>
      <trkpt lat="46.5390350" lon="6.8776740">
        <ele>849.7440000</ele>
        <time>2012-07-28T08:00:26Z</time>
      </trkpt>
      <trkpt lat="46.5392180" lon="6.8773430">
        <ele>849.1560000</ele>
        <time>2012-07-28T08:00:31Z</time>
      </trkpt>
      <trkpt lat="46.5392620" lon="6.8772500">
        <ele>848.7510000</ele>
        <time>2012-07-28T08:00:32Z</time>
      </trkpt>
      <trkpt lat="46.5395650" lon="6.8769860">
        <ele>846.2810000</ele>
        <time>2012-07-28T08:00:36Z</time>
      </trkpt>
      <trkpt lat="46.5396640" lon="6.8769570">
        <ele>845.5530000</ele>
        <time>2012-07-28T08:00:37Z</time>
      </trkpt>
      <trkpt lat="46.5398650" lon="6.8769230">
        <ele>844.1330000</ele>
        <time>2012-07-28T08:00:39Z</time>
      </trkpt>
      <trkpt lat="46.5402120" lon="6.8770510">
        <ele>842.9500000</ele>
        <time>2012-07-28T08:00:43Z</time>
      </trkpt>
      <trkpt lat="46.5405440" lon="6.8771940">
        <ele>844.0110000</ele>
        <time>2012-07-28T08:00:48Z</time>
      </trkpt>
      <trkpt lat="46.5409170" lon="6.8773410">
        <ele>846.8620000</ele>
        <time>2012-07-28T08:00:55Z</time>
      </trkpt>
      <trkpt lat="46.5412500" lon="6.8775060">
        <ele>850.1040000</ele>
        <time>2012-07-28T08:01:03Z</time>
      </trkpt>
      <trkpt lat="46.5415280" lon="6.8776290">
        <ele>852.4060000</ele>
        <time>2012-07-28T08:01:11Z</time>
      </trkpt>
      <trkpt lat="46.5417110" lon="6.8777560">
        <ele>854.4960000</ele>
        <time>2012-07-28T08:01:18Z</time>
      </trkpt>
      <trkpt lat="46.5419100" lon="6.8778370">
        <ele>856.8310000</ele>
        <time>2012-07-28T08:01:26Z</time>
      </trkpt>
      <trkpt lat="46.5420980" lon="6.8779170">
        <ele>859.1060000</ele>
        <time>2012-07-28T08:01:34Z</time>
      </trkpt>
      <trkpt lat="46.5422900" lon="6.8781270">
        <ele>861.9250000</ele>
        <time>2012-07-28T08:01:43Z</time>
      </trkpt>
      <trkpt lat="46.5425060" lon="6.8783260">
        <ele>863.4020000</ele>
        <time>2012-07-28T08:01:52Z</time>
      </trkpt>
      <trkpt lat="46.5426790" lon="6.8784660">
        <ele>864.4090000</ele>
        <time>2012-07-28T08:01:59Z</time>
      </trkpt>
      <trkpt lat="46.5428530" lon="6.8786040">
        <ele>865.4440000</ele>
        <time>2012-07-28T08:02:06Z</time>
      </trkpt>
      <trkpt lat="46.5431030" lon="6.8787260">
        <ele>867.3650000</ele>
        <time>2012-07-28T08:02:16Z</time>
      </trkpt>
      <trkpt lat="46.5433060" lon="6.8788280">
        <ele>869.2260000</ele>
        <time>2012-07-28T08:02:24Z</time>
      </trkpt>
      <trkpt lat="46.5436030" lon="6.8790160">
        <ele>871.0660000</ele>
        <time>2012-07-28T08:02:34Z</time>
      </trkpt>
      <trkpt lat="46.5438450" lon="6.8791010">
        <ele>871.5570000</ele>
        <time>2012-07-28T08:02:41Z</time>
      </trkpt>
      <trkpt lat="46.5442770" lon="6.8792590">
        <ele>872.9530000</ele>
        <time>2012-07-28T08:02:53Z</time>
      </trkpt>
      <trkpt lat="46.5446350" lon="6.8794740">
        <ele>874.2030000</ele>
        <time>2012-07-28T08:03:03Z</time>
      </trkpt>
      <trkpt lat="46.5449340" lon="6.8796300">
        <ele>874.7710000</ele>
        <time>2012-07-28T08:03:10Z</time>
      </trkpt>
      <trkpt lat="46.5454210" lon="6.8798390">
        <ele>874.7210000</ele>
        <time>2012-07-28T08:03:20Z</time>
      </trkpt>
      <trkpt lat="46.5458140" lon="6.8799720">
        <ele>875.0550000</ele>
        <time>2012-07-28T08:03:28Z</time>
      </trkpt>
      <trkpt lat="46.5462500" lon="6.8800790">
        <ele>874.4840000</ele>
        <time>2012-07-28T08:03:36Z</time>
      </trkpt>
      <trkpt lat="46.5463710" lon="6.8801050">
        <ele>874.3960000</ele>
        <time>2012-07-28T08:03:38Z</time>
      </trkpt>
      <trkpt lat="46.5466090" lon="6.8802530">
        <ele>873.5230000</ele>
        <time>2012-07-28T08:03:42Z</time>
      </trkpt>
      <trkpt lat="46.5472380" lon="6.8808450">
        <ele>871.0520000</ele>
        <time>2012-07-28T08:03:51Z</time>
      </trkpt>
      <trkpt lat="46.5477620" lon="6.8813280">
        <ele>868.6330000</ele>
        <time>2012-07-28T08:03:58Z</time>
      </trkpt>
      <trkpt lat="46.5479200" lon="6.8814450">
        <ele>868.0210000</ele>
        <time>2012-07-28T08:04:00Z</time>
      </trkpt>
      <trkpt lat="46.5483770" lon="6.8815960">
        <ele>866.7580000</ele>
        <time>2012-07-28T08:04:05Z</time>
      </trkpt>
      <trkpt lat="46.5488290" lon="6.8818820">
        <ele>864.1050000</ele>
        <time>2012-07-28T08:04:10Z</time>
      </trkpt>
      <trkpt lat="46.5493240" lon="6.8822750">
        <ele>860.3420000</ele>
        <time>2012-07-28T08:04:16Z</time>
      </trkpt>
      <trkpt lat="46.5496720" lon="6.8825380">
        <ele>857.7490000</ele>
        <time>2012-07-28T08:04:20Z</time>
      </trkpt>
      <trkpt lat="46.5501260" lon="6.8830810">
        <ele>854.0730000</ele>
        <time>2012-07-28T08:04:26Z</time>
      </trkpt>
      <trkpt lat="46.5502640" lon="6.8832620">
        <ele>853.3360000</ele>
        <time>2012-07-28T08:04:28Z</time>
      </trkpt>
      <trkpt lat="46.5505040" lon="6.8835590">
        <ele>853.1290000</ele>
        <time>2012-07-28T08:04:32Z</time>
      </trkpt>
      <trkpt lat="46.5507150" lon="6.8838390">
        <ele>853.0760000</ele>
        <time>2012-07-28T08:04:36Z</time>
      </trkpt>
      <trkpt lat="46.5509640" lon="6.8840160">
        <ele>852.5300000</ele>
        <time>2012-07-28T08:04:40Z</time>
      </trkpt>
      <trkpt lat="46.5510980" lon="6.8839700">
        <ele>850.5020000</ele>
        <time>2012-07-28T08:04:45Z</time>
      </trkpt>
      <trkpt lat="46.5510890" lon="6.8839130">
        <ele>849.8930000</ele>
        <time>2012-07-28T08:04:46Z</time>
      </trkpt>
      <trkpt lat="46.5510370" lon="6.8836090">
        <ele>848.3220000</ele>
        <time>2012-07-28T08:04:50Z</time>
      </trkpt>
      <trkpt lat="46.5510610" lon="6.8831910">
        <ele>847.4100000</ele>
        <time>2012-07-28T08:04:55Z</time>
      </trkpt>
      <trkpt lat="46.5511060" lon="6.8826780">
        <ele>845.7620000</ele>
        <time>2012-07-28T08:04:59Z</time>
      </trkpt>
      <trkpt lat="46.5511400" lon="6.8821890">
        <ele>841.6730000</ele>
        <time>2012-07-28T08:05:03Z</time>
      </trkpt>
      <trkpt lat="46.5510260" lon="6.8816840">
        <ele>837.4510000</ele>
        <time>2012-07-28T08:05:07Z</time>
      </trkpt>
      <trkpt lat="46.5509880" lon="6.8816040">
        <ele>836.5170000</ele>
        <time>2012-07-28T08:05:08Z</time>
      </trkpt>
      <trkpt lat="46.5506710" lon="6.8813210">
        <ele>835.2590000</ele>
        <time>2012-07-28T08:05:14Z</time>
      </trkpt>
      <trkpt lat="46.5504160" lon="6.8809410">
        <ele>835.8580000</ele>
        <time>2012-07-28T08:05:20Z</time>
      </trkpt>
      <trkpt lat="46.5502050" lon="6.8807170">
        <ele>836.1950000</ele>
        <time>2012-07-28T08:05:26Z</time>
      </trkpt>
      <trkpt lat="46.5500170" lon="6.8805450">
        <ele>836.4950000</ele>
        <time>2012-07-28T08:05:30Z</time>
      </trkpt>
      <trkpt lat="46.5498320" lon="6.8803120">
        <ele>836.5020000</ele>
        <time>2012-07-28T08:05:35Z</time>
      </trkpt>
      <trkpt lat="46.5496210" lon="6.8800590">
        <ele>836.7920000</ele>
        <time>2012-07-28T08:05:41Z</time>
      </trkpt>
      <trkpt lat="46.5495500" lon="6.8799560">
        <ele>837.0400000</ele>
        <time>2012-07-28T08:05:43Z</time>
      </trkpt>
      <trkpt lat="46.5493430" lon="6.8796020">
        <ele>837.0390000</ele>
        <time>2012-07-28T08:05:49Z</time>
      </trkpt>
      <trkpt lat="46.5492050" lon="6.8794370">
        <ele>836.8510000</ele>
        <time>2012-07-28T08:05:54Z</time>
      </trkpt>
      <trkpt lat="46.5491060" lon="6.8793020">
        <ele>836.6970000</ele>
        <time>2012-07-28T08:05:59Z</time>
      </trkpt>
      <trkpt lat="46.5489990" lon="6.8792730">
        <ele>835.6630000</ele>
        <time>2012-07-28T08:06:05Z</time>
      </trkpt>
      <trkpt lat="46.5488960" lon="6.8792340">
        <ele>833.0960000</ele>
        <time>2012-07-28T08:06:10Z</time>
      </trkpt>
      <trkpt lat="46.5488140" lon="6.8791700">
        <ele>829.7310000</ele>
        <time>2012-07-28T08:06:14Z</time>
      </trkpt>
      <trkpt lat="46.5487470" lon="6.8791180">
        <ele>825.9490000</ele>
        <time>2012-07-28T08:06:19Z</time>
      </trkpt>
      <trkpt lat="46.5486750" lon="6.8790560">
        <ele>822.9480000</ele>
        <time>2012-07-28T08:06:24Z</time>
      </trkpt>
      <trkpt lat="46.5486510" lon="6.8789520">
        <ele>820.0810000</ele>
        <time>2012-07-28T08:06:30Z</time>
      </trkpt>
      <trkpt lat="46.5486760" lon="6.8789380">
        <ele>818.3390000</ele>
        <time>2012-07-28T08:06:37Z</time>
      </trkpt>
      <trkpt lat="46.5486240" lon="6.8789010">
        <ele>817.6550000</ele>
        <time>2012-07-28T08:06:42Z</time>
      </trkpt>
      <trkpt lat="46.5486140" lon="6.8788550">
        <ele>816.6270000</ele>
        <time>2012-07-28T08:06:47Z</time>
      </trkpt>
      <trkpt lat="46.5486100" lon="6.8787860">
        <ele>814.6200000</ele>
        <time>2012-07-28T08:06:54Z</time>
      </trkpt>
      <trkpt lat="46.5485840" lon="6.8787220">
        <ele>813.5130000</ele>
        <time>2012-07-28T08:07:00Z</time>
      </trkpt>
      <trkpt lat="46.5485500" lon="6.8786280">
        <ele>811.6630000</ele>
        <time>2012-07-28T08:07:07Z</time>
      </trkpt>
      <trkpt lat="46.5485330" lon="6.8785790">
        <ele>810.2270000</ele>
        <time>2012-07-28T08:07:13Z</time>
      </trkpt>
      <trkpt lat="46.5484940" lon="6.8785230">
        <ele>809.3280000</ele>
        <time>2012-07-28T08:07:19Z</time>
      </trkpt>
      <trkpt lat="46.5484320" lon="6.8783680">
        <ele>808.6800000</ele>
        <time>2012-07-28T08:07:23Z</time>
      </trkpt>
      <trkpt lat="46.5483630" lon="6.8782650">
        <ele>807.2750000</ele>
        <time>2012-07-28T08:07:28Z</time>
      </trkpt>
      <trkpt lat="46.5482950" lon="6.8781530">
        <ele>804.5570000</ele>
        <time>2012-07-28T08:07:34Z</time>
      </trkpt>
      <trkpt lat="46.5482310" lon="6.8780220">
        <ele>803.0780000</ele>
        <time>2012-07-28T08:07:38Z</time>
      </trkpt>
      <trkpt lat="46.5481660" lon="6.8778600">
        <ele>801.8300000</ele>
        <time>2012-07-28T08:07:43Z</time>
      </trkpt>
      <trkpt lat="46.5481450" lon="6.8778370">
        <ele>800.9510000</ele>
        <time>2012-07-28T08:07:48Z</time>
      </trkpt>
      <trkpt lat="46.5481030" lon="6.8777210">
        <ele>800.6690000</ele>
        <time>2012-07-28T08:07:56Z</time>
      </trkpt>
      <trkpt lat="46.5480870" lon="6.8776710">
        <ele>800.1110000</ele>
        <time>2012-07-28T08:07:59Z</time>
      </trkpt>
      <trkpt lat="46.5480560" lon="6.8775860">
        <ele>799.0310000</ele>
        <time>2012-07-28T08:08:05Z</time>
      </trkpt>
      <trkpt lat="46.5480300" lon="6.8775170">
        <ele>798.5080000</ele>
        <time>2012-07-28T08:08:12Z</time>
      </trkpt>
      <trkpt lat="46.5480040" lon="6.8773900">
        <ele>797.8130000</ele>
        <time>2012-07-28T08:08:19Z</time>
      </trkpt>
      <trkpt lat="46.5479880" lon="6.8772710">
        <ele>797.4450000</ele>
        <time>2012-07-28T08:08:21Z</time>
      </trkpt>
      <trkpt lat="46.5480120" lon="6.8770030">
        <ele>795.8280000</ele>
        <time>2012-07-28T08:08:26Z</time>
      </trkpt>
      <trkpt lat="46.5480010" lon="6.8768660">
        <ele>795.0300000</ele>
        <time>2012-07-28T08:08:29Z</time>
      </trkpt>
      <trkpt lat="46.5479400" lon="6.8765720">
        <ele>794.2150000</ele>
        <time>2012-07-28T08:08:35Z</time>
      </trkpt>
      <trkpt lat="46.5479400" lon="6.8764410">
        <ele>793.6270000</ele>
        <time>2012-07-28T08:08:39Z</time>
      </trkpt>
      <trkpt lat="46.5478830" lon="6.8763010">
        <ele>793.2670000</ele>
        <time>2012-07-28T08:08:44Z</time>
      </trkpt>
      <trkpt lat="46.5479320" lon="6.8762780">
        <ele>792.8800000</ele>
        <time>2012-07-28T08:09:02Z</time>
      </trkpt>
      <trkpt lat="46.5479350" lon="6.8762690">
        <ele>793.1000000</ele>
        <time>2012-07-28T08:09:35Z</time>
      </trkpt>
      <trkpt lat="46.5479740" lon="6.8762310">
        <ele>793.2420000</ele>
        <time>2012-07-28T08:09:43Z</time>
      </trkpt>
      <trkpt lat="46.5479320" lon="6.8761570">
        <ele>793.3890000</ele>
        <time>2012-07-28T08:09:47Z</time>
      </trkpt>
      <trkpt lat="46.5477760" lon="6.8759730">
        <ele>793.4280000</ele>
        <time>2012-07-28T08:09:53Z</time>
      </trkpt>
      <trkpt lat="46.5477130" lon="6.8759150">
        <ele>793.5880000</ele>
        <time>2012-07-28T08:09:55Z</time>
      </trkpt>
      <trkpt lat="46.5475960" lon="6.8759080">
        <ele>794.0250000</ele>
        <time>2012-07-28T08:09:59Z</time>
      </trkpt>
      <trkpt lat="46.5473820" lon="6.8759170">
        <ele>793.9500000</ele>
        <time>2012-07-28T08:10:05Z</time>
      </trkpt>
      <trkpt lat="46.5471990" lon="6.8759360">
        <ele>794.0210000</ele>
        <time>2012-07-28T08:10:10Z</time>
      </trkpt>
      <trkpt lat="46.5470710" lon="6.8759970">
        <ele>793.9660000</ele>
        <time>2012-07-28T08:10:14Z</time>
      </trkpt>
      <trkpt lat="46.5468760" lon="6.8759410">
        <ele>793.9100000</ele>
        <time>2012-07-28T08:10:19Z</time>
      </trkpt>
      <trkpt lat="46.5467580" lon="6.8757700">
        <ele>793.9960000</ele>
        <time>2012-07-28T08:10:23Z</time>
      </trkpt>
      <trkpt lat="46.5466680" lon="6.8756000">
        <ele>794.3950000</ele>
        <time>2012-07-28T08:10:28Z</time>
      </trkpt>
      <trkpt lat="46.5465310" lon="6.8754050">
        <ele>794.4860000</ele>
        <time>2012-07-28T08:10:33Z</time>
      </trkpt>
      <trkpt lat="46.5464310" lon="6.8752590">
        <ele>794.2490000</ele>
        <time>2012-07-28T08:10:37Z</time>
      </trkpt>
      <trkpt lat="46.5462530" lon="6.8749840">
        <ele>794.1440000</ele>
        <time>2012-07-28T08:10:42Z</time>
      </trkpt>
      <trkpt lat="46.5462000" lon="6.8748760">
        <ele>794.0890000</ele>
        <time>2012-07-28T08:10:44Z</time>
      </trkpt>
      <trkpt lat="46.5461040" lon="6.8747340">
        <ele>794.1240000</ele>
        <time>2012-07-28T08:10:47Z</time>
      </trkpt>
      <trkpt lat="46.5459980" lon="6.8746330">
        <ele>794.1360000</ele>
        <time>2012-07-28T08:10:49Z</time>
      </trkpt>
      <trkpt lat="46.5457170" lon="6.8744960">
        <ele>793.2370000</ele>
        <time>2012-07-28T08:10:54Z</time>
      </trkpt>
      <trkpt lat="46.5454890" lon="6.8742670">
        <ele>791.3660000</ele>
        <time>2012-07-28T08:10:58Z</time>
      </trkpt>
      <trkpt lat="46.5454310" lon="6.8739730">
        <ele>789.9260000</ele>
        <time>2012-07-28T08:11:01Z</time>
      </trkpt>
      <trkpt lat="46.5454170" lon="6.8737630">
        <ele>789.0290000</ele>
        <time>2012-07-28T08:11:03Z</time>
      </trkpt>
      <trkpt lat="46.5455110" lon="6.8733910">
        <ele>788.0100000</ele>
        <time>2012-07-28T08:11:07Z</time>
      </trkpt>
      <trkpt lat="46.5455740" lon="6.8732200">
        <ele>787.5060000</ele>
        <time>2012-07-28T08:11:09Z</time>
      </trkpt>
      <trkpt lat="46.5455810" lon="6.8729940">
        <ele>786.5120000</ele>
        <time>2012-07-28T08:11:13Z</time>
      </trkpt>
      <trkpt lat="46.5455460" lon="6.8729690">
        <ele>785.9030000</ele>
        <time>2012-07-28T08:11:14Z</time>
      </trkpt>
      <trkpt lat="46.5454300" lon="6.8729050">
        <ele>784.7720000</ele>
        <time>2012-07-28T08:11:16Z</time>
      </trkpt>
      <trkpt lat="46.5452210" lon="6.8726490">
        <ele>782.1730000</ele>
        <time>2012-07-28T08:11:20Z</time>
      </trkpt>
      <trkpt lat="46.5451000" lon="6.8723650">
        <ele>780.7770000</ele>
        <time>2012-07-28T08:11:23Z</time>
      </trkpt>
      <trkpt lat="46.5448800" lon="6.8719180">
        <ele>779.5860000</ele>
        <time>2012-07-28T08:11:28Z</time>
      </trkpt>
      <trkpt lat="46.5447600" lon="6.8715480">
        <ele>779.9270000</ele>
        <time>2012-07-28T08:11:32Z</time>
      </trkpt>
      <trkpt lat="46.5447280" lon="6.8712050">
        <ele>781.0340000</ele>
        <time>2012-07-28T08:11:37Z</time>
      </trkpt>
      <trkpt lat="46.5447280" lon="6.8711470">
        <ele>781.2720000</ele>
        <time>2012-07-28T08:11:38Z</time>
      </trkpt>
      <trkpt lat="46.5448080" lon="6.8709270">
        <ele>783.0530000</ele>
        <time>2012-07-28T08:11:43Z</time>
      </trkpt>
      <trkpt lat="46.5448770" lon="6.8707030">
        <ele>784.7420000</ele>
        <time>2012-07-28T08:11:48Z</time>
      </trkpt>
      <trkpt lat="46.5449240" lon="6.8704640">
        <ele>785.9850000</ele>
        <time>2012-07-28T08:11:53Z</time>
      </trkpt>
      <trkpt lat="46.5449310" lon="6.8704230">
        <ele>786.2100000</ele>
        <time>2012-07-28T08:11:54Z</time>
      </trkpt>
      <trkpt lat="46.5449410" lon="6.8701850">
        <ele>787.0680000</ele>
        <time>2012-07-28T08:12:00Z</time>
      </trkpt>
      <trkpt lat="46.5449680" lon="6.8699930">
        <ele>788.0800000</ele>
        <time>2012-07-28T08:12:06Z</time>
      </trkpt>
      <trkpt lat="46.5449750" lon="6.8698090">
        <ele>789.2110000</ele>
        <time>2012-07-28T08:12:12Z</time>
      </trkpt>
      <trkpt lat="46.5449370" lon="6.8696040">
        <ele>790.3650000</ele>
        <time>2012-07-28T08:12:18Z</time>
      </trkpt>
      <trkpt lat="46.5448050" lon="6.8693910">
        <ele>791.7310000</ele>
        <time>2012-07-28T08:12:25Z</time>
      </trkpt>
      <trkpt lat="46.5445630" lon="6.8692310">
        <ele>792.0970000</ele>
        <time>2012-07-28T08:12:30Z</time>
      </trkpt>
      <trkpt lat="46.5443540" lon="6.8690960">
        <ele>792.8260000</ele>
        <time>2012-07-28T08:12:35Z</time>
      </trkpt>
      <trkpt lat="46.5441430" lon="6.8689590">
        <ele>793.6320000</ele>
        <time>2012-07-28T08:12:41Z</time>
      </trkpt>
      <trkpt lat="46.5440170" lon="6.8688420">
        <ele>794.5230000</ele>
        <time>2012-07-28T08:12:46Z</time>
      </trkpt>
      <trkpt lat="46.5439190" lon="6.8687040">
        <ele>795.9330000</ele>
        <time>2012-07-28T08:12:51Z</time>
      </trkpt>
      <trkpt lat="46.5437930" lon="6.8684590">
        <ele>797.5560000</ele>
        <time>2012-07-28T08:12:57Z</time>
      </trkpt>
      <trkpt lat="46.5438190" lon="6.8682540">
        <ele>798.4090000</ele>
        <time>2012-07-28T08:13:01Z</time>
      </trkpt>
      <trkpt lat="46.5439800" lon="6.8679770">
        <ele>798.0740000</ele>
        <time>2012-07-28T08:13:06Z</time>
      </trkpt>
      <trkpt lat="46.5440870" lon="6.8678920">
        <ele>797.6120000</ele>
        <time>2012-07-28T08:13:08Z</time>
      </trkpt>
      <trkpt lat="46.5444190" lon="6.8676900">
        <ele>796.8450000</ele>
        <time>2012-07-28T08:13:15Z</time>
      </trkpt>
      <trkpt lat="46.5447960" lon="6.8674690">
        <ele>797.0040000</ele>
        <time>2012-07-28T08:13:23Z</time>
      </trkpt>
      <trkpt lat="46.5448880" lon="6.8674250">
        <ele>797.1340000</ele>
        <time>2012-07-28T08:13:25Z</time>
      </trkpt>
      <trkpt lat="46.5452430" lon="6.8671710">
        <ele>798.6120000</ele>
        <time>2012-07-28T08:13:34Z</time>
      </trkpt>
      <trkpt lat="46.5453640" lon="6.8670800">
        <ele>799.1080000</ele>
        <time>2012-07-28T08:13:37Z</time>
      </trkpt>
      <trkpt lat="46.5456360" lon="6.8670300">
        <ele>800.2660000</ele>
        <time>2012-07-28T08:13:44Z</time>
      </trkpt>
      <trkpt lat="46.5458850" lon="6.8670660">
        <ele>803.2110000</ele>
        <time>2012-07-28T08:13:52Z</time>
      </trkpt>
      <trkpt lat="46.5460880" lon="6.8670490">
        <ele>805.3390000</ele>
        <time>2012-07-28T08:13:59Z</time>
      </trkpt>
      <trkpt lat="46.5462030" lon="6.8668710">
        <ele>806.0740000</ele>
        <time>2012-07-28T08:14:04Z</time>
      </trkpt>
      <trkpt lat="46.5463060" lon="6.8666040">
        <ele>806.3740000</ele>
        <time>2012-07-28T08:14:10Z</time>
      </trkpt>
      <trkpt lat="46.5463500" lon="6.8663580">
        <ele>806.1970000</ele>
        <time>2012-07-28T08:14:15Z</time>
      </trkpt>
      <trkpt lat="46.5463410" lon="6.8662280">
        <ele>805.8510000</ele>
        <time>2012-07-28T08:14:18Z</time>
      </trkpt>
      <trkpt lat="46.5462150" lon="6.8658360">
        <ele>804.4300000</ele>
        <time>2012-07-28T08:14:24Z</time>
      </trkpt>
      <trkpt lat="46.5461040" lon="6.8652820">
        <ele>801.9460000</ele>
        <time>2012-07-28T08:14:30Z</time>
      </trkpt>
      <trkpt lat="46.5460470" lon="6.8648530">
        <ele>800.4210000</ele>
        <time>2012-07-28T08:14:35Z</time>
      </trkpt>
      <trkpt lat="46.5460720" lon="6.8647580">
        <ele>799.5440000</ele>
        <time>2012-07-28T08:14:38Z</time>
      </trkpt>
      <trkpt lat="46.5460690" lon="6.8647510">
        <ele>798.7290000</ele>
        <time>2012-07-28T08:14:43Z</time>
      </trkpt>
      <trkpt lat="46.5460730" lon="6.8647510">
        <ele>798.6700000</ele>
        <time>2012-07-28T08:15:00Z</time>
      </trkpt>
      <trkpt lat="46.5460610" lon="6.8647340">
        <ele>798.6360000</ele>
        <time>2012-07-28T08:15:06Z</time>
      </trkpt>
      <trkpt lat="46.5460580" lon="6.8647370">
        <ele>798.5970000</ele>
        <time>2012-07-28T08:15:10Z</time>
      </trkpt>
      <trkpt lat="46.5460370" lon="6.8647650">
        <ele>798.7090000</ele>
        <time>2012-07-28T08:15:34Z</time>
      </trkpt>
      <trkpt lat="46.5459890" lon="6.8647680">
        <ele>798.4130000</ele>
        <time>2012-07-28T08:15:39Z</time>
      </trkpt>
      <trkpt lat="46.5459550" lon="6.8645660">
        <ele>798.2950000</ele>
        <time>2012-07-28T08:15:43Z</time>
      </trkpt>
      <trkpt lat="46.5459120" lon="6.8640440">
        <ele>797.7970000</ele>
        <time>2012-07-28T08:15:50Z</time>
      </trkpt>
      <trkpt lat="46.5458660" lon="6.8634590">
        <ele>796.4880000</ele>
        <time>2012-07-28T08:15:57Z</time>
      </trkpt>
      <trkpt lat="46.5458070" lon="6.8628760">
        <ele>794.6110000</ele>
        <time>2012-07-28T08:16:03Z</time>
      </trkpt>
      <trkpt lat="46.5459540" lon="6.8626160">
        <ele>793.1130000</ele>
        <time>2012-07-28T08:16:07Z</time>
      </trkpt>
      <trkpt lat="46.5465100" lon="6.8625170">
        <ele>791.6610000</ele>
        <time>2012-07-28T08:16:14Z</time>
      </trkpt>
      <trkpt lat="46.5468130" lon="6.8624530">
        <ele>791.4170000</ele>
        <time>2012-07-28T08:16:18Z</time>
      </trkpt>
      <trkpt lat="46.5473260" lon="6.8623910">
        <ele>791.4380000</ele>
        <time>2012-07-28T08:16:26Z</time>
      </trkpt>
      <trkpt lat="46.5476660" lon="6.8623830">
        <ele>792.3220000</ele>
        <time>2012-07-28T08:16:32Z</time>
      </trkpt>
      <trkpt lat="46.5479840" lon="6.8624240">
        <ele>792.8910000</ele>
        <time>2012-07-28T08:16:37Z</time>
      </trkpt>
      <trkpt lat="46.5484360" lon="6.8625960">
        <ele>792.2690000</ele>
        <time>2012-07-28T08:16:44Z</time>
      </trkpt>
      <trkpt lat="46.5489010" lon="6.8627340">
        <ele>792.5950000</ele>
        <time>2012-07-28T08:16:52Z</time>
      </trkpt>
      <trkpt lat="46.5491780" lon="6.8627480">
        <ele>793.4580000</ele>
        <time>2012-07-28T08:16:57Z</time>
      </trkpt>
      <trkpt lat="46.5496690" lon="6.8627450">
        <ele>793.7850000</ele>
        <time>2012-07-28T08:17:05Z</time>
      </trkpt>
      <trkpt lat="46.5500580" lon="6.8626490">
        <ele>794.9830000</ele>
        <time>2012-07-28T08:17:12Z</time>
      </trkpt>
      <trkpt lat="46.5503250" lon="6.8624450">
        <ele>796.3990000</ele>
        <time>2012-07-28T08:17:18Z</time>
      </trkpt>
      <trkpt lat="46.5506930" lon="6.8621710">
        <ele>797.9350000</ele>
        <time>2012-07-28T08:17:26Z</time>
      </trkpt>
      <trkpt lat="46.5511010" lon="6.8620050">
        <ele>798.7350000</ele>
        <time>2012-07-28T08:17:34Z</time>
      </trkpt>
      <trkpt lat="46.5514540" lon="6.8618670">
        <ele>800.6850000</ele>
        <time>2012-07-28T08:17:42Z</time>
      </trkpt>
      <trkpt lat="46.5518930" lon="6.8617000">
        <ele>801.9910000</ele>
        <time>2012-07-28T08:17:51Z</time>
      </trkpt>
      <trkpt lat="46.5522710" lon="6.8616560">
        <ele>801.3400000</ele>
        <time>2012-07-28T08:17:57Z</time>
      </trkpt>
      <trkpt lat="46.5528670" lon="6.8616170">
        <ele>799.2110000</ele>
        <time>2012-07-28T08:18:05Z</time>
      </trkpt>
      <trkpt lat="46.5534530" lon="6.8616570">
        <ele>797.0990000</ele>
        <time>2012-07-28T08:18:12Z</time>
      </trkpt>
      <trkpt lat="46.5539610" lon="6.8617370">
        <ele>795.1940000</ele>
        <time>2012-07-28T08:18:18Z</time>
      </trkpt>
      <trkpt lat="46.5543020" lon="6.8615570">
        <ele>794.4530000</ele>
        <time>2012-07-28T08:18:22Z</time>
      </trkpt>
      <trkpt lat="46.5543840" lon="6.8614740">
        <ele>794.1350000</ele>
        <time>2012-07-28T08:18:23Z</time>
      </trkpt>
      <trkpt lat="46.5548320" lon="6.8608430">
        <ele>791.2270000</ele>
        <time>2012-07-28T08:18:29Z</time>
      </trkpt>
      <trkpt lat="46.5549020" lon="6.8607320">
        <ele>790.7200000</ele>
        <time>2012-07-28T08:18:30Z</time>
      </trkpt>
      <trkpt lat="46.5553280" lon="6.8603210">
        <ele>788.9370000</ele>
        <time>2012-07-28T08:18:35Z</time>
      </trkpt>
      <trkpt lat="46.5554190" lon="6.8602560">
        <ele>788.7080000</ele>
        <time>2012-07-28T08:18:36Z</time>
      </trkpt>
      <trkpt lat="46.5558940" lon="6.8600880">
        <ele>787.6050000</ele>
        <time>2012-07-28T08:18:41Z</time>
      </trkpt>
      <trkpt lat="46.5559840" lon="6.8600550">
        <ele>787.4290000</ele>
        <time>2012-07-28T08:18:42Z</time>
      </trkpt>
      <trkpt lat="46.5562470" lon="6.8597820">
        <ele>787.2910000</ele>
        <time>2012-07-28T08:18:46Z</time>
      </trkpt>
      <trkpt lat="46.5563380" lon="6.8596070">
        <ele>787.4130000</ele>
        <time>2012-07-28T08:18:48Z</time>
      </trkpt>
      <trkpt lat="46.5565800" lon="6.8592900">
        <ele>787.2070000</ele>
        <time>2012-07-28T08:18:52Z</time>
      </trkpt>
      <trkpt lat="46.5569150" lon="6.8591740">
        <ele>786.2800000</ele>
        <time>2012-07-28T08:18:56Z</time>
      </trkpt>
      <trkpt lat="46.5574060" lon="6.8591740">
        <ele>785.2440000</ele>
        <time>2012-07-28T08:19:02Z</time>
      </trkpt>
      <trkpt lat="46.5577210" lon="6.8589770">
        <ele>784.4100000</ele>
        <time>2012-07-28T08:19:06Z</time>
      </trkpt>
      <trkpt lat="46.5578190" lon="6.8587370">
        <ele>783.5440000</ele>
        <time>2012-07-28T08:19:08Z</time>
      </trkpt>
      <trkpt lat="46.5578840" lon="6.8584690">
        <ele>782.4970000</ele>
        <time>2012-07-28T08:19:10Z</time>
      </trkpt>
      <trkpt lat="46.5578940" lon="6.8579180">
        <ele>780.7740000</ele>
        <time>2012-07-28T08:19:14Z</time>
      </trkpt>
      <trkpt lat="46.5578060" lon="6.8570800">
        <ele>776.9630000</ele>
        <time>2012-07-28T08:19:20Z</time>
      </trkpt>
      <trkpt lat="46.5578320" lon="6.8565760">
        <ele>773.6680000</ele>
        <time>2012-07-28T08:19:24Z</time>
      </trkpt>
      <trkpt lat="46.5579550" lon="6.8564850">
        <ele>771.9360000</ele>
        <time>2012-07-28T08:19:26Z</time>
      </trkpt>
      <trkpt lat="46.5580870" lon="6.8565840">
        <ele>770.6910000</ele>
        <time>2012-07-28T08:19:28Z</time>
      </trkpt>
      <trkpt lat="46.5581430" lon="6.8566510">
        <ele>770.1900000</ele>
        <time>2012-07-28T08:19:29Z</time>
      </trkpt>
      <trkpt lat="46.5584420" lon="6.8569690">
        <ele>769.7600000</ele>
        <time>2012-07-28T08:19:34Z</time>
      </trkpt>
      <trkpt lat="46.5589630" lon="6.8574370">
        <ele>770.8500000</ele>
        <time>2012-07-28T08:19:43Z</time>
      </trkpt>
      <trkpt lat="46.5593570" lon="6.8577330">
        <ele>771.4640000</ele>
        <time>2012-07-28T08:19:50Z</time>
      </trkpt>
      <trkpt lat="46.5596790" lon="6.8577870">
        <ele>771.4330000</ele>
        <time>2012-07-28T08:19:55Z</time>
      </trkpt>
      <trkpt lat="46.5598340" lon="6.8576650">
        <ele>771.2240000</ele>
        <time>2012-07-28T08:19:58Z</time>
      </trkpt>
      <trkpt lat="46.5598770" lon="6.8575750">
        <ele>771.0340000</ele>
        <time>2012-07-28T08:19:59Z</time>
      </trkpt>
      <trkpt lat="46.5601380" lon="6.8570130">
        <ele>769.9220000</ele>
        <time>2012-07-28T08:20:05Z</time>
      </trkpt>
      <trkpt lat="46.5602200" lon="6.8566050">
        <ele>769.1720000</ele>
        <time>2012-07-28T08:20:09Z</time>
      </trkpt>
      <trkpt lat="46.5602130" lon="6.8557810">
        <ele>767.7190000</ele>
        <time>2012-07-28T08:20:16Z</time>
      </trkpt>
      <trkpt lat="46.5602450" lon="6.8552600">
        <ele>765.5090000</ele>
        <time>2012-07-28T08:20:20Z</time>
      </trkpt>
      <trkpt lat="46.5602870" lon="6.8544140">
        <ele>761.4510000</ele>
        <time>2012-07-28T08:20:26Z</time>
      </trkpt>
      <trkpt lat="46.5603060" lon="6.8542760">
        <ele>760.8420000</ele>
        <time>2012-07-28T08:20:27Z</time>
      </trkpt>
      <trkpt lat="46.5604430" lon="6.8539950">
        <ele>759.3940000</ele>
        <time>2012-07-28T08:20:30Z</time>
      </trkpt>
      <trkpt lat="46.5605720" lon="6.8539550">
        <ele>759.0520000</ele>
        <time>2012-07-28T08:20:32Z</time>
      </trkpt>
      <trkpt lat="46.5609730" lon="6.8539260">
        <ele>760.5440000</ele>
        <time>2012-07-28T08:20:38Z</time>
      </trkpt>
      <trkpt lat="46.5613330" lon="6.8540730">
        <ele>760.6530000</ele>
        <time>2012-07-28T08:20:43Z</time>
      </trkpt>
      <trkpt lat="46.5616360" lon="6.8542310">
        <ele>759.6600000</ele>
        <time>2012-07-28T08:20:47Z</time>
      </trkpt>
      <trkpt lat="46.5618930" lon="6.8541630">
        <ele>758.3550000</ele>
        <time>2012-07-28T08:20:51Z</time>
      </trkpt>
      <trkpt lat="46.5619760" lon="6.8539850">
        <ele>757.4940000</ele>
        <time>2012-07-28T08:20:53Z</time>
      </trkpt>
      <trkpt lat="46.5620620" lon="6.8537800">
        <ele>756.4950000</ele>
        <time>2012-07-28T08:20:55Z</time>
      </trkpt>
      <trkpt lat="46.5623820" lon="6.8531730">
        <ele>753.4790000</ele>
        <time>2012-07-28T08:21:01Z</time>
      </trkpt>
      <trkpt lat="46.5624470" lon="6.8530750">
        <ele>753.0180000</ele>
        <time>2012-07-28T08:21:02Z</time>
      </trkpt>
      <trkpt lat="46.5624790" lon="6.8527760">
        <ele>752.1410000</ele>
        <time>2012-07-28T08:21:04Z</time>
      </trkpt>
      <trkpt lat="46.5623800" lon="6.8521820">
        <ele>750.8720000</ele>
        <time>2012-07-28T08:21:08Z</time>
      </trkpt>
      <trkpt lat="46.5622740" lon="6.8517090">
        <ele>749.3640000</ele>
        <time>2012-07-28T08:21:12Z</time>
      </trkpt>
      <trkpt lat="46.5621630" lon="6.8510830">
        <ele>747.5020000</ele>
        <time>2012-07-28T08:21:17Z</time>
      </trkpt>
      <trkpt lat="46.5619340" lon="6.8507010">
        <ele>745.8460000</ele>
        <time>2012-07-28T08:21:21Z</time>
      </trkpt>
      <trkpt lat="46.5618650" lon="6.8506180">
        <ele>745.5390000</ele>
        <time>2012-07-28T08:21:22Z</time>
      </trkpt>
      <trkpt lat="46.5617530" lon="6.8504420">
        <ele>745.1180000</ele>
        <time>2012-07-28T08:21:24Z</time>
      </trkpt>
      <trkpt lat="46.5615470" lon="6.8498940">
        <ele>744.9080000</ele>
        <time>2012-07-28T08:21:30Z</time>
      </trkpt>
      <trkpt lat="46.5613390" lon="6.8494630">
        <ele>744.7190000</ele>
        <time>2012-07-28T08:21:35Z</time>
      </trkpt>
      <trkpt lat="46.5611440" lon="6.8491380">
        <ele>743.9900000</ele>
        <time>2012-07-28T08:21:39Z</time>
      </trkpt>
      <trkpt lat="46.5608640" lon="6.8487420">
        <ele>741.8850000</ele>
        <time>2012-07-28T08:21:43Z</time>
      </trkpt>
      <trkpt lat="46.5606390" lon="6.8481870">
        <ele>738.4810000</ele>
        <time>2012-07-28T08:21:47Z</time>
      </trkpt>
      <trkpt lat="46.5604520" lon="6.8472960">
        <ele>732.4270000</ele>
        <time>2012-07-28T08:21:53Z</time>
      </trkpt>
      <trkpt lat="46.5603390" lon="6.8470610">
        <ele>731.3810000</ele>
        <time>2012-07-28T08:21:55Z</time>
      </trkpt>
      <trkpt lat="46.5601450" lon="6.8467220">
        <ele>727.8610000</ele>
        <time>2012-07-28T08:21:59Z</time>
      </trkpt>
      <trkpt lat="46.5600700" lon="6.8465850">
        <ele>725.3230000</ele>
        <time>2012-07-28T08:22:02Z</time>
      </trkpt>
      <trkpt lat="46.5600580" lon="6.8465560">
        <ele>724.6430000</ele>
        <time>2012-07-28T08:22:03Z</time>
      </trkpt>
      <trkpt lat="46.5601340" lon="6.8464960">
        <ele>722.2860000</ele>
        <time>2012-07-28T08:22:08Z</time>
      </trkpt>
      <trkpt lat="46.5601680" lon="6.8465000">
        <ele>721.8740000</ele>
        <time>2012-07-28T08:22:10Z</time>
      </trkpt>
      <trkpt lat="46.5602200" lon="6.8465930">
        <ele>721.7440000</ele>
        <time>2012-07-28T08:22:16Z</time>
      </trkpt>
      <trkpt lat="46.5602970" lon="6.8467090">
        <ele>722.4610000</ele>
        <time>2012-07-28T08:22:22Z</time>
      </trkpt>
      <trkpt lat="46.5603840" lon="6.8467890">
        <ele>722.9760000</ele>
        <time>2012-07-28T08:22:28Z</time>
      </trkpt>
      <trkpt lat="46.5604120" lon="6.8467970">
        <ele>722.8600000</ele>
        <time>2012-07-28T08:22:30Z</time>
      </trkpt>
      <trkpt lat="46.5605500" lon="6.8469310">
        <ele>720.5630000</ele>
        <time>2012-07-28T08:22:37Z</time>
      </trkpt>
      <trkpt lat="46.5605890" lon="6.8469830">
        <ele>719.4230000</ele>
        <time>2012-07-28T08:22:39Z</time>
      </trkpt>
      <trkpt lat="46.5606320" lon="6.8471320">
        <ele>716.9980000</ele>
        <time>2012-07-28T08:22:43Z</time>
      </trkpt>
      <trkpt lat="46.5606610" lon="6.8472140">
        <ele>714.8210000</ele>
        <time>2012-07-28T08:22:49Z</time>
      </trkpt>
      <trkpt lat="46.5606640" lon="6.8472180">
        <ele>714.6140000</ele>
        <time>2012-07-28T08:22:50Z</time>
      </trkpt>
      <trkpt lat="46.5607160" lon="6.8472680">
        <ele>713.8970000</ele>
        <time>2012-07-28T08:22:54Z</time>
      </trkpt>
      <trkpt lat="46.5609000" lon="6.8474380">
        <ele>712.1120000</ele>
        <time>2012-07-28T08:23:01Z</time>
      </trkpt>
      <trkpt lat="46.5610230" lon="6.8475400">
        <ele>710.2520000</ele>
        <time>2012-07-28T08:23:06Z</time>
      </trkpt>
      <trkpt lat="46.5610490" lon="6.8475620">
        <ele>709.5340000</ele>
        <time>2012-07-28T08:23:08Z</time>
      </trkpt>
      <trkpt lat="46.5611260" lon="6.8475880">
        <ele>707.9550000</ele>
        <time>2012-07-28T08:23:14Z</time>
      </trkpt>
      <trkpt lat="46.5611340" lon="6.8474580">
        <ele>705.9180000</ele>
        <time>2012-07-28T08:23:20Z</time>
      </trkpt>
      <trkpt lat="46.5611090" lon="6.8473820">
        <ele>704.7180000</ele>
        <time>2012-07-28T08:23:23Z</time>
      </trkpt>
      <trkpt lat="46.5610640" lon="6.8472350">
        <ele>703.1700000</ele>
        <time>2012-07-28T08:23:29Z</time>
      </trkpt>
      <trkpt lat="46.5610680" lon="6.8471040">
        <ele>702.3790000</ele>
        <time>2012-07-28T08:23:33Z</time>
      </trkpt>
      <trkpt lat="46.5610600" lon="6.8469880">
        <ele>700.7410000</ele>
        <time>2012-07-28T08:23:39Z</time>
      </trkpt>
      <trkpt lat="46.5610450" lon="6.8469640">
        <ele>699.8590000</ele>
        <time>2012-07-28T08:23:43Z</time>
      </trkpt>
      <trkpt lat="46.5610220" lon="6.8468760">
        <ele>698.4420000</ele>
        <time>2012-07-28T08:23:48Z</time>
      </trkpt>
      <trkpt lat="46.5610050" lon="6.8467630">
        <ele>696.1160000</ele>
        <time>2012-07-28T08:23:53Z</time>
      </trkpt>
      <trkpt lat="46.5609060" lon="6.8466350">
        <ele>694.5180000</ele>
        <time>2012-07-28T08:23:59Z</time>
      </trkpt>
      <trkpt lat="46.5608610" lon="6.8465710">
        <ele>694.3510000</ele>
        <time>2012-07-28T08:24:12Z</time>
      </trkpt>
      <trkpt lat="46.5608750" lon="6.8465370">
        <ele>694.4090000</ele>
        <time>2012-07-28T08:24:17Z</time>
      </trkpt>
      <trkpt lat="46.5608880" lon="6.8465280">
        <ele>694.7290000</ele>
        <time>2012-07-28T08:24:23Z</time>
      </trkpt>
      <trkpt lat="46.5609290" lon="6.8464320">
        <ele>694.7230000</ele>
        <time>2012-07-28T08:24:28Z</time>
      </trkpt>
      <trkpt lat="46.5608770" lon="6.8463420">
        <ele>694.5190000</ele>
        <time>2012-07-28T08:24:33Z</time>
      </trkpt>
      <trkpt lat="46.5608300" lon="6.8462440">
        <ele>694.1300000</ele>
        <time>2012-07-28T08:24:37Z</time>
      </trkpt>
      <trkpt lat="46.5607610" lon="6.8460170">
        <ele>693.7940000</ele>
        <time>2012-07-28T08:24:42Z</time>
      </trkpt>
      <trkpt lat="46.5606680" lon="6.8456750">
        <ele>693.1310000</ele>
        <time>2012-07-28T08:24:48Z</time>
      </trkpt>
      <trkpt lat="46.5606030" lon="6.8454510">
        <ele>692.8790000</ele>
        <time>2012-07-28T08:24:53Z</time>
      </trkpt>
      <trkpt lat="46.5605270" lon="6.8452510">
        <ele>692.3790000</ele>
        <time>2012-07-28T08:24:57Z</time>
      </trkpt>
      <trkpt lat="46.5603610" lon="6.8449370">
        <ele>691.6050000</ele>
        <time>2012-07-28T08:25:02Z</time>
      </trkpt>
      <trkpt lat="46.5601940" lon="6.8446380">
        <ele>691.0400000</ele>
        <time>2012-07-28T08:25:08Z</time>
      </trkpt>
      <trkpt lat="46.5601490" lon="6.8445490">
        <ele>690.9400000</ele>
        <time>2012-07-28T08:25:10Z</time>
      </trkpt>
      <trkpt lat="46.5599580" lon="6.8443140">
        <ele>690.6380000</ele>
        <time>2012-07-28T08:25:15Z</time>
      </trkpt>
      <trkpt lat="46.5599250" lon="6.8442740">
        <ele>690.6680000</ele>
        <time>2012-07-28T08:25:16Z</time>
      </trkpt>
      <trkpt lat="46.5598170" lon="6.8440500">
        <ele>690.7000000</ele>
        <time>2012-07-28T08:25:20Z</time>
      </trkpt>
      <trkpt lat="46.5597650" lon="6.8437810">
        <ele>690.8760000</ele>
        <time>2012-07-28T08:25:24Z</time>
      </trkpt>
      <trkpt lat="46.5597320" lon="6.8436510">
        <ele>691.0050000</ele>
        <time>2012-07-28T08:25:26Z</time>
      </trkpt>
      <trkpt lat="46.5596650" lon="6.8432970">
        <ele>691.7070000</ele>
        <time>2012-07-28T08:25:32Z</time>
      </trkpt>
      <trkpt lat="46.5595060" lon="6.8431660">
        <ele>691.6060000</ele>
        <time>2012-07-28T08:25:37Z</time>
      </trkpt>
      <trkpt lat="46.5593220" lon="6.8429490">
        <ele>690.2980000</ele>
        <time>2012-07-28T08:25:41Z</time>
      </trkpt>
      <trkpt lat="46.5592570" lon="6.8427840">
        <ele>689.7850000</ele>
        <time>2012-07-28T08:25:43Z</time>
      </trkpt>
      <trkpt lat="46.5591090" lon="6.8421970">
        <ele>685.7450000</ele>
        <time>2012-07-28T08:25:49Z</time>
      </trkpt>
      <trkpt lat="46.5589540" lon="6.8419380">
        <ele>682.9670000</ele>
        <time>2012-07-28T08:25:53Z</time>
      </trkpt>
      <trkpt lat="46.5589230" lon="6.8418600">
        <ele>682.4180000</ele>
        <time>2012-07-28T08:25:54Z</time>
      </trkpt>
      <trkpt lat="46.5587210" lon="6.8414150">
        <ele>679.7960000</ele>
        <time>2012-07-28T08:26:00Z</time>
      </trkpt>
      <trkpt lat="46.5586470" lon="6.8412200">
        <ele>678.9720000</ele>
        <time>2012-07-28T08:26:03Z</time>
      </trkpt>
      <trkpt lat="46.5585850" lon="6.8410260">
        <ele>678.8410000</ele>
        <time>2012-07-28T08:26:06Z</time>
      </trkpt>
      <trkpt lat="46.5584520" lon="6.8407450">
        <ele>678.1230000</ele>
        <time>2012-07-28T08:26:11Z</time>
      </trkpt>
      <trkpt lat="46.5582640" lon="6.8403260">
        <ele>676.3580000</ele>
        <time>2012-07-28T08:26:18Z</time>
      </trkpt>
      <trkpt lat="46.5582060" lon="6.8399850">
        <ele>675.2570000</ele>
        <time>2012-07-28T08:26:23Z</time>
      </trkpt>
      <trkpt lat="46.5582170" lon="6.8397730">
        <ele>673.9480000</ele>
        <time>2012-07-28T08:26:26Z</time>
      </trkpt>
      <trkpt lat="46.5583400" lon="6.8394670">
        <ele>671.6310000</ele>
        <time>2012-07-28T08:26:31Z</time>
      </trkpt>
      <trkpt lat="46.5583790" lon="6.8391830">
        <ele>670.6010000</ele>
        <time>2012-07-28T08:26:36Z</time>
      </trkpt>
      <trkpt lat="46.5583770" lon="6.8391330">
        <ele>670.2990000</ele>
        <time>2012-07-28T08:26:37Z</time>
      </trkpt>
      <trkpt lat="46.5583090" lon="6.8388440">
        <ele>669.1970000</ele>
        <time>2012-07-28T08:26:43Z</time>
      </trkpt>
      <trkpt lat="46.5582630" lon="6.8386330">
        <ele>668.7560000</ele>
        <time>2012-07-28T08:26:46Z</time>
      </trkpt>
      <trkpt lat="46.5582490" lon="6.8382400">
        <ele>667.7390000</ele>
        <time>2012-07-28T08:26:52Z</time>
      </trkpt>
      <trkpt lat="46.5583040" lon="6.8380220">
        <ele>667.0740000</ele>
        <time>2012-07-28T08:26:56Z</time>
      </trkpt>
      <trkpt lat="46.5584060" lon="6.8377830">
        <ele>666.3600000</ele>
        <time>2012-07-28T08:27:01Z</time>
      </trkpt>
      <trkpt lat="46.5585140" lon="6.8375350">
        <ele>666.0630000</ele>
        <time>2012-07-28T08:27:06Z</time>
      </trkpt>
      <trkpt lat="46.5585360" lon="6.8374980">
        <ele>665.9990000</ele>
        <time>2012-07-28T08:27:07Z</time>
      </trkpt>
      <trkpt lat="46.5585800" lon="6.8373970">
        <ele>665.2850000</ele>
        <time>2012-07-28T08:27:11Z</time>
      </trkpt>
      <trkpt lat="46.5585960" lon="6.8372710">
        <ele>664.7220000</ele>
        <time>2012-07-28T08:27:16Z</time>
      </trkpt>
      <trkpt lat="46.5586360" lon="6.8371930">
        <ele>664.4620000</ele>
        <time>2012-07-28T08:27:20Z</time>
      </trkpt>
      <trkpt lat="46.5586460" lon="6.8371670">
        <ele>664.4120000</ele>
        <time>2012-07-28T08:27:21Z</time>
      </trkpt>
      <trkpt lat="46.5586900" lon="6.8370190">
        <ele>664.8300000</ele>
        <time>2012-07-28T08:27:27Z</time>
      </trkpt>
      <trkpt lat="46.5586870" lon="6.8370120">
        <ele>664.9810000</ele>
        <time>2012-07-28T08:27:28Z</time>
      </trkpt>
      <trkpt lat="46.5585610" lon="6.8369940">
        <ele>665.5510000</ele>
        <time>2012-07-28T08:27:35Z</time>
      </trkpt>
      <trkpt lat="46.5584220" lon="6.8369180">
        <ele>665.0480000</ele>
        <time>2012-07-28T08:27:39Z</time>
      </trkpt>
      <trkpt lat="46.5581800" lon="6.8366680">
        <ele>663.8550000</ele>
        <time>2012-07-28T08:27:45Z</time>
      </trkpt>
      <trkpt lat="46.5579950" lon="6.8364860">
        <ele>663.2250000</ele>
        <time>2012-07-28T08:27:49Z</time>
      </trkpt>
      <trkpt lat="46.5576640" lon="6.8361380">
        <ele>662.3910000</ele>
        <time>2012-07-28T08:27:56Z</time>
      </trkpt>
      <trkpt lat="46.5576200" lon="6.8360720">
        <ele>662.3490000</ele>
        <time>2012-07-28T08:27:57Z</time>
      </trkpt>
      <trkpt lat="46.5574220" lon="6.8357050">
        <ele>662.0820000</ele>
        <time>2012-07-28T08:28:02Z</time>
      </trkpt>
      <trkpt lat="46.5572740" lon="6.8353580">
        <ele>661.7250000</ele>
        <time>2012-07-28T08:28:07Z</time>
      </trkpt>
      <trkpt lat="46.5571620" lon="6.8351680">
        <ele>661.4280000</ele>
        <time>2012-07-28T08:28:10Z</time>
      </trkpt>
      <trkpt lat="46.5569680" lon="6.8350450">
        <ele>661.3070000</ele>
        <time>2012-07-28T08:28:14Z</time>
      </trkpt>
      <trkpt lat="46.5569200" lon="6.8350740">
        <ele>661.4240000</ele>
        <time>2012-07-28T08:28:15Z</time>
      </trkpt>
      <trkpt lat="46.5565570" lon="6.8353400">
        <ele>661.6060000</ele>
        <time>2012-07-28T08:28:23Z</time>
      </trkpt>
      <trkpt lat="46.5561500" lon="6.8354650">
        <ele>661.8200000</ele>
        <time>2012-07-28T08:28:31Z</time>
      </trkpt>
      <trkpt lat="46.5558960" lon="6.8354710">
        <ele>662.2760000</ele>
        <time>2012-07-28T08:28:36Z</time>
      </trkpt>
      <trkpt lat="46.5556150" lon="6.8353070">
        <ele>662.9910000</ele>
        <time>2012-07-28T08:28:42Z</time>
      </trkpt>
      <trkpt lat="46.5555420" lon="6.8351110">
        <ele>663.2570000</ele>
        <time>2012-07-28T08:28:45Z</time>
      </trkpt>
      <trkpt lat="46.5555290" lon="6.8349500">
        <ele>663.3770000</ele>
        <time>2012-07-28T08:28:47Z</time>
      </trkpt>
      <trkpt lat="46.5554560" lon="6.8341750">
        <ele>663.4530000</ele>
        <time>2012-07-28T08:28:56Z</time>
      </trkpt>
      <trkpt lat="46.5554010" lon="6.8333740">
        <ele>663.2000000</ele>
        <time>2012-07-28T08:29:05Z</time>
      </trkpt>
      <trkpt lat="46.5553580" lon="6.8329150">
        <ele>663.1660000</ele>
        <time>2012-07-28T08:29:10Z</time>
      </trkpt>
      <trkpt lat="46.5554110" lon="6.8326820">
        <ele>663.0990000</ele>
        <time>2012-07-28T08:29:13Z</time>
      </trkpt>
      <trkpt lat="46.5554620" lon="6.8326380">
        <ele>662.9540000</ele>
        <time>2012-07-28T08:29:14Z</time>
      </trkpt>
      <trkpt lat="46.5555680" lon="6.8325680">
        <ele>662.8320000</ele>
        <time>2012-07-28T08:29:16Z</time>
      </trkpt>
      <trkpt lat="46.5556970" lon="6.8323030">
        <ele>662.5920000</ele>
        <time>2012-07-28T08:29:20Z</time>
      </trkpt>
      <trkpt lat="46.5556920" lon="6.8322110">
        <ele>662.4920000</ele>
        <time>2012-07-28T08:29:21Z</time>
      </trkpt>
      <trkpt lat="46.5556000" lon="6.8315900">
        <ele>662.4280000</ele>
        <time>2012-07-28T08:29:28Z</time>
      </trkpt>
      <trkpt lat="46.5554970" lon="6.8308620">
        <ele>661.9440000</ele>
        <time>2012-07-28T08:29:36Z</time>
      </trkpt>
      <trkpt lat="46.5554100" lon="6.8302470">
        <ele>661.4990000</ele>
        <time>2012-07-28T08:29:43Z</time>
      </trkpt>
      <trkpt lat="46.5553900" lon="6.8299920">
        <ele>661.2090000</ele>
        <time>2012-07-28T08:29:47Z</time>
      </trkpt>
      <trkpt lat="46.5554950" lon="6.8299460">
        <ele>660.9850000</ele>
        <time>2012-07-28T08:29:51Z</time>
      </trkpt>
      <trkpt lat="46.5557000" lon="6.8299900">
        <ele>660.8090000</ele>
        <time>2012-07-28T08:29:55Z</time>
      </trkpt>
      <trkpt lat="46.5561890" lon="6.8302370">
        <ele>661.1810000</ele>
        <time>2012-07-28T08:30:04Z</time>
      </trkpt>
      <trkpt lat="46.5564990" lon="6.8304870">
        <ele>661.5710000</ele>
        <time>2012-07-28T08:30:10Z</time>
      </trkpt>
      <trkpt lat="46.5566070" lon="6.8305710">
        <ele>661.5410000</ele>
        <time>2012-07-28T08:30:12Z</time>
      </trkpt>
      <trkpt lat="46.5568990" lon="6.8306250">
        <ele>661.4950000</ele>
        <time>2012-07-28T08:30:17Z</time>
      </trkpt>
      <trkpt lat="46.5569490" lon="6.8306170">
        <ele>661.4880000</ele>
        <time>2012-07-28T08:30:18Z</time>
      </trkpt>
      <trkpt lat="46.5570820" lon="6.8306050">
        <ele>661.5610000</ele>
        <time>2012-07-28T08:30:22Z</time>
      </trkpt>
      <trkpt lat="46.5571310" lon="6.8306020">
        <ele>661.4010000</ele>
        <time>2012-07-28T08:30:26Z</time>
      </trkpt>
      <trkpt lat="46.5571580" lon="6.8304540">
        <ele>661.0790000</ele>
        <time>2012-07-28T08:30:30Z</time>
      </trkpt>
      <trkpt lat="46.5572000" lon="6.8300750">
        <ele>660.4260000</ele>
        <time>2012-07-28T08:30:35Z</time>
      </trkpt>
      <trkpt lat="46.5572780" lon="6.8295120">
        <ele>659.1880000</ele>
        <time>2012-07-28T08:30:42Z</time>
      </trkpt>
      <trkpt lat="46.5573030" lon="6.8291060">
        <ele>658.3110000</ele>
        <time>2012-07-28T08:30:47Z</time>
      </trkpt>
      <trkpt lat="46.5573130" lon="6.8288870">
        <ele>657.3850000</ele>
        <time>2012-07-28T08:30:50Z</time>
      </trkpt>
      <trkpt lat="46.5572960" lon="6.8286030">
        <ele>656.3580000</ele>
        <time>2012-07-28T08:30:54Z</time>
      </trkpt>
      <trkpt lat="46.5571710" lon="6.8279720">
        <ele>655.9460000</ele>
        <time>2012-07-28T08:31:01Z</time>
      </trkpt>
      <trkpt lat="46.5571040" lon="6.8277380">
        <ele>655.7720000</ele>
        <time>2012-07-28T08:31:04Z</time>
      </trkpt>
      <trkpt lat="46.5571440" lon="6.8275390">
        <ele>655.6210000</ele>
        <time>2012-07-28T08:31:07Z</time>
      </trkpt>
      <trkpt lat="46.5573150" lon="6.8275150">
        <ele>655.1060000</ele>
        <time>2012-07-28T08:31:10Z</time>
      </trkpt>
      <trkpt lat="46.5574560" lon="6.8273630">
        <ele>654.1110000</ele>
        <time>2012-07-28T08:31:13Z</time>
      </trkpt>
      <trkpt lat="46.5575060" lon="6.8270900">
        <ele>653.2250000</ele>
        <time>2012-07-28T08:31:16Z</time>
      </trkpt>
      <trkpt lat="46.5575340" lon="6.8268070">
        <ele>652.7800000</ele>
        <time>2012-07-28T08:31:19Z</time>
      </trkpt>
      <trkpt lat="46.5576980" lon="6.8264360">
        <ele>652.6150000</ele>
        <time>2012-07-28T08:31:24Z</time>
      </trkpt>
      <trkpt lat="46.5578020" lon="6.8263460">
        <ele>652.6090000</ele>
        <time>2012-07-28T08:31:26Z</time>
      </trkpt>
      <trkpt lat="46.5582120" lon="6.8261510">
        <ele>653.7850000</ele>
        <time>2012-07-28T08:31:34Z</time>
      </trkpt>
      <trkpt lat="46.5584230" lon="6.8260410">
        <ele>655.4530000</ele>
        <time>2012-07-28T08:31:40Z</time>
      </trkpt>
      <trkpt lat="46.5586130" lon="6.8259010">
        <ele>658.0040000</ele>
        <time>2012-07-28T08:31:47Z</time>
      </trkpt>
      <trkpt lat="46.5587490" lon="6.8257860">
        <ele>659.9990000</ele>
        <time>2012-07-28T08:31:52Z</time>
      </trkpt>
      <trkpt lat="46.5589240" lon="6.8256530">
        <ele>662.0350000</ele>
        <time>2012-07-28T08:31:58Z</time>
      </trkpt>
      <trkpt lat="46.5590970" lon="6.8254240">
        <ele>663.7200000</ele>
        <time>2012-07-28T08:32:05Z</time>
      </trkpt>
      <trkpt lat="46.5591660" lon="6.8252180">
        <ele>664.5830000</ele>
        <time>2012-07-28T08:32:10Z</time>
      </trkpt>
      <trkpt lat="46.5592970" lon="6.8248250">
        <ele>665.8040000</ele>
        <time>2012-07-28T08:32:19Z</time>
      </trkpt>
      <trkpt lat="46.5594140" lon="6.8244440">
        <ele>666.3950000</ele>
        <time>2012-07-28T08:32:27Z</time>
      </trkpt>
      <trkpt lat="46.5595150" lon="6.8240970">
        <ele>665.6730000</ele>
        <time>2012-07-28T08:32:32Z</time>
      </trkpt>
      <trkpt lat="46.5597260" lon="6.8233710">
        <ele>661.9180000</ele>
        <time>2012-07-28T08:32:40Z</time>
      </trkpt>
      <trkpt lat="46.5597950" lon="6.8231170">
        <ele>661.5280000</ele>
        <time>2012-07-28T08:32:44Z</time>
      </trkpt>
      <trkpt lat="46.5598680" lon="6.8227600">
        <ele>662.9630000</ele>
        <time>2012-07-28T08:32:51Z</time>
      </trkpt>
      <trkpt lat="46.5598630" lon="6.8227110">
        <ele>663.2140000</ele>
        <time>2012-07-28T08:32:52Z</time>
      </trkpt>
      <trkpt lat="46.5597270" lon="6.8226180">
        <ele>663.9760000</ele>
        <time>2012-07-28T08:32:56Z</time>
      </trkpt>
      <trkpt lat="46.5596270" lon="6.8225810">
        <ele>663.9070000</ele>
        <time>2012-07-28T08:32:58Z</time>
      </trkpt>
      <trkpt lat="46.5594740" lon="6.8224880">
        <ele>663.6900000</ele>
        <time>2012-07-28T08:33:01Z</time>
      </trkpt>
      <trkpt lat="46.5591140" lon="6.8221200">
        <ele>662.5520000</ele>
        <time>2012-07-28T08:33:08Z</time>
      </trkpt>
      <trkpt lat="46.5587640" lon="6.8216630">
        <ele>661.2710000</ele>
        <time>2012-07-28T08:33:15Z</time>
      </trkpt>
      <trkpt lat="46.5584640" lon="6.8209600">
        <ele>659.7240000</ele>
        <time>2012-07-28T08:33:23Z</time>
      </trkpt>
      <trkpt lat="46.5581990" lon="6.8205690">
        <ele>657.9420000</ele>
        <time>2012-07-28T08:33:29Z</time>
      </trkpt>
      <trkpt lat="46.5580600" lon="6.8201300">
        <ele>656.8980000</ele>
        <time>2012-07-28T08:33:34Z</time>
      </trkpt>
      <trkpt lat="46.5580110" lon="6.8196330">
        <ele>656.3150000</ele>
        <time>2012-07-28T08:33:39Z</time>
      </trkpt>
      <trkpt lat="46.5579920" lon="6.8191830">
        <ele>656.6950000</ele>
        <time>2012-07-28T08:33:44Z</time>
      </trkpt>
      <trkpt lat="46.5579870" lon="6.8191110">
        <ele>656.9860000</ele>
        <time>2012-07-28T08:33:45Z</time>
      </trkpt>
      <trkpt lat="46.5579710" lon="6.8188860">
        <ele>658.1890000</ele>
        <time>2012-07-28T08:33:49Z</time>
      </trkpt>
      <trkpt lat="46.5578020" lon="6.8188800">
        <ele>658.5560000</ele>
        <time>2012-07-28T08:33:53Z</time>
      </trkpt>
      <trkpt lat="46.5577430" lon="6.8189110">
        <ele>658.3940000</ele>
        <time>2012-07-28T08:33:54Z</time>
      </trkpt>
      <trkpt lat="46.5572700" lon="6.8191920">
        <ele>654.9420000</ele>
        <time>2012-07-28T08:34:01Z</time>
      </trkpt>
      <trkpt lat="46.5572120" lon="6.8192230">
        <ele>654.1250000</ele>
        <time>2012-07-28T08:34:02Z</time>
      </trkpt>
      <trkpt lat="46.5568910" lon="6.8192930">
        <ele>650.5920000</ele>
        <time>2012-07-28T08:34:07Z</time>
      </trkpt>
      <trkpt lat="46.5568060" lon="6.8193000">
        <ele>649.6880000</ele>
        <time>2012-07-28T08:34:08Z</time>
      </trkpt>
      <trkpt lat="46.5564790" lon="6.8192370">
        <ele>646.2830000</ele>
        <time>2012-07-28T08:34:12Z</time>
      </trkpt>
      <trkpt lat="46.5563450" lon="6.8191790">
        <ele>645.0090000</ele>
        <time>2012-07-28T08:34:14Z</time>
      </trkpt>
      <trkpt lat="46.5561810" lon="6.8189400">
        <ele>644.0300000</ele>
        <time>2012-07-28T08:34:19Z</time>
      </trkpt>
      <trkpt lat="46.5560470" lon="6.8187370">
        <ele>645.5080000</ele>
        <time>2012-07-28T08:34:24Z</time>
      </trkpt>
      <trkpt lat="46.5558640" lon="6.8185710">
        <ele>647.2250000</ele>
        <time>2012-07-28T08:34:30Z</time>
      </trkpt>
      <trkpt lat="46.5557660" lon="6.8183640">
        <ele>648.3170000</ele>
        <time>2012-07-28T08:34:35Z</time>
      </trkpt>
      <trkpt lat="46.5555730" lon="6.8180760">
        <ele>650.7610000</ele>
        <time>2012-07-28T08:34:44Z</time>
      </trkpt>
      <trkpt lat="46.5553330" lon="6.8178650">
        <ele>653.1330000</ele>
        <time>2012-07-28T08:34:54Z</time>
      </trkpt>
      <trkpt lat="46.5551740" lon="6.8176970">
        <ele>654.4430000</ele>
        <time>2012-07-28T08:35:01Z</time>
      </trkpt>
      <trkpt lat="46.5551290" lon="6.8174540">
        <ele>655.2600000</ele>
        <time>2012-07-28T08:35:07Z</time>
      </trkpt>
      <trkpt lat="46.5550950" lon="6.8171580">
        <ele>656.4470000</ele>
        <time>2012-07-28T08:35:14Z</time>
      </trkpt>
      <trkpt lat="46.5550340" lon="6.8168300">
        <ele>658.1070000</ele>
        <time>2012-07-28T08:35:22Z</time>
      </trkpt>
      <trkpt lat="46.5549250" lon="6.8163940">
        <ele>660.2980000</ele>
        <time>2012-07-28T08:35:33Z</time>
      </trkpt>
      <trkpt lat="46.5547840" lon="6.8159790">
        <ele>662.4910000</ele>
        <time>2012-07-28T08:35:43Z</time>
      </trkpt>
      <trkpt lat="46.5546330" lon="6.8156550">
        <ele>663.9700000</ele>
        <time>2012-07-28T08:35:51Z</time>
      </trkpt>
      <trkpt lat="46.5543720" lon="6.8151860">
        <ele>665.4670000</ele>
        <time>2012-07-28T08:36:02Z</time>
      </trkpt>
      <trkpt lat="46.5541440" lon="6.8148520">
        <ele>665.8740000</ele>
        <time>2012-07-28T08:36:10Z</time>
      </trkpt>
      <trkpt lat="46.5538330" lon="6.8144710">
        <ele>666.0970000</ele>
        <time>2012-07-28T08:36:19Z</time>
      </trkpt>
      <trkpt lat="46.5536170" lon="6.8141950">
        <ele>666.3370000</ele>
        <time>2012-07-28T08:36:25Z</time>
      </trkpt>
      <trkpt lat="46.5535170" lon="6.8138580">
        <ele>666.3030000</ele>
        <time>2012-07-28T08:36:30Z</time>
      </trkpt>
      <trkpt lat="46.5536040" lon="6.8135390">
        <ele>666.0290000</ele>
        <time>2012-07-28T08:36:34Z</time>
      </trkpt>
      <trkpt lat="46.5539950" lon="6.8127300">
        <ele>665.0170000</ele>
        <time>2012-07-28T08:36:44Z</time>
      </trkpt>
      <trkpt lat="46.5541490" lon="6.8124050">
        <ele>664.7770000</ele>
        <time>2012-07-28T08:36:48Z</time>
      </trkpt>
      <trkpt lat="46.5542660" lon="6.8121040">
        <ele>664.8550000</ele>
        <time>2012-07-28T08:36:52Z</time>
      </trkpt>
      <trkpt lat="46.5542290" lon="6.8119180">
        <ele>665.0290000</ele>
        <time>2012-07-28T08:36:55Z</time>
      </trkpt>
      <trkpt lat="46.5540890" lon="6.8118770">
        <ele>665.4880000</ele>
        <time>2012-07-28T08:36:58Z</time>
      </trkpt>
      <trkpt lat="46.5536530" lon="6.8118530">
        <ele>667.7060000</ele>
        <time>2012-07-28T08:37:08Z</time>
      </trkpt>
      <trkpt lat="46.5534090" lon="6.8117990">
        <ele>668.6940000</ele>
        <time>2012-07-28T08:37:14Z</time>
      </trkpt>
      <trkpt lat="46.5531740" lon="6.8115620">
        <ele>669.6660000</ele>
        <time>2012-07-28T08:37:21Z</time>
      </trkpt>
      <trkpt lat="46.5531280" lon="6.8114620">
        <ele>669.8430000</ele>
        <time>2012-07-28T08:37:23Z</time>
      </trkpt>
      <trkpt lat="46.5529230" lon="6.8109030">
        <ele>670.6810000</ele>
        <time>2012-07-28T08:37:33Z</time>
      </trkpt>
      <trkpt lat="46.5526440" lon="6.8103510">
        <ele>671.2010000</ele>
        <time>2012-07-28T08:37:43Z</time>
      </trkpt>
      <trkpt lat="46.5524120" lon="6.8099530">
        <ele>672.3370000</ele>
        <time>2012-07-28T08:37:51Z</time>
      </trkpt>
      <trkpt lat="46.5521550" lon="6.8095540">
        <ele>674.1010000</ele>
        <time>2012-07-28T08:38:00Z</time>
      </trkpt>
      <trkpt lat="46.5519520" lon="6.8092770">
        <ele>675.6880000</ele>
        <time>2012-07-28T08:38:07Z</time>
      </trkpt>
      <trkpt lat="46.5517690" lon="6.8090110">
        <ele>676.8410000</ele>
        <time>2012-07-28T08:38:13Z</time>
      </trkpt>
      <trkpt lat="46.5515810" lon="6.8085930">
        <ele>677.2370000</ele>
        <time>2012-07-28T08:38:20Z</time>
      </trkpt>
      <trkpt lat="46.5513080" lon="6.8080440">
        <ele>677.3310000</ele>
        <time>2012-07-28T08:38:29Z</time>
      </trkpt>
      <trkpt lat="46.5510920" lon="6.8077570">
        <ele>678.1690000</ele>
        <time>2012-07-28T08:38:35Z</time>
      </trkpt>
      <trkpt lat="46.5508920" lon="6.8075710">
        <ele>679.1340000</ele>
        <time>2012-07-28T08:38:40Z</time>
      </trkpt>
      <trkpt lat="46.5505460" lon="6.8071650">
        <ele>679.7620000</ele>
        <time>2012-07-28T08:38:48Z</time>
      </trkpt>
      <trkpt lat="46.5503600" lon="6.8068650">
        <ele>679.7530000</ele>
        <time>2012-07-28T08:38:53Z</time>
      </trkpt>
      <trkpt lat="46.5502670" lon="6.8066460">
        <ele>679.4490000</ele>
        <time>2012-07-28T08:38:56Z</time>
      </trkpt>
      <trkpt lat="46.5499690" lon="6.8060590">
        <ele>677.3950000</ele>
        <time>2012-07-28T08:39:03Z</time>
      </trkpt>
      <trkpt lat="46.5497280" lon="6.8055840">
        <ele>675.4380000</ele>
        <time>2012-07-28T08:39:08Z</time>
      </trkpt>
      <trkpt lat="46.5493850" lon="6.8050050">
        <ele>673.4050000</ele>
        <time>2012-07-28T08:39:14Z</time>
      </trkpt>
      <trkpt lat="46.5491050" lon="6.8045770">
        <ele>672.5430000</ele>
        <time>2012-07-28T08:39:19Z</time>
      </trkpt>
      <trkpt lat="46.5488720" lon="6.8042910">
        <ele>672.1800000</ele>
        <time>2012-07-28T08:39:23Z</time>
      </trkpt>
      <trkpt lat="46.5488120" lon="6.8042330">
        <ele>672.0710000</ele>
        <time>2012-07-28T08:39:24Z</time>
      </trkpt>
      <trkpt lat="46.5485710" lon="6.8040810">
        <ele>671.9430000</ele>
        <time>2012-07-28T08:39:28Z</time>
      </trkpt>
      <trkpt lat="46.5481720" lon="6.8039430">
        <ele>673.2480000</ele>
        <time>2012-07-28T08:39:35Z</time>
      </trkpt>
      <trkpt lat="46.5480190" lon="6.8038690">
        <ele>673.9980000</ele>
        <time>2012-07-28T08:39:38Z</time>
      </trkpt>
      <trkpt lat="46.5479270" lon="6.8038020">
        <ele>674.2740000</ele>
        <time>2012-07-28T08:39:40Z</time>
      </trkpt>
      <trkpt lat="46.5477200" lon="6.8035570">
        <ele>674.8510000</ele>
        <time>2012-07-28T08:39:45Z</time>
      </trkpt>
      <trkpt lat="46.5474160" lon="6.8033740">
        <ele>676.3770000</ele>
        <time>2012-07-28T08:39:52Z</time>
      </trkpt>
      <trkpt lat="46.5471870" lon="6.8032990">
        <ele>677.3130000</ele>
        <time>2012-07-28T08:39:57Z</time>
      </trkpt>
      <trkpt lat="46.5469370" lon="6.8031380">
        <ele>678.2260000</ele>
        <time>2012-07-28T08:40:03Z</time>
      </trkpt>
      <trkpt lat="46.5466400" lon="6.8028910">
        <ele>679.7190000</ele>
        <time>2012-07-28T08:40:11Z</time>
      </trkpt>
      <trkpt lat="46.5464340" lon="6.8026390">
        <ele>680.7590000</ele>
        <time>2012-07-28T08:40:17Z</time>
      </trkpt>
      <trkpt lat="46.5462230" lon="6.8022640">
        <ele>681.5160000</ele>
        <time>2012-07-28T08:40:25Z</time>
      </trkpt>
      <trkpt lat="46.5460650" lon="6.8018410">
        <ele>682.7830000</ele>
        <time>2012-07-28T08:40:33Z</time>
      </trkpt>
      <trkpt lat="46.5459980" lon="6.8015190">
        <ele>683.7500000</ele>
        <time>2012-07-28T08:40:39Z</time>
      </trkpt>
      <trkpt lat="46.5458980" lon="6.8011410">
        <ele>684.9110000</ele>
        <time>2012-07-28T08:40:46Z</time>
      </trkpt>
      <trkpt lat="46.5457010" lon="6.8008310">
        <ele>685.8940000</ele>
        <time>2012-07-28T08:40:53Z</time>
      </trkpt>
      <trkpt lat="46.5454270" lon="6.8005000">
        <ele>686.7180000</ele>
        <time>2012-07-28T08:41:01Z</time>
      </trkpt>
      <trkpt lat="46.5453910" lon="6.8004540">
        <ele>686.8350000</ele>
        <time>2012-07-28T08:41:02Z</time>
      </trkpt>
      <trkpt lat="46.5452780" lon="6.8003250">
        <ele>687.1200000</ele>
        <time>2012-07-28T08:41:05Z</time>
      </trkpt>
      <trkpt lat="46.5450550" lon="6.8000650">
        <ele>687.4840000</ele>
        <time>2012-07-28T08:41:11Z</time>
      </trkpt>
      <trkpt lat="46.5449050" lon="6.7999000">
        <ele>687.7310000</ele>
        <time>2012-07-28T08:41:15Z</time>
      </trkpt>
      <trkpt lat="46.5447150" lon="6.7997040">
        <ele>688.0840000</ele>
        <time>2012-07-28T08:41:20Z</time>
      </trkpt>
      <trkpt lat="46.5443720" lon="6.7993220">
        <ele>688.2550000</ele>
        <time>2012-07-28T08:41:29Z</time>
      </trkpt>
      <trkpt lat="46.5441410" lon="6.7990750">
        <ele>688.9710000</ele>
        <time>2012-07-28T08:41:35Z</time>
      </trkpt>
      <trkpt lat="46.5439400" lon="6.7988680">
        <ele>689.3220000</ele>
        <time>2012-07-28T08:41:40Z</time>
      </trkpt>
      <trkpt lat="46.5436860" lon="6.7985420">
        <ele>690.1840000</ele>
        <time>2012-07-28T08:41:47Z</time>
      </trkpt>
      <trkpt lat="46.5434200" lon="6.7980670">
        <ele>691.5990000</ele>
        <time>2012-07-28T08:41:56Z</time>
      </trkpt>
      <trkpt lat="46.5431020" lon="6.7977060">
        <ele>692.3630000</ele>
        <time>2012-07-28T08:42:04Z</time>
      </trkpt>
      <trkpt lat="46.5428340" lon="6.7974190">
        <ele>692.1940000</ele>
        <time>2012-07-28T08:42:10Z</time>
      </trkpt>
      <trkpt lat="46.5423610" lon="6.7968620">
        <ele>691.0510000</ele>
        <time>2012-07-28T08:42:20Z</time>
      </trkpt>
      <trkpt lat="46.5422730" lon="6.7967390">
        <ele>690.8360000</ele>
        <time>2012-07-28T08:42:22Z</time>
      </trkpt>
      <trkpt lat="46.5420330" lon="6.7963480">
        <ele>690.2550000</ele>
        <time>2012-07-28T08:42:28Z</time>
      </trkpt>
      <trkpt lat="46.5418690" lon="6.7960920">
        <ele>690.0010000</ele>
        <time>2012-07-28T08:42:32Z</time>
      </trkpt>
      <trkpt lat="46.5415660" lon="6.7957360">
        <ele>689.8340000</ele>
        <time>2012-07-28T08:42:38Z</time>
      </trkpt>
      <trkpt lat="46.5413450" lon="6.7955230">
        <ele>689.6970000</ele>
        <time>2012-07-28T08:42:42Z</time>
      </trkpt>
      <trkpt lat="46.5411400" lon="6.7953510">
        <ele>689.6210000</ele>
        <time>2012-07-28T08:42:46Z</time>
      </trkpt>
      <trkpt lat="46.5408040" lon="6.7950980">
        <ele>689.6030000</ele>
        <time>2012-07-28T08:42:52Z</time>
      </trkpt>
      <trkpt lat="46.5406900" lon="6.7950130">
        <ele>689.5130000</ele>
        <time>2012-07-28T08:42:54Z</time>
      </trkpt>
      <trkpt lat="46.5404440" lon="6.7948050">
        <ele>689.2810000</ele>
        <time>2012-07-28T08:42:59Z</time>
      </trkpt>
      <trkpt lat="46.5402090" lon="6.7945840">
        <ele>689.0810000</ele>
        <time>2012-07-28T08:43:04Z</time>
      </trkpt>
      <trkpt lat="46.5398430" lon="6.7942930">
        <ele>688.6360000</ele>
        <time>2012-07-28T08:43:10Z</time>
      </trkpt>
      <trkpt lat="46.5394980" lon="6.7938520">
        <ele>688.0580000</ele>
        <time>2012-07-28T08:43:17Z</time>
      </trkpt>
      <trkpt lat="46.5390530" lon="6.7933130">
        <ele>687.9420000</ele>
        <time>2012-07-28T08:43:26Z</time>
      </trkpt>
      <trkpt lat="46.5387410" lon="6.7930300">
        <ele>687.9970000</ele>
        <time>2012-07-28T08:43:32Z</time>
      </trkpt>
      <trkpt lat="46.5386860" lon="6.7929910">
        <ele>688.0770000</ele>
        <time>2012-07-28T08:43:33Z</time>
      </trkpt>
      <trkpt lat="46.5381840" lon="6.7925950">
        <ele>688.6140000</ele>
        <time>2012-07-28T08:43:42Z</time>
      </trkpt>
      <trkpt lat="46.5381380" lon="6.7925680">
        <ele>688.6290000</ele>
        <time>2012-07-28T08:43:43Z</time>
      </trkpt>
      <trkpt lat="46.5379360" lon="6.7924160">
        <ele>688.7970000</ele>
        <time>2012-07-28T08:43:47Z</time>
      </trkpt>
      <trkpt lat="46.5377110" lon="6.7922670">
        <ele>689.1200000</ele>
        <time>2012-07-28T08:43:52Z</time>
      </trkpt>
      <trkpt lat="46.5373630" lon="6.7919510">
        <ele>689.8230000</ele>
        <time>2012-07-28T08:43:58Z</time>
      </trkpt>
      <trkpt lat="46.5371270" lon="6.7917710">
        <ele>690.5010000</ele>
        <time>2012-07-28T08:44:03Z</time>
      </trkpt>
      <trkpt lat="46.5369790" lon="6.7916780">
        <ele>690.8970000</ele>
        <time>2012-07-28T08:44:07Z</time>
      </trkpt>
      <trkpt lat="46.5367450" lon="6.7915010">
        <ele>691.2270000</ele>
        <time>2012-07-28T08:44:12Z</time>
      </trkpt>
      <trkpt lat="46.5364810" lon="6.7912520">
        <ele>691.5000000</ele>
        <time>2012-07-28T08:44:17Z</time>
      </trkpt>
      <trkpt lat="46.5362310" lon="6.7909640">
        <ele>692.0890000</ele>
        <time>2012-07-28T08:44:22Z</time>
      </trkpt>
      <trkpt lat="46.5360560" lon="6.7908040">
        <ele>692.5820000</ele>
        <time>2012-07-28T08:44:27Z</time>
      </trkpt>
      <trkpt lat="46.5359150" lon="6.7906530">
        <ele>692.9520000</ele>
        <time>2012-07-28T08:44:30Z</time>
      </trkpt>
      <trkpt lat="46.5357530" lon="6.7903560">
        <ele>693.4480000</ele>
        <time>2012-07-28T08:44:35Z</time>
      </trkpt>
      <trkpt lat="46.5356380" lon="6.7901050">
        <ele>693.7810000</ele>
        <time>2012-07-28T08:44:39Z</time>
      </trkpt>
      <trkpt lat="46.5354150" lon="6.7898490">
        <ele>694.1740000</ele>
        <time>2012-07-28T08:44:43Z</time>
      </trkpt>
      <trkpt lat="46.5352560" lon="6.7896080">
        <ele>694.8550000</ele>
        <time>2012-07-28T08:44:48Z</time>
      </trkpt>
      <trkpt lat="46.5350370" lon="6.7893290">
        <ele>695.8170000</ele>
        <time>2012-07-28T08:44:54Z</time>
      </trkpt>
      <trkpt lat="46.5349140" lon="6.7892130">
        <ele>696.1410000</ele>
        <time>2012-07-28T08:44:57Z</time>
      </trkpt>
      <trkpt lat="46.5346060" lon="6.7890150">
        <ele>696.7420000</ele>
        <time>2012-07-28T08:45:04Z</time>
      </trkpt>
      <trkpt lat="46.5344270" lon="6.7888660">
        <ele>697.1830000</ele>
        <time>2012-07-28T08:45:09Z</time>
      </trkpt>
      <trkpt lat="46.5342530" lon="6.7887430">
        <ele>697.7890000</ele>
        <time>2012-07-28T08:45:13Z</time>
      </trkpt>
      <trkpt lat="46.5341910" lon="6.7886990">
        <ele>698.0570000</ele>
        <time>2012-07-28T08:45:14Z</time>
      </trkpt>
      <trkpt lat="46.5340980" lon="6.7886290">
        <ele>698.2680000</ele>
        <time>2012-07-28T08:45:16Z</time>
      </trkpt>
      <trkpt lat="46.5338650" lon="6.7884280">
        <ele>698.8470000</ele>
        <time>2012-07-28T08:45:22Z</time>
      </trkpt>
      <trkpt lat="46.5336950" lon="6.7882960">
        <ele>699.4260000</ele>
        <time>2012-07-28T08:45:26Z</time>
      </trkpt>
      <trkpt lat="46.5334990" lon="6.7881390">
        <ele>699.7220000</ele>
        <time>2012-07-28T08:45:30Z</time>
      </trkpt>
      <trkpt lat="46.5331990" lon="6.7878530">
        <ele>699.6250000</ele>
        <time>2012-07-28T08:45:36Z</time>
      </trkpt>
      <trkpt lat="46.5330260" lon="6.7876010">
        <ele>699.8530000</ele>
        <time>2012-07-28T08:45:41Z</time>
      </trkpt>
      <trkpt lat="46.5329450" lon="6.7873540">
        <ele>700.0710000</ele>
        <time>2012-07-28T08:45:45Z</time>
      </trkpt>
      <trkpt lat="46.5328210" lon="6.7869830">
        <ele>700.4460000</ele>
        <time>2012-07-28T08:45:49Z</time>
      </trkpt>
      <trkpt lat="46.5327940" lon="6.7867480">
        <ele>700.8660000</ele>
        <time>2012-07-28T08:45:53Z</time>
      </trkpt>
      <trkpt lat="46.5327570" lon="6.7864230">
        <ele>701.6300000</ele>
        <time>2012-07-28T08:45:59Z</time>
      </trkpt>
      <trkpt lat="46.5327520" lon="6.7862030">
        <ele>702.2400000</ele>
        <time>2012-07-28T08:46:03Z</time>
      </trkpt>
      <trkpt lat="46.5326740" lon="6.7860090">
        <ele>702.7990000</ele>
        <time>2012-07-28T08:46:07Z</time>
      </trkpt>
      <trkpt lat="46.5324410" lon="6.7856950">
        <ele>703.4100000</ele>
        <time>2012-07-28T08:46:13Z</time>
      </trkpt>
      <trkpt lat="46.5323100" lon="6.7855520">
        <ele>703.7250000</ele>
        <time>2012-07-28T08:46:16Z</time>
      </trkpt>
      <trkpt lat="46.5320560" lon="6.7853370">
        <ele>704.1980000</ele>
        <time>2012-07-28T08:46:22Z</time>
      </trkpt>
      <trkpt lat="46.5318650" lon="6.7851930">
        <ele>704.7430000</ele>
        <time>2012-07-28T08:46:27Z</time>
      </trkpt>
      <trkpt lat="46.5315780" lon="6.7849530">
        <ele>705.2270000</ele>
        <time>2012-07-28T08:46:33Z</time>
      </trkpt>
      <trkpt lat="46.5313730" lon="6.7847940">
        <ele>705.4960000</ele>
        <time>2012-07-28T08:46:38Z</time>
      </trkpt>
      <trkpt lat="46.5312010" lon="6.7846800">
        <ele>705.8260000</ele>
        <time>2012-07-28T08:46:42Z</time>
      </trkpt>
      <trkpt lat="46.5308940" lon="6.7844730">
        <ele>706.3550000</ele>
        <time>2012-07-28T08:46:49Z</time>
      </trkpt>
      <trkpt lat="46.5305990" lon="6.7842800">
        <ele>707.1640000</ele>
        <time>2012-07-28T08:46:56Z</time>
      </trkpt>
      <trkpt lat="46.5303880" lon="6.7841520">
        <ele>707.8370000</ele>
        <time>2012-07-28T08:47:01Z</time>
      </trkpt>
      <trkpt lat="46.5301440" lon="6.7839850">
        <ele>708.5190000</ele>
        <time>2012-07-28T08:47:07Z</time>
      </trkpt>
      <trkpt lat="46.5299600" lon="6.7838810">
        <ele>709.0310000</ele>
        <time>2012-07-28T08:47:12Z</time>
      </trkpt>
      <trkpt lat="46.5297530" lon="6.7837370">
        <ele>709.4290000</ele>
        <time>2012-07-28T08:47:18Z</time>
      </trkpt>
      <trkpt lat="46.5295610" lon="6.7836270">
        <ele>709.9600000</ele>
        <time>2012-07-28T08:47:23Z</time>
      </trkpt>
      <trkpt lat="46.5293570" lon="6.7834110">
        <ele>710.4320000</ele>
        <time>2012-07-28T08:47:28Z</time>
      </trkpt>
      <trkpt lat="46.5292180" lon="6.7832350">
        <ele>710.6230000</ele>
        <time>2012-07-28T08:47:32Z</time>
      </trkpt>
      <trkpt lat="46.5290460" lon="6.7830270">
        <ele>710.9150000</ele>
        <time>2012-07-28T08:47:37Z</time>
      </trkpt>
      <trkpt lat="46.5288820" lon="6.7828580">
        <ele>711.2610000</ele>
        <time>2012-07-28T08:47:42Z</time>
      </trkpt>
      <trkpt lat="46.5286220" lon="6.7826170">
        <ele>711.6430000</ele>
        <time>2012-07-28T08:47:48Z</time>
      </trkpt>
      <trkpt lat="46.5284500" lon="6.7824600">
        <ele>711.7770000</ele>
        <time>2012-07-28T08:47:51Z</time>
      </trkpt>
      <trkpt lat="46.5281110" lon="6.7822000">
        <ele>712.1510000</ele>
        <time>2012-07-28T08:47:58Z</time>
      </trkpt>
      <trkpt lat="46.5277710" lon="6.7820810">
        <ele>711.3280000</ele>
        <time>2012-07-28T08:48:04Z</time>
      </trkpt>
      <trkpt lat="46.5274620" lon="6.7819560">
        <ele>710.3500000</ele>
        <time>2012-07-28T08:48:10Z</time>
      </trkpt>
      <trkpt lat="46.5271640" lon="6.7818070">
        <ele>709.2490000</ele>
        <time>2012-07-28T08:48:16Z</time>
      </trkpt>
      <trkpt lat="46.5267910" lon="6.7817070">
        <ele>707.9900000</ele>
        <time>2012-07-28T08:48:22Z</time>
      </trkpt>
      <trkpt lat="46.5267210" lon="6.7816950">
        <ele>707.7850000</ele>
        <time>2012-07-28T08:48:23Z</time>
      </trkpt>
      <trkpt lat="46.5265200" lon="6.7816340">
        <ele>707.2800000</ele>
        <time>2012-07-28T08:48:26Z</time>
      </trkpt>
      <trkpt lat="46.5262730" lon="6.7815560">
        <ele>706.3650000</ele>
        <time>2012-07-28T08:48:30Z</time>
      </trkpt>
      <trkpt lat="46.5259160" lon="6.7814190">
        <ele>704.9900000</ele>
        <time>2012-07-28T08:48:35Z</time>
      </trkpt>
      <trkpt lat="46.5257880" lon="6.7813610">
        <ele>704.4920000</ele>
        <time>2012-07-28T08:48:37Z</time>
      </trkpt>
      <trkpt lat="46.5255460" lon="6.7811690">
        <ele>703.6540000</ele>
        <time>2012-07-28T08:48:40Z</time>
      </trkpt>
      <trkpt lat="46.5253390" lon="6.7810360">
        <ele>703.0230000</ele>
        <time>2012-07-28T08:48:43Z</time>
      </trkpt>
      <trkpt lat="46.5250420" lon="6.7808370">
        <ele>702.9430000</ele>
        <time>2012-07-28T08:48:47Z</time>
      </trkpt>
      <trkpt lat="46.5248640" lon="6.7805670">
        <ele>703.2340000</ele>
        <time>2012-07-28T08:48:51Z</time>
      </trkpt>
      <trkpt lat="46.5246320" lon="6.7802520">
        <ele>703.4550000</ele>
        <time>2012-07-28T08:48:56Z</time>
      </trkpt>
      <trkpt lat="46.5242900" lon="6.7797840">
        <ele>702.9420000</ele>
        <time>2012-07-28T08:49:03Z</time>
      </trkpt>
      <trkpt lat="46.5239370" lon="6.7792740">
        <ele>702.7400000</ele>
        <time>2012-07-28T08:49:11Z</time>
      </trkpt>
      <trkpt lat="46.5236370" lon="6.7787390">
        <ele>702.8800000</ele>
        <time>2012-07-28T08:49:19Z</time>
      </trkpt>
      <trkpt lat="46.5233850" lon="6.7782900">
        <ele>703.2880000</ele>
        <time>2012-07-28T08:49:26Z</time>
      </trkpt>
      <trkpt lat="46.5231680" lon="6.7778090">
        <ele>703.5810000</ele>
        <time>2012-07-28T08:49:33Z</time>
      </trkpt>
      <trkpt lat="46.5230980" lon="6.7776110">
        <ele>703.9010000</ele>
        <time>2012-07-28T08:49:36Z</time>
      </trkpt>
      <trkpt lat="46.5231160" lon="6.7772990">
        <ele>704.6280000</ele>
        <time>2012-07-28T08:49:41Z</time>
      </trkpt>
      <trkpt lat="46.5231680" lon="6.7768400">
        <ele>706.1560000</ele>
        <time>2012-07-28T08:49:48Z</time>
      </trkpt>
      <trkpt lat="46.5231380" lon="6.7762220">
        <ele>707.5350000</ele>
        <time>2012-07-28T08:49:57Z</time>
      </trkpt>
      <trkpt lat="46.5230400" lon="6.7760860">
        <ele>707.6180000</ele>
        <time>2012-07-28T08:50:00Z</time>
      </trkpt>
      <trkpt lat="46.5229010" lon="6.7761350">
        <ele>707.7920000</ele>
        <time>2012-07-28T08:50:03Z</time>
      </trkpt>
      <trkpt lat="46.5225470" lon="6.7764130">
        <ele>709.1570000</ele>
        <time>2012-07-28T08:50:12Z</time>
      </trkpt>
      <trkpt lat="46.5222220" lon="6.7766310">
        <ele>709.5380000</ele>
        <time>2012-07-28T08:50:19Z</time>
      </trkpt>
      <trkpt lat="46.5219250" lon="6.7768310">
        <ele>707.4980000</ele>
        <time>2012-07-28T08:50:23Z</time>
      </trkpt>
      <trkpt lat="46.5215370" lon="6.7771120">
        <ele>703.9600000</ele>
        <time>2012-07-28T08:50:28Z</time>
      </trkpt>
      <trkpt lat="46.5214020" lon="6.7772820">
        <ele>703.3320000</ele>
        <time>2012-07-28T08:50:30Z</time>
      </trkpt>
      <trkpt lat="46.5213320" lon="6.7775430">
        <ele>702.2110000</ele>
        <time>2012-07-28T08:50:32Z</time>
      </trkpt>
      <trkpt lat="46.5211510" lon="6.7781370">
        <ele>699.6880000</ele>
        <time>2012-07-28T08:50:37Z</time>
      </trkpt>
      <trkpt lat="46.5210050" lon="6.7781860">
        <ele>699.1110000</ele>
        <time>2012-07-28T08:50:39Z</time>
      </trkpt>
      <trkpt lat="46.5209330" lon="6.7781640">
        <ele>698.9530000</ele>
        <time>2012-07-28T08:50:40Z</time>
      </trkpt>
      <trkpt lat="46.5204740" lon="6.7780520">
        <ele>699.3020000</ele>
        <time>2012-07-28T08:50:47Z</time>
      </trkpt>
      <trkpt lat="46.5201840" lon="6.7781640">
        <ele>700.1250000</ele>
        <time>2012-07-28T08:50:52Z</time>
      </trkpt>
      <trkpt lat="46.5198960" lon="6.7784640">
        <ele>700.6620000</ele>
        <time>2012-07-28T08:50:58Z</time>
      </trkpt>
      <trkpt lat="46.5195670" lon="6.7791300">
        <ele>698.3050000</ele>
        <time>2012-07-28T08:51:06Z</time>
      </trkpt>
      <trkpt lat="46.5195000" lon="6.7792950">
        <ele>698.1900000</ele>
        <time>2012-07-28T08:51:08Z</time>
      </trkpt>
      <trkpt lat="46.5194250" lon="6.7794340">
        <ele>698.1700000</ele>
        <time>2012-07-28T08:51:10Z</time>
      </trkpt>
      <trkpt lat="46.5191640" lon="6.7797460">
        <ele>697.5630000</ele>
        <time>2012-07-28T08:51:15Z</time>
      </trkpt>
      <trkpt lat="46.5187530" lon="6.7800100">
        <ele>696.8790000</ele>
        <time>2012-07-28T08:51:22Z</time>
      </trkpt>
      <trkpt lat="46.5185310" lon="6.7801320">
        <ele>697.7000000</ele>
        <time>2012-07-28T08:51:27Z</time>
      </trkpt>
      <trkpt lat="46.5182840" lon="6.7802150">
        <ele>701.0000000</ele>
        <time>2012-07-28T08:51:34Z</time>
      </trkpt>
      <trkpt lat="46.5180090" lon="6.7802820">
        <ele>703.6850000</ele>
        <time>2012-07-28T08:51:43Z</time>
      </trkpt>
      <trkpt lat="46.5177340" lon="6.7803490">
        <ele>704.5260000</ele>
        <time>2012-07-28T08:51:51Z</time>
      </trkpt>
      <trkpt lat="46.5173950" lon="6.7803660">
        <ele>705.5450000</ele>
        <time>2012-07-28T08:52:00Z</time>
      </trkpt>
      <trkpt lat="46.5171410" lon="6.7803380">
        <ele>706.1990000</ele>
        <time>2012-07-28T08:52:07Z</time>
      </trkpt>
      <trkpt lat="46.5168920" lon="6.7802100">
        <ele>706.6250000</ele>
        <time>2012-07-28T08:52:13Z</time>
      </trkpt>
      <trkpt lat="46.5163630" lon="6.7798620">
        <ele>707.0870000</ele>
        <time>2012-07-28T08:52:25Z</time>
      </trkpt>
      <trkpt lat="46.5160310" lon="6.7797650">
        <ele>707.6030000</ele>
        <time>2012-07-28T08:52:32Z</time>
      </trkpt>
      <trkpt lat="46.5159790" lon="6.7797690">
        <ele>707.6420000</ele>
        <time>2012-07-28T08:52:33Z</time>
      </trkpt>
      <trkpt lat="46.5156230" lon="6.7799280">
        <ele>707.0960000</ele>
        <time>2012-07-28T08:52:40Z</time>
      </trkpt>
      <trkpt lat="46.5154660" lon="6.7800090">
        <ele>706.2420000</ele>
        <time>2012-07-28T08:52:44Z</time>
      </trkpt>
      <trkpt lat="46.5153820" lon="6.7799280">
        <ele>705.4460000</ele>
        <time>2012-07-28T08:52:47Z</time>
      </trkpt>
      <trkpt lat="46.5152910" lon="6.7798650">
        <ele>704.6610000</ele>
        <time>2012-07-28T08:52:49Z</time>
      </trkpt>
      <trkpt lat="46.5148010" lon="6.7794570">
        <ele>701.5020000</ele>
        <time>2012-07-28T08:52:58Z</time>
      </trkpt>
      <trkpt lat="46.5144600" lon="6.7791760">
        <ele>701.1900000</ele>
        <time>2012-07-28T08:53:05Z</time>
      </trkpt>
      <trkpt lat="46.5140460" lon="6.7788450">
        <ele>701.0010000</ele>
        <time>2012-07-28T08:53:14Z</time>
      </trkpt>
      <trkpt lat="46.5137220" lon="6.7785860">
        <ele>700.9440000</ele>
        <time>2012-07-28T08:53:21Z</time>
      </trkpt>
      <trkpt lat="46.5136450" lon="6.7783790">
        <ele>700.7880000</ele>
        <time>2012-07-28T08:53:25Z</time>
      </trkpt>
      <trkpt lat="46.5137320" lon="6.7779110">
        <ele>701.8720000</ele>
        <time>2012-07-28T08:53:34Z</time>
      </trkpt>
      <trkpt lat="46.5138110" lon="6.7775440">
        <ele>703.1000000</ele>
        <time>2012-07-28T08:53:42Z</time>
      </trkpt>
      <trkpt lat="46.5138880" lon="6.7773980">
        <ele>705.0500000</ele>
        <time>2012-07-28T08:53:48Z</time>
      </trkpt>
      <trkpt lat="46.5139910" lon="6.7772090">
        <ele>705.1150000</ele>
        <time>2012-07-28T08:53:52Z</time>
      </trkpt>
      <trkpt lat="46.5141450" lon="6.7768420">
        <ele>703.7210000</ele>
        <time>2012-07-28T08:53:57Z</time>
      </trkpt>
      <trkpt lat="46.5142120" lon="6.7766450">
        <ele>704.6070000</ele>
        <time>2012-07-28T08:54:02Z</time>
      </trkpt>
      <trkpt lat="46.5142180" lon="6.7766050">
        <ele>704.9490000</ele>
        <time>2012-07-28T08:54:03Z</time>
      </trkpt>
      <trkpt lat="46.5141350" lon="6.7764440">
        <ele>705.6970000</ele>
        <time>2012-07-28T08:54:07Z</time>
      </trkpt>
      <trkpt lat="46.5140920" lon="6.7764150">
        <ele>705.6420000</ele>
        <time>2012-07-28T08:54:08Z</time>
      </trkpt>
      <trkpt lat="46.5139090" lon="6.7762950">
        <ele>704.8390000</ele>
        <time>2012-07-28T08:54:12Z</time>
      </trkpt>
      <trkpt lat="46.5135880" lon="6.7760250">
        <ele>703.3240000</ele>
        <time>2012-07-28T08:54:19Z</time>
      </trkpt>
      <trkpt lat="46.5133950" lon="6.7759280">
        <ele>701.9480000</ele>
        <time>2012-07-28T08:54:23Z</time>
      </trkpt>
      <trkpt lat="46.5132250" lon="6.7758080">
        <ele>700.5210000</ele>
        <time>2012-07-28T08:54:27Z</time>
      </trkpt>
      <trkpt lat="46.5129830" lon="6.7756580">
        <ele>699.3740000</ele>
        <time>2012-07-28T08:54:32Z</time>
      </trkpt>
      <trkpt lat="46.5127700" lon="6.7755440">
        <ele>699.3400000</ele>
        <time>2012-07-28T08:54:37Z</time>
      </trkpt>
      <trkpt lat="46.5125690" lon="6.7754290">
        <ele>699.6860000</ele>
        <time>2012-07-28T08:54:42Z</time>
      </trkpt>
      <trkpt lat="46.5123900" lon="6.7753550">
        <ele>700.0260000</ele>
        <time>2012-07-28T08:54:47Z</time>
      </trkpt>
      <trkpt lat="46.5122580" lon="6.7752610">
        <ele>700.0180000</ele>
        <time>2012-07-28T08:54:50Z</time>
      </trkpt>
      <trkpt lat="46.5122060" lon="6.7752230">
        <ele>700.0390000</ele>
        <time>2012-07-28T08:54:51Z</time>
      </trkpt>
      <trkpt lat="46.5119890" lon="6.7750530">
        <ele>699.8690000</ele>
        <time>2012-07-28T08:54:56Z</time>
      </trkpt>
      <trkpt lat="46.5119520" lon="6.7750140">
        <ele>699.9010000</ele>
        <time>2012-07-28T08:54:57Z</time>
      </trkpt>
      <trkpt lat="46.5117620" lon="6.7748910">
        <ele>700.1580000</ele>
        <time>2012-07-28T08:55:02Z</time>
      </trkpt>
      <trkpt lat="46.5114770" lon="6.7747190">
        <ele>700.8720000</ele>
        <time>2012-07-28T08:55:09Z</time>
      </trkpt>
      <trkpt lat="46.5113410" lon="6.7746650">
        <ele>700.9110000</ele>
        <time>2012-07-28T08:55:12Z</time>
      </trkpt>
      <trkpt lat="46.5111890" lon="6.7744440">
        <ele>700.5160000</ele>
        <time>2012-07-28T08:55:16Z</time>
      </trkpt>
      <trkpt lat="46.5110730" lon="6.7742390">
        <ele>699.7020000</ele>
        <time>2012-07-28T08:55:19Z</time>
      </trkpt>
      <trkpt lat="46.5108350" lon="6.7739880">
        <ele>699.7890000</ele>
        <time>2012-07-28T08:55:25Z</time>
      </trkpt>
      <trkpt lat="46.5106330" lon="6.7737490">
        <ele>701.4140000</ele>
        <time>2012-07-28T08:55:31Z</time>
      </trkpt>
      <trkpt lat="46.5102460" lon="6.7734270">
        <ele>700.5880000</ele>
        <time>2012-07-28T08:55:39Z</time>
      </trkpt>
      <trkpt lat="46.5099140" lon="6.7731590">
        <ele>700.6160000</ele>
        <time>2012-07-28T08:55:47Z</time>
      </trkpt>
      <trkpt lat="46.5094640" lon="6.7728640">
        <ele>700.3970000</ele>
        <time>2012-07-28T08:55:57Z</time>
      </trkpt>
      <trkpt lat="46.5091190" lon="6.7726520">
        <ele>700.6990000</ele>
        <time>2012-07-28T08:56:05Z</time>
      </trkpt>
      <trkpt lat="46.5087470" lon="6.7724440">
        <ele>699.6920000</ele>
        <time>2012-07-28T08:56:12Z</time>
      </trkpt>
      <trkpt lat="46.5084490" lon="6.7722950">
        <ele>698.9390000</ele>
        <time>2012-07-28T08:56:18Z</time>
      </trkpt>
      <trkpt lat="46.5083290" lon="6.7721850">
        <ele>698.7660000</ele>
        <time>2012-07-28T08:56:22Z</time>
      </trkpt>
      <trkpt lat="46.5082880" lon="6.7721510">
        <ele>698.6380000</ele>
        <time>2012-07-28T08:56:23Z</time>
      </trkpt>
      <trkpt lat="46.5081490" lon="6.7720640">
        <ele>697.6920000</ele>
        <time>2012-07-28T08:56:27Z</time>
      </trkpt>
      <trkpt lat="46.5080290" lon="6.7719600">
        <ele>696.1540000</ele>
        <time>2012-07-28T08:56:32Z</time>
      </trkpt>
      <trkpt lat="46.5078040" lon="6.7718710">
        <ele>694.8330000</ele>
        <time>2012-07-28T08:56:37Z</time>
      </trkpt>
      <trkpt lat="46.5076010" lon="6.7717930">
        <ele>694.4700000</ele>
        <time>2012-07-28T08:56:42Z</time>
      </trkpt>
      <trkpt lat="46.5073280" lon="6.7718140">
        <ele>694.1590000</ele>
        <time>2012-07-28T08:56:48Z</time>
      </trkpt>
      <trkpt lat="46.5072080" lon="6.7717910">
        <ele>693.9000000</ele>
        <time>2012-07-28T08:56:50Z</time>
      </trkpt>
      <trkpt lat="46.5068610" lon="6.7716350">
        <ele>692.0670000</ele>
        <time>2012-07-28T08:56:55Z</time>
      </trkpt>
      <trkpt lat="46.5067180" lon="6.7715690">
        <ele>691.1510000</ele>
        <time>2012-07-28T08:56:57Z</time>
      </trkpt>
      <trkpt lat="46.5065670" lon="6.7714310">
        <ele>691.0120000</ele>
        <time>2012-07-28T08:57:01Z</time>
      </trkpt>
      <trkpt lat="46.5065490" lon="6.7713990">
        <ele>691.2680000</ele>
        <time>2012-07-28T08:57:02Z</time>
      </trkpt>
      <trkpt lat="46.5064510" lon="6.7713170">
        <ele>693.6430000</ele>
        <time>2012-07-28T08:57:07Z</time>
      </trkpt>
      <trkpt lat="46.5064380" lon="6.7713160">
        <ele>694.0350000</ele>
        <time>2012-07-28T08:57:08Z</time>
      </trkpt>
      <trkpt lat="46.5064210" lon="6.7712610">
        <ele>694.8090000</ele>
        <time>2012-07-28T08:57:12Z</time>
      </trkpt>
      <trkpt lat="46.5064350" lon="6.7711530">
        <ele>695.2710000</ele>
        <time>2012-07-28T08:57:16Z</time>
      </trkpt>
      <trkpt lat="46.5063760" lon="6.7711210">
        <ele>695.3120000</ele>
        <time>2012-07-28T08:57:20Z</time>
      </trkpt>
      <trkpt lat="46.5062810" lon="6.7711180">
        <ele>695.4710000</ele>
        <time>2012-07-28T08:57:25Z</time>
      </trkpt>
      <trkpt lat="46.5062560" lon="6.7711010">
        <ele>695.5690000</ele>
        <time>2012-07-28T08:57:33Z</time>
      </trkpt>
      <trkpt lat="46.5062480" lon="6.7710860">
        <ele>695.3600000</ele>
        <time>2012-07-28T08:57:43Z</time>
      </trkpt>
      <trkpt lat="46.5062520" lon="6.7710940">
        <ele>695.2930000</ele>
        <time>2012-07-28T08:57:48Z</time>
      </trkpt>
      <trkpt lat="46.5055170" lon="6.7741140">
        <ele>692.0480000</ele>
        <time>2012-07-28T09:26:56Z</time>
      </trkpt>
      <trkpt lat="46.5052420" lon="6.7743300">
        <ele>688.9230000</ele>
        <time>2012-07-28T09:27:05Z</time>
      </trkpt>
      <trkpt lat="46.5050040" lon="6.7745930">
        <ele>686.5860000</ele>
        <time>2012-07-28T09:27:14Z</time>
      </trkpt>
      <trkpt lat="46.5049200" lon="6.7748240">
        <ele>685.9360000</ele>
        <time>2012-07-28T09:27:20Z</time>
      </trkpt>
      <trkpt lat="46.5048830" lon="6.7751340">
        <ele>685.5040000</ele>
        <time>2012-07-28T09:27:26Z</time>
      </trkpt>
      <trkpt lat="46.5048140" lon="6.7755580">
        <ele>683.8980000</ele>
        <time>2012-07-28T09:27:32Z</time>
      </trkpt>
      <trkpt lat="46.5046490" lon="6.7760910">
        <ele>680.8120000</ele>
        <time>2012-07-28T09:27:38Z</time>
      </trkpt>
      <trkpt lat="46.5046090" lon="6.7761820">
        <ele>680.2310000</ele>
        <time>2012-07-28T09:27:39Z</time>
      </trkpt>
      <trkpt lat="46.5043020" lon="6.7765710">
        <ele>676.7380000</ele>
        <time>2012-07-28T09:27:44Z</time>
      </trkpt>
      <trkpt lat="46.5038170" lon="6.7769570">
        <ele>672.1650000</ele>
        <time>2012-07-28T09:27:50Z</time>
      </trkpt>
      <trkpt lat="46.5037390" lon="6.7770260">
        <ele>671.4240000</ele>
        <time>2012-07-28T09:27:51Z</time>
      </trkpt>
      <trkpt lat="46.5034900" lon="6.7770270">
        <ele>669.7930000</ele>
        <time>2012-07-28T09:27:54Z</time>
      </trkpt>
      <trkpt lat="46.5030910" lon="6.7767400">
        <ele>666.9560000</ele>
        <time>2012-07-28T09:27:59Z</time>
      </trkpt>
      <trkpt lat="46.5026510" lon="6.7764130">
        <ele>663.3620000</ele>
        <time>2012-07-28T09:28:04Z</time>
      </trkpt>
      <trkpt lat="46.5023740" lon="6.7762290">
        <ele>660.7910000</ele>
        <time>2012-07-28T09:28:07Z</time>
      </trkpt>
      <trkpt lat="46.5021490" lon="6.7759570">
        <ele>658.8420000</ele>
        <time>2012-07-28T09:28:10Z</time>
      </trkpt>
      <trkpt lat="46.5020500" lon="6.7756290">
        <ele>657.4930000</ele>
        <time>2012-07-28T09:28:13Z</time>
      </trkpt>
      <trkpt lat="46.5018940" lon="6.7753840">
        <ele>656.0560000</ele>
        <time>2012-07-28T09:28:16Z</time>
      </trkpt>
      <trkpt lat="46.5016990" lon="6.7753340">
        <ele>654.5780000</ele>
        <time>2012-07-28T09:28:18Z</time>
      </trkpt>
      <trkpt lat="46.5014990" lon="6.7753150">
        <ele>653.7470000</ele>
        <time>2012-07-28T09:28:20Z</time>
      </trkpt>
      <trkpt lat="46.5011370" lon="6.7754090">
        <ele>650.9690000</ele>
        <time>2012-07-28T09:28:24Z</time>
      </trkpt>
      <trkpt lat="46.5008680" lon="6.7755180">
        <ele>649.3280000</ele>
        <time>2012-07-28T09:28:27Z</time>
      </trkpt>
      <trkpt lat="46.5007110" lon="6.7757310">
        <ele>646.5100000</ele>
        <time>2012-07-28T09:28:30Z</time>
      </trkpt>
      <trkpt lat="46.5008140" lon="6.7759200">
        <ele>644.1310000</ele>
        <time>2012-07-28T09:28:32Z</time>
      </trkpt>
      <trkpt lat="46.5009670" lon="6.7762660">
        <ele>640.4510000</ele>
        <time>2012-07-28T09:28:35Z</time>
      </trkpt>
      <trkpt lat="46.5009360" lon="6.7766180">
        <ele>638.9450000</ele>
        <time>2012-07-28T09:28:38Z</time>
      </trkpt>
      <trkpt lat="46.5007540" lon="6.7767790">
        <ele>640.0640000</ele>
        <time>2012-07-28T09:28:41Z</time>
      </trkpt>
      <trkpt lat="46.5004870" lon="6.7769230">
        <ele>640.6970000</ele>
        <time>2012-07-28T09:28:45Z</time>
      </trkpt>
      <trkpt lat="46.5003010" lon="6.7770350">
        <ele>640.1140000</ele>
        <time>2012-07-28T09:28:48Z</time>
      </trkpt>
      <trkpt lat="46.5002060" lon="6.7771610">
        <ele>640.2190000</ele>
        <time>2012-07-28T09:28:50Z</time>
      </trkpt>
      <trkpt lat="46.5001810" lon="6.7772500">
        <ele>640.1940000</ele>
        <time>2012-07-28T09:28:51Z</time>
      </trkpt>
      <trkpt lat="46.5001800" lon="6.7775360">
        <ele>639.9740000</ele>
        <time>2012-07-28T09:28:54Z</time>
      </trkpt>
      <trkpt lat="46.5002680" lon="6.7777280">
        <ele>638.9610000</ele>
        <time>2012-07-28T09:28:57Z</time>
      </trkpt>
      <trkpt lat="46.5003010" lon="6.7779010">
        <ele>638.4540000</ele>
        <time>2012-07-28T09:29:00Z</time>
      </trkpt>
      <trkpt lat="46.5002970" lon="6.7779690">
        <ele>638.3910000</ele>
        <time>2012-07-28T09:29:01Z</time>
      </trkpt>
      <trkpt lat="46.5002590" lon="6.7783150">
        <ele>639.5430000</ele>
        <time>2012-07-28T09:29:07Z</time>
      </trkpt>
      <trkpt lat="46.5002320" lon="6.7784730">
        <ele>639.8380000</ele>
        <time>2012-07-28T09:29:10Z</time>
      </trkpt>
      <trkpt lat="46.5001970" lon="6.7789300">
        <ele>641.0410000</ele>
        <time>2012-07-28T09:29:18Z</time>
      </trkpt>
      <trkpt lat="46.5001920" lon="6.7793280">
        <ele>642.5220000</ele>
        <time>2012-07-28T09:29:25Z</time>
      </trkpt>
      <trkpt lat="46.5001980" lon="6.7795940">
        <ele>643.4100000</ele>
        <time>2012-07-28T09:29:30Z</time>
      </trkpt>
      <trkpt lat="46.5002010" lon="6.7798540">
        <ele>644.1200000</ele>
        <time>2012-07-28T09:29:35Z</time>
      </trkpt>
      <trkpt lat="46.5001810" lon="6.7802180">
        <ele>645.4280000</ele>
        <time>2012-07-28T09:29:42Z</time>
      </trkpt>
      <trkpt lat="46.5001400" lon="6.7807060">
        <ele>647.5420000</ele>
        <time>2012-07-28T09:29:52Z</time>
      </trkpt>
      <trkpt lat="46.5000720" lon="6.7809960">
        <ele>648.8050000</ele>
        <time>2012-07-28T09:29:59Z</time>
      </trkpt>
      <trkpt lat="46.5000400" lon="6.7811750">
        <ele>650.5570000</ele>
        <time>2012-07-28T09:30:05Z</time>
      </trkpt>
      <trkpt lat="46.5000290" lon="6.7814730">
        <ele>652.8510000</ele>
        <time>2012-07-28T09:30:15Z</time>
      </trkpt>
      <trkpt lat="46.4999990" lon="6.7817420">
        <ele>654.8590000</ele>
        <time>2012-07-28T09:30:24Z</time>
      </trkpt>
      <trkpt lat="46.4999320" lon="6.7818530">
        <ele>655.8330000</ele>
        <time>2012-07-28T09:30:29Z</time>
      </trkpt>
      <trkpt lat="46.4997970" lon="6.7819210">
        <ele>657.1120000</ele>
        <time>2012-07-28T09:30:36Z</time>
      </trkpt>
      <trkpt lat="46.4996560" lon="6.7820400">
        <ele>658.1860000</ele>
        <time>2012-07-28T09:30:43Z</time>
      </trkpt>
      <trkpt lat="46.4995400" lon="6.7821490">
        <ele>659.1760000</ele>
        <time>2012-07-28T09:30:49Z</time>
      </trkpt>
      <trkpt lat="46.4994320" lon="6.7822260">
        <ele>660.4130000</ele>
        <time>2012-07-28T09:30:55Z</time>
      </trkpt>
      <trkpt lat="46.4993000" lon="6.7823870">
        <ele>661.9300000</ele>
        <time>2012-07-28T09:31:03Z</time>
      </trkpt>
      <trkpt lat="46.4992480" lon="6.7825710">
        <ele>662.4430000</ele>
        <time>2012-07-28T09:31:07Z</time>
      </trkpt>
      <trkpt lat="46.4991930" lon="6.7829180">
        <ele>661.6040000</ele>
        <time>2012-07-28T09:31:11Z</time>
      </trkpt>
      <trkpt lat="46.4991640" lon="6.7831310">
        <ele>660.7100000</ele>
        <time>2012-07-28T09:31:13Z</time>
      </trkpt>
      <trkpt lat="46.4991910" lon="6.7838580">
        <ele>657.7080000</ele>
        <time>2012-07-28T09:31:19Z</time>
      </trkpt>
      <trkpt lat="46.4992690" lon="6.7844280">
        <ele>655.4090000</ele>
        <time>2012-07-28T09:31:24Z</time>
      </trkpt>
      <trkpt lat="46.4993330" lon="6.7850050">
        <ele>654.8960000</ele>
        <time>2012-07-28T09:31:30Z</time>
      </trkpt>
      <trkpt lat="46.4993460" lon="6.7850930">
        <ele>654.8600000</ele>
        <time>2012-07-28T09:31:31Z</time>
      </trkpt>
      <trkpt lat="46.4993800" lon="6.7854340">
        <ele>655.1810000</ele>
        <time>2012-07-28T09:31:35Z</time>
      </trkpt>
      <trkpt lat="46.4994640" lon="6.7858240">
        <ele>656.3140000</ele>
        <time>2012-07-28T09:31:41Z</time>
      </trkpt>
      <trkpt lat="46.4995490" lon="6.7861330">
        <ele>658.8120000</ele>
        <time>2012-07-28T09:31:48Z</time>
      </trkpt>
      <trkpt lat="46.4996180" lon="6.7863370">
        <ele>661.3850000</ele>
        <time>2012-07-28T09:31:55Z</time>
      </trkpt>
      <trkpt lat="46.4996830" lon="6.7865730">
        <ele>664.3480000</ele>
        <time>2012-07-28T09:32:05Z</time>
      </trkpt>
      <trkpt lat="46.4997640" lon="6.7868060">
        <ele>666.0630000</ele>
        <time>2012-07-28T09:32:13Z</time>
      </trkpt>
      <trkpt lat="46.4998790" lon="6.7870060">
        <ele>666.3100000</ele>
        <time>2012-07-28T09:32:19Z</time>
      </trkpt>
      <trkpt lat="46.5001100" lon="6.7873130">
        <ele>666.9180000</ele>
        <time>2012-07-28T09:32:27Z</time>
      </trkpt>
      <trkpt lat="46.5003650" lon="6.7877150">
        <ele>667.2400000</ele>
        <time>2012-07-28T09:32:36Z</time>
      </trkpt>
      <trkpt lat="46.5005850" lon="6.7880080">
        <ele>668.4470000</ele>
        <time>2012-07-28T09:32:44Z</time>
      </trkpt>
      <trkpt lat="46.5007670" lon="6.7881560">
        <ele>669.1640000</ele>
        <time>2012-07-28T09:32:49Z</time>
      </trkpt>
      <trkpt lat="46.5009840" lon="6.7883140">
        <ele>669.6410000</ele>
        <time>2012-07-28T09:32:55Z</time>
      </trkpt>
      <trkpt lat="46.5012780" lon="6.7885160">
        <ele>670.5780000</ele>
        <time>2012-07-28T09:33:03Z</time>
      </trkpt>
      <trkpt lat="46.5015690" lon="6.7887430">
        <ele>671.3220000</ele>
        <time>2012-07-28T09:33:10Z</time>
      </trkpt>
      <trkpt lat="46.5018230" lon="6.7889330">
        <ele>670.7910000</ele>
        <time>2012-07-28T09:33:15Z</time>
      </trkpt>
      <trkpt lat="46.5019170" lon="6.7891280">
        <ele>670.2110000</ele>
        <time>2012-07-28T09:33:18Z</time>
      </trkpt>
      <trkpt lat="46.5018710" lon="6.7893050">
        <ele>670.0070000</ele>
        <time>2012-07-28T09:33:20Z</time>
      </trkpt>
      <trkpt lat="46.5017480" lon="6.7898090">
        <ele>669.3620000</ele>
        <time>2012-07-28T09:33:26Z</time>
      </trkpt>
      <trkpt lat="46.5017310" lon="6.7901490">
        <ele>670.5450000</ele>
        <time>2012-07-28T09:33:31Z</time>
      </trkpt>
      <trkpt lat="46.5016650" lon="6.7903310">
        <ele>672.2620000</ele>
        <time>2012-07-28T09:33:35Z</time>
      </trkpt>
      <trkpt lat="46.5015300" lon="6.7905370">
        <ele>675.1570000</ele>
        <time>2012-07-28T09:33:42Z</time>
      </trkpt>
      <trkpt lat="46.5015020" lon="6.7907550">
        <ele>676.8260000</ele>
        <time>2012-07-28T09:33:48Z</time>
      </trkpt>
      <trkpt lat="46.5015590" lon="6.7910620">
        <ele>678.9530000</ele>
        <time>2012-07-28T09:33:56Z</time>
      </trkpt>
      <trkpt lat="46.5015910" lon="6.7914150">
        <ele>681.3730000</ele>
        <time>2012-07-28T09:34:05Z</time>
      </trkpt>
      <trkpt lat="46.5015940" lon="6.7917950">
        <ele>682.3090000</ele>
        <time>2012-07-28T09:34:13Z</time>
      </trkpt>
      <trkpt lat="46.5015920" lon="6.7923040">
        <ele>682.3290000</ele>
        <time>2012-07-28T09:34:21Z</time>
      </trkpt>
      <trkpt lat="46.5016430" lon="6.7928020">
        <ele>683.1980000</ele>
        <time>2012-07-28T09:34:29Z</time>
      </trkpt>
      <trkpt lat="46.5017040" lon="6.7932010">
        <ele>684.9970000</ele>
        <time>2012-07-28T09:34:37Z</time>
      </trkpt>
      <trkpt lat="46.5017650" lon="6.7935460">
        <ele>687.7770000</ele>
        <time>2012-07-28T09:34:46Z</time>
      </trkpt>
      <trkpt lat="46.5017670" lon="6.7935800">
        <ele>688.0400000</ele>
        <time>2012-07-28T09:34:47Z</time>
      </trkpt>
      <trkpt lat="46.5016800" lon="6.7936670">
        <ele>689.6920000</ele>
        <time>2012-07-28T09:34:52Z</time>
      </trkpt>
      <trkpt lat="46.5016260" lon="6.7936360">
        <ele>690.5680000</ele>
        <time>2012-07-28T09:34:54Z</time>
      </trkpt>
      <trkpt lat="46.5012630" lon="6.7933310">
        <ele>692.7130000</ele>
        <time>2012-07-28T09:35:05Z</time>
      </trkpt>
      <trkpt lat="46.5009590" lon="6.7930860">
        <ele>692.2630000</ele>
        <time>2012-07-28T09:35:12Z</time>
      </trkpt>
      <trkpt lat="46.5006100" lon="6.7928610">
        <ele>691.2000000</ele>
        <time>2012-07-28T09:35:18Z</time>
      </trkpt>
      <trkpt lat="46.5004280" lon="6.7927350">
        <ele>690.4390000</ele>
        <time>2012-07-28T09:35:21Z</time>
      </trkpt>
      <trkpt lat="46.5000750" lon="6.7926840">
        <ele>689.4840000</ele>
        <time>2012-07-28T09:35:26Z</time>
      </trkpt>
      <trkpt lat="46.4999470" lon="6.7927770">
        <ele>689.0560000</ele>
        <time>2012-07-28T09:35:28Z</time>
      </trkpt>
      <trkpt lat="46.4997790" lon="6.7929600">
        <ele>688.5460000</ele>
        <time>2012-07-28T09:35:31Z</time>
      </trkpt>
      <trkpt lat="46.4994180" lon="6.7931540">
        <ele>688.9830000</ele>
        <time>2012-07-28T09:35:37Z</time>
      </trkpt>
      <trkpt lat="46.4990610" lon="6.7932490">
        <ele>690.1090000</ele>
        <time>2012-07-28T09:35:44Z</time>
      </trkpt>
      <trkpt lat="46.4989340" lon="6.7933860">
        <ele>690.7460000</ele>
        <time>2012-07-28T09:35:48Z</time>
      </trkpt>
      <trkpt lat="46.4989180" lon="6.7935750">
        <ele>691.2580000</ele>
        <time>2012-07-28T09:35:51Z</time>
      </trkpt>
      <trkpt lat="46.4988450" lon="6.7944120">
        <ele>692.2130000</ele>
        <time>2012-07-28T09:36:03Z</time>
      </trkpt>
      <trkpt lat="46.4987960" lon="6.7947470">
        <ele>693.1820000</ele>
        <time>2012-07-28T09:36:09Z</time>
      </trkpt>
      <trkpt lat="46.4987120" lon="6.7950370">
        <ele>694.7890000</ele>
        <time>2012-07-28T09:36:15Z</time>
      </trkpt>
      <trkpt lat="46.4985390" lon="6.7952470">
        <ele>696.2110000</ele>
        <time>2012-07-28T09:36:21Z</time>
      </trkpt>
      <trkpt lat="46.4984200" lon="6.7954630">
        <ele>697.0870000</ele>
        <time>2012-07-28T09:36:26Z</time>
      </trkpt>
      <trkpt lat="46.4982230" lon="6.7959360">
        <ele>699.0790000</ele>
        <time>2012-07-28T09:36:37Z</time>
      </trkpt>
      <trkpt lat="46.4980630" lon="6.7962180">
        <ele>700.5760000</ele>
        <time>2012-07-28T09:36:45Z</time>
      </trkpt>
      <trkpt lat="46.4978740" lon="6.7962990">
        <ele>701.9740000</ele>
        <time>2012-07-28T09:36:51Z</time>
      </trkpt>
      <trkpt lat="46.4977170" lon="6.7963330">
        <ele>703.4090000</ele>
        <time>2012-07-28T09:36:57Z</time>
      </trkpt>
      <trkpt lat="46.4975350" lon="6.7963280">
        <ele>705.7900000</ele>
        <time>2012-07-28T09:37:05Z</time>
      </trkpt>
      <trkpt lat="46.4973430" lon="6.7963590">
        <ele>707.7230000</ele>
        <time>2012-07-28T09:37:14Z</time>
      </trkpt>
      <trkpt lat="46.4971550" lon="6.7964130">
        <ele>709.0680000</ele>
        <time>2012-07-28T09:37:23Z</time>
      </trkpt>
      <trkpt lat="46.4969910" lon="6.7963790">
        <ele>709.9090000</ele>
        <time>2012-07-28T09:37:31Z</time>
      </trkpt>
      <trkpt lat="46.4968410" lon="6.7963280">
        <ele>711.3530000</ele>
        <time>2012-07-28T09:37:39Z</time>
      </trkpt>
      <trkpt lat="46.4966790" lon="6.7962830">
        <ele>713.3210000</ele>
        <time>2012-07-28T09:37:48Z</time>
      </trkpt>
      <trkpt lat="46.4964900" lon="6.7962050">
        <ele>715.6330000</ele>
        <time>2012-07-28T09:37:58Z</time>
      </trkpt>
      <trkpt lat="46.4963160" lon="6.7961290">
        <ele>716.8140000</ele>
        <time>2012-07-28T09:38:06Z</time>
      </trkpt>
      <trkpt lat="46.4961450" lon="6.7961460">
        <ele>717.3040000</ele>
        <time>2012-07-28T09:38:13Z</time>
      </trkpt>
      <trkpt lat="46.4960120" lon="6.7963320">
        <ele>717.7300000</ele>
        <time>2012-07-28T09:38:19Z</time>
      </trkpt>
      <trkpt lat="46.4958460" lon="6.7964980">
        <ele>718.3270000</ele>
        <time>2012-07-28T09:38:26Z</time>
      </trkpt>
      <trkpt lat="46.4956360" lon="6.7965050">
        <ele>718.3140000</ele>
        <time>2012-07-28T09:38:33Z</time>
      </trkpt>
      <trkpt lat="46.4953440" lon="6.7964840">
        <ele>719.1780000</ele>
        <time>2012-07-28T09:38:43Z</time>
      </trkpt>
      <trkpt lat="46.4951210" lon="6.7964340">
        <ele>720.4720000</ele>
        <time>2012-07-28T09:38:51Z</time>
      </trkpt>
      <trkpt lat="46.4949060" lon="6.7964050">
        <ele>721.6870000</ele>
        <time>2012-07-28T09:38:59Z</time>
      </trkpt>
      <trkpt lat="46.4947020" lon="6.7964480">
        <ele>722.3530000</ele>
        <time>2012-07-28T09:39:06Z</time>
      </trkpt>
      <trkpt lat="46.4944760" lon="6.7964270">
        <ele>723.3280000</ele>
        <time>2012-07-28T09:39:14Z</time>
      </trkpt>
      <trkpt lat="46.4941830" lon="6.7963220">
        <ele>723.8890000</ele>
        <time>2012-07-28T09:39:23Z</time>
      </trkpt>
      <trkpt lat="46.4939300" lon="6.7962740">
        <ele>724.3680000</ele>
        <time>2012-07-28T09:39:32Z</time>
      </trkpt>
      <trkpt lat="46.4937340" lon="6.7962740">
        <ele>725.2790000</ele>
        <time>2012-07-28T09:39:39Z</time>
      </trkpt>
      <trkpt lat="46.4935700" lon="6.7961980">
        <ele>726.4330000</ele>
        <time>2012-07-28T09:39:45Z</time>
      </trkpt>
      <trkpt lat="46.4935320" lon="6.7961770">
        <ele>726.5210000</ele>
        <time>2012-07-28T09:39:46Z</time>
      </trkpt>
      <trkpt lat="46.4931670" lon="6.7960360">
        <ele>726.9400000</ele>
        <time>2012-07-28T09:39:54Z</time>
      </trkpt>
      <trkpt lat="46.4929370" lon="6.7959920">
        <ele>727.3260000</ele>
        <time>2012-07-28T09:39:59Z</time>
      </trkpt>
      <trkpt lat="46.4928450" lon="6.7959800">
        <ele>727.4740000</ele>
        <time>2012-07-28T09:40:01Z</time>
      </trkpt>
      <trkpt lat="46.4925640" lon="6.7959230">
        <ele>727.8350000</ele>
        <time>2012-07-28T09:40:07Z</time>
      </trkpt>
      <trkpt lat="46.4922780" lon="6.7958950">
        <ele>727.9230000</ele>
        <time>2012-07-28T09:40:13Z</time>
      </trkpt>
      <trkpt lat="46.4922360" lon="6.7958940">
        <ele>728.0290000</ele>
        <time>2012-07-28T09:40:14Z</time>
      </trkpt>
      <trkpt lat="46.4921210" lon="6.7960160">
        <ele>728.5190000</ele>
        <time>2012-07-28T09:40:18Z</time>
      </trkpt>
      <trkpt lat="46.4920570" lon="6.7964090">
        <ele>730.8970000</ele>
        <time>2012-07-28T09:40:26Z</time>
      </trkpt>
      <trkpt lat="46.4920530" lon="6.7967520">
        <ele>732.2570000</ele>
        <time>2012-07-28T09:40:33Z</time>
      </trkpt>
      <trkpt lat="46.4920830" lon="6.7969280">
        <ele>734.0880000</ele>
        <time>2012-07-28T09:40:39Z</time>
      </trkpt>
      <trkpt lat="46.4921370" lon="6.7971150">
        <ele>735.6670000</ele>
        <time>2012-07-28T09:40:45Z</time>
      </trkpt>
      <trkpt lat="46.4921680" lon="6.7972960">
        <ele>737.1740000</ele>
        <time>2012-07-28T09:40:51Z</time>
      </trkpt>
      <trkpt lat="46.4920850" lon="6.7973880">
        <ele>738.2870000</ele>
        <time>2012-07-28T09:40:55Z</time>
      </trkpt>
      <trkpt lat="46.4918790" lon="6.7976220">
        <ele>739.9520000</ele>
        <time>2012-07-28T09:41:04Z</time>
      </trkpt>
      <trkpt lat="46.4917120" lon="6.7978140">
        <ele>740.9260000</ele>
        <time>2012-07-28T09:41:11Z</time>
      </trkpt>
      <trkpt lat="46.4914520" lon="6.7980910">
        <ele>742.1320000</ele>
        <time>2012-07-28T09:41:22Z</time>
      </trkpt>
      <trkpt lat="46.4911940" lon="6.7983580">
        <ele>743.8390000</ele>
        <time>2012-07-28T09:41:33Z</time>
      </trkpt>
      <trkpt lat="46.4909890" lon="6.7984500">
        <ele>745.6680000</ele>
        <time>2012-07-28T09:41:41Z</time>
      </trkpt>
      <trkpt lat="46.4907880" lon="6.7984120">
        <ele>747.0640000</ele>
        <time>2012-07-28T09:41:48Z</time>
      </trkpt>
      <trkpt lat="46.4904770" lon="6.7983300">
        <ele>748.0030000</ele>
        <time>2012-07-28T09:41:57Z</time>
      </trkpt>
      <trkpt lat="46.4901290" lon="6.7983310">
        <ele>748.3270000</ele>
        <time>2012-07-28T09:42:05Z</time>
      </trkpt>
      <trkpt lat="46.4896330" lon="6.7983430">
        <ele>747.7070000</ele>
        <time>2012-07-28T09:42:14Z</time>
      </trkpt>
      <trkpt lat="46.4891780" lon="6.7984040">
        <ele>746.7270000</ele>
        <time>2012-07-28T09:42:21Z</time>
      </trkpt>
      <trkpt lat="46.4886210" lon="6.7984600">
        <ele>746.0240000</ele>
        <time>2012-07-28T09:42:29Z</time>
      </trkpt>
      <trkpt lat="46.4881180" lon="6.7984840">
        <ele>745.1940000</ele>
        <time>2012-07-28T09:42:36Z</time>
      </trkpt>
      <trkpt lat="46.4878240" lon="6.7984860">
        <ele>744.6240000</ele>
        <time>2012-07-28T09:42:40Z</time>
      </trkpt>
      <trkpt lat="46.4871040" lon="6.7985000">
        <ele>743.6800000</ele>
        <time>2012-07-28T09:42:50Z</time>
      </trkpt>
      <trkpt lat="46.4866180" lon="6.7986040">
        <ele>742.9500000</ele>
        <time>2012-07-28T09:42:57Z</time>
      </trkpt>
      <trkpt lat="46.4864710" lon="6.7986390">
        <ele>742.6500000</ele>
        <time>2012-07-28T09:42:59Z</time>
      </trkpt>
      <trkpt lat="46.4861980" lon="6.7988760">
        <ele>741.3040000</ele>
        <time>2012-07-28T09:43:03Z</time>
      </trkpt>
      <trkpt lat="46.4861350" lon="6.7991310">
        <ele>740.1680000</ele>
        <time>2012-07-28T09:43:05Z</time>
      </trkpt>
      <trkpt lat="46.4860790" lon="6.7995680">
        <ele>737.8880000</ele>
        <time>2012-07-28T09:43:08Z</time>
      </trkpt>
      <trkpt lat="46.4860120" lon="6.8001490">
        <ele>735.5260000</ele>
        <time>2012-07-28T09:43:12Z</time>
      </trkpt>
      <trkpt lat="46.4859760" lon="6.8004040">
        <ele>734.3440000</ele>
        <time>2012-07-28T09:43:14Z</time>
      </trkpt>
      <trkpt lat="46.4860540" lon="6.8006540">
        <ele>732.8520000</ele>
        <time>2012-07-28T09:43:17Z</time>
      </trkpt>
      <trkpt lat="46.4861600" lon="6.8006980">
        <ele>732.2940000</ele>
        <time>2012-07-28T09:43:19Z</time>
      </trkpt>
      <trkpt lat="46.4864810" lon="6.8007850">
        <ele>732.6310000</ele>
        <time>2012-07-28T09:43:25Z</time>
      </trkpt>
      <trkpt lat="46.4867420" lon="6.8009310">
        <ele>734.7320000</ele>
        <time>2012-07-28T09:43:32Z</time>
      </trkpt>
      <trkpt lat="46.4869200" lon="6.8010640">
        <ele>736.8370000</ele>
        <time>2012-07-28T09:43:39Z</time>
      </trkpt>
      <trkpt lat="46.4870120" lon="6.8011610">
        <ele>738.0420000</ele>
        <time>2012-07-28T09:43:43Z</time>
      </trkpt>
      <trkpt lat="46.4871310" lon="6.8013680">
        <ele>739.5980000</ele>
        <time>2012-07-28T09:43:50Z</time>
      </trkpt>
      <trkpt lat="46.4871380" lon="6.8015720">
        <ele>740.9950000</ele>
        <time>2012-07-28T09:43:56Z</time>
      </trkpt>
      <trkpt lat="46.4871320" lon="6.8017260">
        <ele>742.5140000</ele>
        <time>2012-07-28T09:44:02Z</time>
      </trkpt>
      <trkpt lat="46.4871640" lon="6.8018380">
        <ele>743.8980000</ele>
        <time>2012-07-28T09:44:08Z</time>
      </trkpt>
      <trkpt lat="46.4872800" lon="6.8019310">
        <ele>746.3940000</ele>
        <time>2012-07-28T09:44:18Z</time>
      </trkpt>
      <trkpt lat="46.4874370" lon="6.8019140">
        <ele>749.1700000</ele>
        <time>2012-07-28T09:44:29Z</time>
      </trkpt>
      <trkpt lat="46.4875820" lon="6.8018540">
        <ele>750.7720000</ele>
        <time>2012-07-28T09:44:38Z</time>
      </trkpt>
      <trkpt lat="46.4877530" lon="6.8018000">
        <ele>752.4550000</ele>
        <time>2012-07-28T09:44:48Z</time>
      </trkpt>
      <trkpt lat="46.4879550" lon="6.8017660">
        <ele>754.8080000</ele>
        <time>2012-07-28T09:45:00Z</time>
      </trkpt>
      <trkpt lat="46.4881890" lon="6.8017750">
        <ele>757.3210000</ele>
        <time>2012-07-28T09:45:13Z</time>
      </trkpt>
      <trkpt lat="46.4883860" lon="6.8017500">
        <ele>759.5980000</ele>
        <time>2012-07-28T09:45:24Z</time>
      </trkpt>
      <trkpt lat="46.4885500" lon="6.8017240">
        <ele>761.4750000</ele>
        <time>2012-07-28T09:45:33Z</time>
      </trkpt>
      <trkpt lat="46.4887630" lon="6.8016970">
        <ele>763.4600000</ele>
        <time>2012-07-28T09:45:43Z</time>
      </trkpt>
      <trkpt lat="46.4889580" lon="6.8016870">
        <ele>765.0230000</ele>
        <time>2012-07-28T09:45:52Z</time>
      </trkpt>
      <trkpt lat="46.4891930" lon="6.8016610">
        <ele>766.6500000</ele>
        <time>2012-07-28T09:46:02Z</time>
      </trkpt>
      <trkpt lat="46.4894240" lon="6.8016600">
        <ele>767.3880000</ele>
        <time>2012-07-28T09:46:10Z</time>
      </trkpt>
      <trkpt lat="46.4896710" lon="6.8017730">
        <ele>768.4350000</ele>
        <time>2012-07-28T09:46:18Z</time>
      </trkpt>
      <trkpt lat="46.4899420" lon="6.8020300">
        <ele>768.9950000</ele>
        <time>2012-07-28T09:46:27Z</time>
      </trkpt>
      <trkpt lat="46.4901660" lon="6.8022520">
        <ele>770.4610000</ele>
        <time>2012-07-28T09:46:36Z</time>
      </trkpt>
      <trkpt lat="46.4903630" lon="6.8025380">
        <ele>772.7540000</ele>
        <time>2012-07-28T09:46:46Z</time>
      </trkpt>
      <trkpt lat="46.4904860" lon="6.8027550">
        <ele>774.5100000</ele>
        <time>2012-07-28T09:46:54Z</time>
      </trkpt>
      <trkpt lat="46.4905850" lon="6.8029390">
        <ele>776.4780000</ele>
        <time>2012-07-28T09:47:02Z</time>
      </trkpt>
      <trkpt lat="46.4906970" lon="6.8030490">
        <ele>778.8460000</ele>
        <time>2012-07-28T09:47:10Z</time>
      </trkpt>
      <trkpt lat="46.4908310" lon="6.8031720">
        <ele>781.5810000</ele>
        <time>2012-07-28T09:47:20Z</time>
      </trkpt>
      <trkpt lat="46.4909600" lon="6.8033010">
        <ele>783.9900000</ele>
        <time>2012-07-28T09:47:30Z</time>
      </trkpt>
      <trkpt lat="46.4910650" lon="6.8034560">
        <ele>787.3100000</ele>
        <time>2012-07-28T09:47:41Z</time>
      </trkpt>
      <trkpt lat="46.4911810" lon="6.8035990">
        <ele>789.8130000</ele>
        <time>2012-07-28T09:47:50Z</time>
      </trkpt>
      <trkpt lat="46.4913420" lon="6.8037400">
        <ele>790.9490000</ele>
        <time>2012-07-28T09:47:59Z</time>
      </trkpt>
      <trkpt lat="46.4915000" lon="6.8038820">
        <ele>792.2830000</ele>
        <time>2012-07-28T09:48:08Z</time>
      </trkpt>
      <trkpt lat="46.4916230" lon="6.8040480">
        <ele>793.6810000</ele>
        <time>2012-07-28T09:48:17Z</time>
      </trkpt>
      <trkpt lat="46.4916980" lon="6.8042170">
        <ele>795.8420000</ele>
        <time>2012-07-28T09:48:26Z</time>
      </trkpt>
      <trkpt lat="46.4917350" lon="6.8043470">
        <ele>798.2180000</ele>
        <time>2012-07-28T09:48:35Z</time>
      </trkpt>
      <trkpt lat="46.4918090" lon="6.8044740">
        <ele>800.8540000</ele>
        <time>2012-07-28T09:48:44Z</time>
      </trkpt>
      <trkpt lat="46.4918900" lon="6.8045770">
        <ele>803.1570000</ele>
        <time>2012-07-28T09:48:52Z</time>
      </trkpt>
      <trkpt lat="46.4920010" lon="6.8047330">
        <ele>805.5000000</ele>
        <time>2012-07-28T09:49:02Z</time>
      </trkpt>
      <trkpt lat="46.4920860" lon="6.8048980">
        <ele>806.6720000</ele>
        <time>2012-07-28T09:49:10Z</time>
      </trkpt>
      <trkpt lat="46.4921900" lon="6.8050960">
        <ele>807.8890000</ele>
        <time>2012-07-28T09:49:19Z</time>
      </trkpt>
      <trkpt lat="46.4922090" lon="6.8051090">
        <ele>807.9720000</ele>
        <time>2012-07-28T09:49:20Z</time>
      </trkpt>
      <trkpt lat="46.4924030" lon="6.8050760">
        <ele>809.5670000</ele>
        <time>2012-07-28T09:49:29Z</time>
      </trkpt>
      <trkpt lat="46.4926270" lon="6.8049990">
        <ele>810.9430000</ele>
        <time>2012-07-28T09:49:39Z</time>
      </trkpt>
      <trkpt lat="46.4928400" lon="6.8049630">
        <ele>812.1780000</ele>
        <time>2012-07-28T09:49:48Z</time>
      </trkpt>
      <trkpt lat="46.4930240" lon="6.8050200">
        <ele>812.5360000</ele>
        <time>2012-07-28T09:49:54Z</time>
      </trkpt>
      <trkpt lat="46.4932660" lon="6.8051690">
        <ele>812.5390000</ele>
        <time>2012-07-28T09:50:02Z</time>
      </trkpt>
      <trkpt lat="46.4934280" lon="6.8053900">
        <ele>812.9680000</ele>
        <time>2012-07-28T09:50:09Z</time>
      </trkpt>
      <trkpt lat="46.4935690" lon="6.8056960">
        <ele>814.7430000</ele>
        <time>2012-07-28T09:50:18Z</time>
      </trkpt>
      <trkpt lat="46.4937060" lon="6.8059340">
        <ele>817.0730000</ele>
        <time>2012-07-28T09:50:27Z</time>
      </trkpt>
      <trkpt lat="46.4937950" lon="6.8060140">
        <ele>818.7810000</ele>
        <time>2012-07-28T09:50:33Z</time>
      </trkpt>
      <trkpt lat="46.4938130" lon="6.8059980">
        <ele>819.6520000</ele>
        <time>2012-07-28T09:50:42Z</time>
      </trkpt>
      <trkpt lat="46.4938070" lon="6.8059900">
        <ele>819.7920000</ele>
        <time>2012-07-28T09:50:45Z</time>
      </trkpt>
      <trkpt lat="46.4938220" lon="6.8059840">
        <ele>819.5010000</ele>
        <time>2012-07-28T09:51:00Z</time>
      </trkpt>
      <trkpt lat="46.4938830" lon="6.8059970">
        <ele>819.8480000</ele>
        <time>2012-07-28T09:51:04Z</time>
      </trkpt>
      <trkpt lat="46.4941080" lon="6.8060330">
        <ele>821.0840000</ele>
        <time>2012-07-28T09:51:12Z</time>
      </trkpt>
      <trkpt lat="46.4943130" lon="6.8060430">
        <ele>822.5000000</ele>
        <time>2012-07-28T09:51:20Z</time>
      </trkpt>
      <trkpt lat="46.4944980" lon="6.8060440">
        <ele>823.2450000</ele>
        <time>2012-07-28T09:51:28Z</time>
      </trkpt>
      <trkpt lat="46.4947700" lon="6.8059840">
        <ele>824.7210000</ele>
        <time>2012-07-28T09:51:39Z</time>
      </trkpt>
      <trkpt lat="46.4949610" lon="6.8059200">
        <ele>824.7110000</ele>
        <time>2012-07-28T09:51:46Z</time>
      </trkpt>
      <trkpt lat="46.4950790" lon="6.8058980">
        <ele>824.5820000</ele>
        <time>2012-07-28T09:51:53Z</time>
      </trkpt>
      <trkpt lat="46.4951790" lon="6.8058800">
        <ele>824.4510000</ele>
        <time>2012-07-28T09:51:59Z</time>
      </trkpt>
      <trkpt lat="46.4953030" lon="6.8058530">
        <ele>824.3770000</ele>
        <time>2012-07-28T09:52:07Z</time>
      </trkpt>
      <trkpt lat="46.4953490" lon="6.8058390">
        <ele>824.1650000</ele>
        <time>2012-07-28T09:52:10Z</time>
      </trkpt>
      <trkpt lat="46.4953730" lon="6.8058320">
        <ele>824.0590000</ele>
        <time>2012-07-28T09:52:12Z</time>
      </trkpt>
      <trkpt lat="46.4954530" lon="6.8057980">
        <ele>823.9930000</ele>
        <time>2012-07-28T09:52:21Z</time>
      </trkpt>
      <trkpt lat="46.4955230" lon="6.8057670">
        <ele>823.6500000</ele>
        <time>2012-07-28T09:52:29Z</time>
      </trkpt>
      <trkpt lat="46.4956070" lon="6.8057410">
        <ele>823.6500000</ele>
        <time>2012-07-28T09:52:39Z</time>
      </trkpt>
      <trkpt lat="46.4957020" lon="6.8057220">
        <ele>823.7540000</ele>
        <time>2012-07-28T09:52:48Z</time>
      </trkpt>
      <trkpt lat="46.4957960" lon="6.8057070">
        <ele>823.8360000</ele>
        <time>2012-07-28T09:52:57Z</time>
      </trkpt>
      <trkpt lat="46.4958040" lon="6.8057050">
        <ele>823.8890000</ele>
        <time>2012-07-28T09:52:58Z</time>
      </trkpt>
      <trkpt lat="46.4958410" lon="6.8057120">
        <ele>824.0250000</ele>
        <time>2012-07-28T09:53:02Z</time>
      </trkpt>
      <trkpt lat="46.4959460" lon="6.8057130">
        <ele>823.8740000</ele>
        <time>2012-07-28T09:53:13Z</time>
      </trkpt>
      <trkpt lat="46.4960280" lon="6.8057050">
        <ele>823.6190000</ele>
        <time>2012-07-28T09:53:22Z</time>
      </trkpt>
      <trkpt lat="46.4960490" lon="6.8057060">
        <ele>823.3340000</ele>
        <time>2012-07-28T09:53:25Z</time>
      </trkpt>
      <trkpt lat="46.4960960" lon="6.8057070">
        <ele>823.0410000</ele>
        <time>2012-07-28T09:53:30Z</time>
      </trkpt>
      <trkpt lat="46.4961160" lon="6.8057040">
        <ele>822.8610000</ele>
        <time>2012-07-28T09:53:32Z</time>
      </trkpt>
      <trkpt lat="46.4961810" lon="6.8056880">
        <ele>822.0870000</ele>
        <time>2012-07-28T09:53:39Z</time>
      </trkpt>
      <trkpt lat="46.4962330" lon="6.8056890">
        <ele>821.6700000</ele>
        <time>2012-07-28T09:53:45Z</time>
      </trkpt>
      <trkpt lat="46.4962860" lon="6.8056780">
        <ele>821.1790000</ele>
        <time>2012-07-28T09:53:51Z</time>
      </trkpt>
      <trkpt lat="46.4962950" lon="6.8056770">
        <ele>821.1030000</ele>
        <time>2012-07-28T09:53:52Z</time>
      </trkpt>
      <trkpt lat="46.4963570" lon="6.8056710">
        <ele>820.3930000</ele>
        <time>2012-07-28T09:54:00Z</time>
      </trkpt>
      <trkpt lat="46.4963910" lon="6.8056580">
        <ele>820.1580000</ele>
        <time>2012-07-28T09:54:04Z</time>
      </trkpt>
      <trkpt lat="46.4964980" lon="6.8055900">
        <ele>819.6320000</ele>
        <time>2012-07-28T09:54:14Z</time>
      </trkpt>
      <trkpt lat="46.4965150" lon="6.8055670">
        <ele>819.2570000</ele>
        <time>2012-07-28T09:54:20Z</time>
      </trkpt>
      <trkpt lat="46.4965300" lon="6.8055640">
        <ele>819.1900000</ele>
        <time>2012-07-28T09:54:23Z</time>
      </trkpt>
      <trkpt lat="46.4965880" lon="6.8055300">
        <ele>818.7850000</ele>
        <time>2012-07-28T09:54:29Z</time>
      </trkpt>
      <trkpt lat="46.4967540" lon="6.8054960">
        <ele>818.5580000</ele>
        <time>2012-07-28T09:54:34Z</time>
      </trkpt>
      <trkpt lat="46.4970580" lon="6.8055130">
        <ele>817.5570000</ele>
        <time>2012-07-28T09:54:40Z</time>
      </trkpt>
      <trkpt lat="46.4974670" lon="6.8055420">
        <ele>816.6470000</ele>
        <time>2012-07-28T09:54:48Z</time>
      </trkpt>
      <trkpt lat="46.4977690" lon="6.8055940">
        <ele>817.5880000</ele>
        <time>2012-07-28T09:54:55Z</time>
      </trkpt>
      <trkpt lat="46.4979960" lon="6.8055930">
        <ele>818.5390000</ele>
        <time>2012-07-28T09:55:01Z</time>
      </trkpt>
      <trkpt lat="46.4982020" lon="6.8056190">
        <ele>820.4860000</ele>
        <time>2012-07-28T09:55:08Z</time>
      </trkpt>
      <trkpt lat="46.4982900" lon="6.8056690">
        <ele>821.8850000</ele>
        <time>2012-07-28T09:55:12Z</time>
      </trkpt>
      <trkpt lat="46.4983680" lon="6.8057330">
        <ele>823.4190000</ele>
        <time>2012-07-28T09:55:16Z</time>
      </trkpt>
      <trkpt lat="46.4984470" lon="6.8057830">
        <ele>824.6920000</ele>
        <time>2012-07-28T09:55:20Z</time>
      </trkpt>
      <trkpt lat="46.4985840" lon="6.8058710">
        <ele>826.0510000</ele>
        <time>2012-07-28T09:55:27Z</time>
      </trkpt>
      <trkpt lat="46.4986760" lon="6.8059170">
        <ele>827.2120000</ele>
        <time>2012-07-28T09:55:32Z</time>
      </trkpt>
      <trkpt lat="46.4988480" lon="6.8059720">
        <ele>829.5380000</ele>
        <time>2012-07-28T09:55:42Z</time>
      </trkpt>
      <trkpt lat="46.4990130" lon="6.8060340">
        <ele>831.8420000</ele>
        <time>2012-07-28T09:55:52Z</time>
      </trkpt>
      <trkpt lat="46.4990750" lon="6.8060670">
        <ele>833.0830000</ele>
        <time>2012-07-28T09:55:56Z</time>
      </trkpt>
      <trkpt lat="46.4991670" lon="6.8061270">
        <ele>835.0980000</ele>
        <time>2012-07-28T09:56:03Z</time>
      </trkpt>
      <trkpt lat="46.4992570" lon="6.8061950">
        <ele>836.2980000</ele>
        <time>2012-07-28T09:56:09Z</time>
      </trkpt>
      <trkpt lat="46.4993190" lon="6.8062320">
        <ele>837.0890000</ele>
        <time>2012-07-28T09:56:13Z</time>
      </trkpt>
      <trkpt lat="46.4994450" lon="6.8062490">
        <ele>838.4110000</ele>
        <time>2012-07-28T09:56:20Z</time>
      </trkpt>
      <trkpt lat="46.4995410" lon="6.8062530">
        <ele>839.5480000</ele>
        <time>2012-07-28T09:56:25Z</time>
      </trkpt>
      <trkpt lat="46.4996310" lon="6.8062580">
        <ele>841.1750000</ele>
        <time>2012-07-28T09:56:31Z</time>
      </trkpt>
      <trkpt lat="46.4996970" lon="6.8062690">
        <ele>842.5400000</ele>
        <time>2012-07-28T09:56:36Z</time>
      </trkpt>
      <trkpt lat="46.4997830" lon="6.8063070">
        <ele>844.0730000</ele>
        <time>2012-07-28T09:56:43Z</time>
      </trkpt>
      <trkpt lat="46.4998640" lon="6.8063470">
        <ele>845.5620000</ele>
        <time>2012-07-28T09:56:49Z</time>
      </trkpt>
      <trkpt lat="46.4999590" lon="6.8064650">
        <ele>847.6510000</ele>
        <time>2012-07-28T09:56:57Z</time>
      </trkpt>
      <trkpt lat="46.4999680" lon="6.8064770">
        <ele>847.9160000</ele>
        <time>2012-07-28T09:56:58Z</time>
      </trkpt>
      <trkpt lat="46.5000600" lon="6.8066460">
        <ele>849.6480000</ele>
        <time>2012-07-28T09:57:05Z</time>
      </trkpt>
      <trkpt lat="46.5001770" lon="6.8067260">
        <ele>850.6470000</ele>
        <time>2012-07-28T09:57:12Z</time>
      </trkpt>
      <trkpt lat="46.5002620" lon="6.8067950">
        <ele>851.4040000</ele>
        <time>2012-07-28T09:57:18Z</time>
      </trkpt>
      <trkpt lat="46.5003710" lon="6.8068530">
        <ele>853.9610000</ele>
        <time>2012-07-28T09:57:26Z</time>
      </trkpt>
      <trkpt lat="46.5004270" lon="6.8069150">
        <ele>854.9520000</ele>
        <time>2012-07-28T09:57:31Z</time>
      </trkpt>
      <trkpt lat="46.5005440" lon="6.8069340">
        <ele>856.4240000</ele>
        <time>2012-07-28T09:57:37Z</time>
      </trkpt>
      <trkpt lat="46.5006930" lon="6.8069430">
        <ele>856.7710000</ele>
        <time>2012-07-28T09:57:42Z</time>
      </trkpt>
      <trkpt lat="46.5008180" lon="6.8069690">
        <ele>856.5930000</ele>
        <time>2012-07-28T09:57:46Z</time>
      </trkpt>
      <trkpt lat="46.5009170" lon="6.8070020">
        <ele>856.3940000</ele>
        <time>2012-07-28T09:57:49Z</time>
      </trkpt>
      <trkpt lat="46.5010980" lon="6.8071030">
        <ele>856.4660000</ele>
        <time>2012-07-28T09:57:55Z</time>
      </trkpt>
      <trkpt lat="46.5012780" lon="6.8072020">
        <ele>856.2830000</ele>
        <time>2012-07-28T09:58:00Z</time>
      </trkpt>
      <trkpt lat="46.5014760" lon="6.8073410">
        <ele>855.8540000</ele>
        <time>2012-07-28T09:58:05Z</time>
      </trkpt>
      <trkpt lat="46.5017040" lon="6.8074590">
        <ele>856.1830000</ele>
        <time>2012-07-28T09:58:10Z</time>
      </trkpt>
      <trkpt lat="46.5019900" lon="6.8076380">
        <ele>856.7400000</ele>
        <time>2012-07-28T09:58:17Z</time>
      </trkpt>
      <trkpt lat="46.5020300" lon="6.8076680">
        <ele>856.8690000</ele>
        <time>2012-07-28T09:58:18Z</time>
      </trkpt>
      <trkpt lat="46.5021790" lon="6.8078130">
        <ele>857.3780000</ele>
        <time>2012-07-28T09:58:22Z</time>
      </trkpt>
      <trkpt lat="46.5023780" lon="6.8080670">
        <ele>857.8670000</ele>
        <time>2012-07-28T09:58:29Z</time>
      </trkpt>
      <trkpt lat="46.5025470" lon="6.8081670">
        <ele>859.0150000</ele>
        <time>2012-07-28T09:58:35Z</time>
      </trkpt>
      <trkpt lat="46.5026850" lon="6.8082390">
        <ele>860.1760000</ele>
        <time>2012-07-28T09:58:40Z</time>
      </trkpt>
      <trkpt lat="46.5028290" lon="6.8082990">
        <ele>861.7230000</ele>
        <time>2012-07-28T09:58:45Z</time>
      </trkpt>
      <trkpt lat="46.5029460" lon="6.8084790">
        <ele>863.2530000</ele>
        <time>2012-07-28T09:58:51Z</time>
      </trkpt>
      <trkpt lat="46.5029690" lon="6.8085110">
        <ele>863.6350000</ele>
        <time>2012-07-28T09:58:52Z</time>
      </trkpt>
      <trkpt lat="46.5031190" lon="6.8086430">
        <ele>865.9210000</ele>
        <time>2012-07-28T09:58:58Z</time>
      </trkpt>
      <trkpt lat="46.5033200" lon="6.8087270">
        <ele>866.1940000</ele>
        <time>2012-07-28T09:59:04Z</time>
      </trkpt>
      <trkpt lat="46.5035340" lon="6.8088560">
        <ele>865.9240000</ele>
        <time>2012-07-28T09:59:10Z</time>
      </trkpt>
      <trkpt lat="46.5038560" lon="6.8090110">
        <ele>866.1610000</ele>
        <time>2012-07-28T09:59:19Z</time>
      </trkpt>
      <trkpt lat="46.5040330" lon="6.8090280">
        <ele>866.6120000</ele>
        <time>2012-07-28T09:59:24Z</time>
      </trkpt>
      <trkpt lat="46.5041870" lon="6.8090640">
        <ele>867.5430000</ele>
        <time>2012-07-28T09:59:29Z</time>
      </trkpt>
      <trkpt lat="46.5043230" lon="6.8090640">
        <ele>868.6410000</ele>
        <time>2012-07-28T09:59:34Z</time>
      </trkpt>
      <trkpt lat="46.5043750" lon="6.8090800">
        <ele>869.1150000</ele>
        <time>2012-07-28T09:59:37Z</time>
      </trkpt>
      <trkpt lat="46.5044680" lon="6.8091060">
        <ele>870.4300000</ele>
        <time>2012-07-28T09:59:42Z</time>
      </trkpt>
      <trkpt lat="46.5045270" lon="6.8091510">
        <ele>871.5800000</ele>
        <time>2012-07-28T09:59:46Z</time>
      </trkpt>
      <trkpt lat="46.5046160" lon="6.8091940">
        <ele>873.4010000</ele>
        <time>2012-07-28T09:59:53Z</time>
      </trkpt>
      <trkpt lat="46.5046810" lon="6.8092450">
        <ele>875.1420000</ele>
        <time>2012-07-28T10:00:00Z</time>
      </trkpt>
      <trkpt lat="46.5047370" lon="6.8093510">
        <ele>876.3550000</ele>
        <time>2012-07-28T10:00:06Z</time>
      </trkpt>
      <trkpt lat="46.5048250" lon="6.8094970">
        <ele>878.2190000</ele>
        <time>2012-07-28T10:00:14Z</time>
      </trkpt>
      <trkpt lat="46.5048920" lon="6.8096320">
        <ele>879.7000000</ele>
        <time>2012-07-28T10:00:21Z</time>
      </trkpt>
      <trkpt lat="46.5048920" lon="6.8096540">
        <ele>879.8710000</ele>
        <time>2012-07-28T10:00:22Z</time>
      </trkpt>
      <trkpt lat="46.5049110" lon="6.8096960">
        <ele>880.5760000</ele>
        <time>2012-07-28T10:00:26Z</time>
      </trkpt>
      <trkpt lat="46.5049150" lon="6.8098110">
        <ele>881.2160000</ele>
        <time>2012-07-28T10:00:30Z</time>
      </trkpt>
      <trkpt lat="46.5049230" lon="6.8099630">
        <ele>882.4000000</ele>
        <time>2012-07-28T10:00:37Z</time>
      </trkpt>
      <trkpt lat="46.5049420" lon="6.8100230">
        <ele>882.9220000</ele>
        <time>2012-07-28T10:00:40Z</time>
      </trkpt>
      <trkpt lat="46.5049820" lon="6.8101170">
        <ele>883.6720000</ele>
        <time>2012-07-28T10:00:44Z</time>
      </trkpt>
      <trkpt lat="46.5050030" lon="6.8102370">
        <ele>884.4780000</ele>
        <time>2012-07-28T10:00:48Z</time>
      </trkpt>
      <trkpt lat="46.5050960" lon="6.8103550">
        <ele>885.2640000</ele>
        <time>2012-07-28T10:00:55Z</time>
      </trkpt>
      <trkpt lat="46.5051800" lon="6.8104540">
        <ele>885.1630000</ele>
        <time>2012-07-28T10:01:00Z</time>
      </trkpt>
      <trkpt lat="46.5052410" lon="6.8105540">
        <ele>884.7560000</ele>
        <time>2012-07-28T10:01:05Z</time>
      </trkpt>
      <trkpt lat="46.5052610" lon="6.8105780">
        <ele>884.6630000</ele>
        <time>2012-07-28T10:01:06Z</time>
      </trkpt>
      <trkpt lat="46.5053140" lon="6.8108020">
        <ele>884.7730000</ele>
        <time>2012-07-28T10:01:12Z</time>
      </trkpt>
      <trkpt lat="46.5053650" lon="6.8110050">
        <ele>885.0810000</ele>
        <time>2012-07-28T10:01:17Z</time>
      </trkpt>
      <trkpt lat="46.5054690" lon="6.8111460">
        <ele>885.4830000</ele>
        <time>2012-07-28T10:01:22Z</time>
      </trkpt>
      <trkpt lat="46.5055470" lon="6.8112970">
        <ele>885.8560000</ele>
        <time>2012-07-28T10:01:28Z</time>
      </trkpt>
      <trkpt lat="46.5056400" lon="6.8114140">
        <ele>886.4530000</ele>
        <time>2012-07-28T10:01:34Z</time>
      </trkpt>
      <trkpt lat="46.5057450" lon="6.8115330">
        <ele>887.1610000</ele>
        <time>2012-07-28T10:01:41Z</time>
      </trkpt>
      <trkpt lat="46.5058080" lon="6.8116250">
        <ele>887.9020000</ele>
        <time>2012-07-28T10:01:48Z</time>
      </trkpt>
      <trkpt lat="46.5058710" lon="6.8116820">
        <ele>888.3780000</ele>
        <time>2012-07-28T10:01:57Z</time>
      </trkpt>
      <trkpt lat="46.5059500" lon="6.8117620">
        <ele>889.1630000</ele>
        <time>2012-07-28T10:02:06Z</time>
      </trkpt>
      <trkpt lat="46.5059590" lon="6.8117790">
        <ele>889.7430000</ele>
        <time>2012-07-28T10:02:13Z</time>
      </trkpt>
      <trkpt lat="46.5059850" lon="6.8117910">
        <ele>889.9210000</ele>
        <time>2012-07-28T10:02:20Z</time>
      </trkpt>
      <trkpt lat="46.5059920" lon="6.8118080">
        <ele>890.0040000</ele>
        <time>2012-07-28T10:02:21Z</time>
      </trkpt>
      <trkpt lat="46.5060500" lon="6.8118920">
        <ele>891.0250000</ele>
        <time>2012-07-28T10:02:28Z</time>
      </trkpt>
      <trkpt lat="46.5060970" lon="6.8119550">
        <ele>891.8920000</ele>
        <time>2012-07-28T10:02:33Z</time>
      </trkpt>
      <trkpt lat="46.5061470" lon="6.8120280">
        <ele>893.1310000</ele>
        <time>2012-07-28T10:02:41Z</time>
      </trkpt>
      <trkpt lat="46.5061510" lon="6.8120330">
        <ele>893.3350000</ele>
        <time>2012-07-28T10:02:42Z</time>
      </trkpt>
      <trkpt lat="46.5062010" lon="6.8121170">
        <ele>894.2480000</ele>
        <time>2012-07-28T10:02:49Z</time>
      </trkpt>
      <trkpt lat="46.5062730" lon="6.8121960">
        <ele>895.3630000</ele>
        <time>2012-07-28T10:02:56Z</time>
      </trkpt>
      <trkpt lat="46.5063690" lon="6.8122820">
        <ele>896.1820000</ele>
        <time>2012-07-28T10:03:03Z</time>
      </trkpt>
      <trkpt lat="46.5063930" lon="6.8122980">
        <ele>896.4860000</ele>
        <time>2012-07-28T10:03:05Z</time>
      </trkpt>
      <trkpt lat="46.5065040" lon="6.8123800">
        <ele>897.3560000</ele>
        <time>2012-07-28T10:03:13Z</time>
      </trkpt>
      <trkpt lat="46.5065880" lon="6.8124420">
        <ele>898.0470000</ele>
        <time>2012-07-28T10:03:18Z</time>
      </trkpt>
      <trkpt lat="46.5066880" lon="6.8125170">
        <ele>898.9660000</ele>
        <time>2012-07-28T10:03:25Z</time>
      </trkpt>
      <trkpt lat="46.5067820" lon="6.8125890">
        <ele>899.8910000</ele>
        <time>2012-07-28T10:03:33Z</time>
      </trkpt>
      <trkpt lat="46.5068240" lon="6.8126290">
        <ele>900.4320000</ele>
        <time>2012-07-28T10:03:37Z</time>
      </trkpt>
      <trkpt lat="46.5069070" lon="6.8126760">
        <ele>902.0730000</ele>
        <time>2012-07-28T10:03:45Z</time>
      </trkpt>
      <trkpt lat="46.5069190" lon="6.8126790">
        <ele>902.0790000</ele>
        <time>2012-07-28T10:03:46Z</time>
      </trkpt>
      <trkpt lat="46.5069930" lon="6.8127920">
        <ele>904.2170000</ele>
        <time>2012-07-28T10:03:54Z</time>
      </trkpt>
      <trkpt lat="46.5070210" lon="6.8128270">
        <ele>904.7200000</ele>
        <time>2012-07-28T10:03:56Z</time>
      </trkpt>
      <trkpt lat="46.5071060" lon="6.8129300">
        <ele>905.9780000</ele>
        <time>2012-07-28T10:04:03Z</time>
      </trkpt>
      <trkpt lat="46.5071640" lon="6.8130120">
        <ele>907.2010000</ele>
        <time>2012-07-28T10:04:10Z</time>
      </trkpt>
      <trkpt lat="46.5072590" lon="6.8130910">
        <ele>908.4030000</ele>
        <time>2012-07-28T10:04:18Z</time>
      </trkpt>
      <trkpt lat="46.5073400" lon="6.8131680">
        <ele>909.6200000</ele>
        <time>2012-07-28T10:04:25Z</time>
      </trkpt>
      <trkpt lat="46.5073640" lon="6.8131890">
        <ele>909.9520000</ele>
        <time>2012-07-28T10:04:27Z</time>
      </trkpt>
      <trkpt lat="46.5074910" lon="6.8133360">
        <ele>911.3010000</ele>
        <time>2012-07-28T10:04:37Z</time>
      </trkpt>
      <trkpt lat="46.5075010" lon="6.8133410">
        <ele>911.5270000</ele>
        <time>2012-07-28T10:04:38Z</time>
      </trkpt>
      <trkpt lat="46.5075300" lon="6.8133530">
        <ele>911.6220000</ele>
        <time>2012-07-28T10:04:40Z</time>
      </trkpt>
      <trkpt lat="46.5076690" lon="6.8134370">
        <ele>912.9050000</ele>
        <time>2012-07-28T10:04:49Z</time>
      </trkpt>
      <trkpt lat="46.5077280" lon="6.8135120">
        <ele>913.3780000</ele>
        <time>2012-07-28T10:04:54Z</time>
      </trkpt>
      <trkpt lat="46.5078450" lon="6.8136100">
        <ele>914.2450000</ele>
        <time>2012-07-28T10:05:01Z</time>
      </trkpt>
      <trkpt lat="46.5079240" lon="6.8137530">
        <ele>915.4340000</ele>
        <time>2012-07-28T10:05:09Z</time>
      </trkpt>
      <trkpt lat="46.5079960" lon="6.8138490">
        <ele>916.1690000</ele>
        <time>2012-07-28T10:05:16Z</time>
      </trkpt>
      <trkpt lat="46.5080620" lon="6.8139170">
        <ele>917.2300000</ele>
        <time>2012-07-28T10:05:23Z</time>
      </trkpt>
      <trkpt lat="46.5081290" lon="6.8139560">
        <ele>918.2370000</ele>
        <time>2012-07-28T10:05:29Z</time>
      </trkpt>
      <trkpt lat="46.5082070" lon="6.8140750">
        <ele>919.0300000</ele>
        <time>2012-07-28T10:05:35Z</time>
      </trkpt>
      <trkpt lat="46.5083320" lon="6.8141710">
        <ele>920.3430000</ele>
        <time>2012-07-28T10:05:43Z</time>
      </trkpt>
      <trkpt lat="46.5084350" lon="6.8142190">
        <ele>921.3790000</ele>
        <time>2012-07-28T10:05:49Z</time>
      </trkpt>
      <trkpt lat="46.5084800" lon="6.8143600">
        <ele>922.0590000</ele>
        <time>2012-07-28T10:05:57Z</time>
      </trkpt>
      <trkpt lat="46.5084950" lon="6.8144060">
        <ele>922.4080000</ele>
        <time>2012-07-28T10:06:00Z</time>
      </trkpt>
      <trkpt lat="46.5085280" lon="6.8145260">
        <ele>923.5330000</ele>
        <time>2012-07-28T10:06:07Z</time>
      </trkpt>
      <trkpt lat="46.5085840" lon="6.8146140">
        <ele>925.3730000</ele>
        <time>2012-07-28T10:06:13Z</time>
      </trkpt>
      <trkpt lat="46.5086750" lon="6.8146910">
        <ele>926.4490000</ele>
        <time>2012-07-28T10:06:20Z</time>
      </trkpt>
      <trkpt lat="46.5087590" lon="6.8147480">
        <ele>927.3920000</ele>
        <time>2012-07-28T10:06:27Z</time>
      </trkpt>
      <trkpt lat="46.5088350" lon="6.8148640">
        <ele>928.7220000</ele>
        <time>2012-07-28T10:06:36Z</time>
      </trkpt>
      <trkpt lat="46.5088900" lon="6.8149680">
        <ele>929.7740000</ele>
        <time>2012-07-28T10:06:42Z</time>
      </trkpt>
      <trkpt lat="46.5089500" lon="6.8150740">
        <ele>931.5460000</ele>
        <time>2012-07-28T10:06:50Z</time>
      </trkpt>
      <trkpt lat="46.5090260" lon="6.8151390">
        <ele>932.8930000</ele>
        <time>2012-07-28T10:06:57Z</time>
      </trkpt>
      <trkpt lat="46.5090980" lon="6.8151930">
        <ele>933.8660000</ele>
        <time>2012-07-28T10:07:03Z</time>
      </trkpt>
      <trkpt lat="46.5091510" lon="6.8152800">
        <ele>934.9270000</ele>
        <time>2012-07-28T10:07:10Z</time>
      </trkpt>
      <trkpt lat="46.5092100" lon="6.8153270">
        <ele>935.8040000</ele>
        <time>2012-07-28T10:07:16Z</time>
      </trkpt>
      <trkpt lat="46.5092980" lon="6.8153850">
        <ele>936.9140000</ele>
        <time>2012-07-28T10:07:24Z</time>
      </trkpt>
      <trkpt lat="46.5093380" lon="6.8153790">
        <ele>937.9830000</ele>
        <time>2012-07-28T10:07:30Z</time>
      </trkpt>
      <trkpt lat="46.5093470" lon="6.8153740">
        <ele>938.1720000</ele>
        <time>2012-07-28T10:07:32Z</time>
      </trkpt>
      <trkpt lat="46.5094510" lon="6.8154100">
        <ele>939.2170000</ele>
        <time>2012-07-28T10:07:40Z</time>
      </trkpt>
      <trkpt lat="46.5095390" lon="6.8155090">
        <ele>940.8490000</ele>
        <time>2012-07-28T10:07:48Z</time>
      </trkpt>
      <trkpt lat="46.5095700" lon="6.8155570">
        <ele>941.3480000</ele>
        <time>2012-07-28T10:07:51Z</time>
      </trkpt>
      <trkpt lat="46.5095930" lon="6.8155950">
        <ele>941.6760000</ele>
        <time>2012-07-28T10:07:53Z</time>
      </trkpt>
      <trkpt lat="46.5096960" lon="6.8157310">
        <ele>942.9220000</ele>
        <time>2012-07-28T10:08:01Z</time>
      </trkpt>
      <trkpt lat="46.5097660" lon="6.8158870">
        <ele>944.5840000</ele>
        <time>2012-07-28T10:08:09Z</time>
      </trkpt>
      <trkpt lat="46.5098240" lon="6.8160070">
        <ele>945.7950000</ele>
        <time>2012-07-28T10:08:17Z</time>
      </trkpt>
      <trkpt lat="46.5098880" lon="6.8161190">
        <ele>946.5400000</ele>
        <time>2012-07-28T10:08:24Z</time>
      </trkpt>
      <trkpt lat="46.5099640" lon="6.8162000">
        <ele>947.2770000</ele>
        <time>2012-07-28T10:08:30Z</time>
      </trkpt>
      <trkpt lat="46.5100460" lon="6.8163330">
        <ele>948.3890000</ele>
        <time>2012-07-28T10:08:38Z</time>
      </trkpt>
      <trkpt lat="46.5101570" lon="6.8164610">
        <ele>949.7120000</ele>
        <time>2012-07-28T10:08:45Z</time>
      </trkpt>
      <trkpt lat="46.5102210" lon="6.8165450">
        <ele>950.7270000</ele>
        <time>2012-07-28T10:08:51Z</time>
      </trkpt>
      <trkpt lat="46.5102800" lon="6.8166310">
        <ele>951.5610000</ele>
        <time>2012-07-28T10:08:57Z</time>
      </trkpt>
      <trkpt lat="46.5103540" lon="6.8166960">
        <ele>952.7170000</ele>
        <time>2012-07-28T10:09:03Z</time>
      </trkpt>
      <trkpt lat="46.5104230" lon="6.8167960">
        <ele>953.7960000</ele>
        <time>2012-07-28T10:09:09Z</time>
      </trkpt>
      <trkpt lat="46.5104590" lon="6.8168180">
        <ele>954.1780000</ele>
        <time>2012-07-28T10:09:11Z</time>
      </trkpt>
      <trkpt lat="46.5105800" lon="6.8168980">
        <ele>955.2270000</ele>
        <time>2012-07-28T10:09:19Z</time>
      </trkpt>
      <trkpt lat="46.5106710" lon="6.8169230">
        <ele>956.5430000</ele>
        <time>2012-07-28T10:09:25Z</time>
      </trkpt>
      <trkpt lat="46.5107920" lon="6.8169540">
        <ele>958.3680000</ele>
        <time>2012-07-28T10:09:33Z</time>
      </trkpt>
      <trkpt lat="46.5108760" lon="6.8170080">
        <ele>959.5540000</ele>
        <time>2012-07-28T10:09:39Z</time>
      </trkpt>
      <trkpt lat="46.5109370" lon="6.8170980">
        <ele>960.0230000</ele>
        <time>2012-07-28T10:09:44Z</time>
      </trkpt>
      <trkpt lat="46.5110030" lon="6.8171980">
        <ele>960.4970000</ele>
        <time>2012-07-28T10:09:49Z</time>
      </trkpt>
      <trkpt lat="46.5110330" lon="6.8172820">
        <ele>960.2100000</ele>
        <time>2012-07-28T10:09:55Z</time>
      </trkpt>
      <trkpt lat="46.5110410" lon="6.8172970">
        <ele>959.9390000</ele>
        <time>2012-07-28T10:10:10Z</time>
      </trkpt>
      <trkpt lat="46.5110320" lon="6.8173080">
        <ele>959.7970000</ele>
        <time>2012-07-28T10:10:25Z</time>
      </trkpt>
      <trkpt lat="46.5110120" lon="6.8172930">
        <ele>960.1240000</ele>
        <time>2012-07-28T10:10:31Z</time>
      </trkpt>
      <trkpt lat="46.5109310" lon="6.8172780">
        <ele>960.0630000</ele>
        <time>2012-07-28T10:10:51Z</time>
      </trkpt>
      <trkpt lat="46.5109860" lon="6.8172800">
        <ele>960.5420000</ele>
        <time>2012-07-28T10:11:07Z</time>
      </trkpt>
      <trkpt lat="46.5109630" lon="6.8173040">
        <ele>960.7810000</ele>
        <time>2012-07-28T10:11:18Z</time>
      </trkpt>
      <trkpt lat="46.5109540" lon="6.8172850">
        <ele>960.8590000</ele>
        <time>2012-07-28T10:11:21Z</time>
      </trkpt>
      <trkpt lat="46.5109470" lon="6.8172750">
        <ele>960.8750000</ele>
        <time>2012-07-28T10:11:22Z</time>
      </trkpt>
      <trkpt lat="46.5109910" lon="6.8172680">
        <ele>961.0180000</ele>
        <time>2012-07-28T10:11:50Z</time>
      </trkpt>
      <trkpt lat="46.5110830" lon="6.8172940">
        <ele>961.5130000</ele>
        <time>2012-07-28T10:12:03Z</time>
      </trkpt>
      <trkpt lat="46.5111150" lon="6.8172710">
        <ele>961.4850000</ele>
        <time>2012-07-28T10:12:11Z</time>
      </trkpt>
      <trkpt lat="46.5110970" lon="6.8173010">
        <ele>961.7420000</ele>
        <time>2012-07-28T10:12:18Z</time>
      </trkpt>
      <trkpt lat="46.5111330" lon="6.8173020">
        <ele>961.7170000</ele>
        <time>2012-07-28T10:12:26Z</time>
      </trkpt>
      <trkpt lat="46.5111270" lon="6.8172910">
        <ele>962.1190000</ele>
        <time>2012-07-28T10:12:36Z</time>
      </trkpt>
      <trkpt lat="46.5109950" lon="6.8173730">
        <ele>961.9260000</ele>
        <time>2012-07-28T10:12:41Z</time>
      </trkpt>
      <trkpt lat="46.5109520" lon="6.8174000">
        <ele>961.8230000</ele>
        <time>2012-07-28T10:12:42Z</time>
      </trkpt>
      <trkpt lat="46.5106650" lon="6.8176140">
        <ele>959.7050000</ele>
        <time>2012-07-28T10:12:48Z</time>
      </trkpt>
      <trkpt lat="46.5105090" lon="6.8176960">
        <ele>957.3900000</ele>
        <time>2012-07-28T10:12:52Z</time>
      </trkpt>
      <trkpt lat="46.5104310" lon="6.8177150">
        <ele>955.0440000</ele>
        <time>2012-07-28T10:12:57Z</time>
      </trkpt>
      <trkpt lat="46.5103900" lon="6.8177290">
        <ele>954.5570000</ele>
        <time>2012-07-28T10:13:03Z</time>
      </trkpt>
      <trkpt lat="46.5103640" lon="6.8177850">
        <ele>954.3760000</ele>
        <time>2012-07-28T10:13:08Z</time>
      </trkpt>
      <trkpt lat="46.5102660" lon="6.8178000">
        <ele>953.5720000</ele>
        <time>2012-07-28T10:13:13Z</time>
      </trkpt>
      <trkpt lat="46.5100330" lon="6.8178150">
        <ele>952.4640000</ele>
        <time>2012-07-28T10:13:18Z</time>
      </trkpt>
      <trkpt lat="46.5096870" lon="6.8178440">
        <ele>950.8040000</ele>
        <time>2012-07-28T10:13:24Z</time>
      </trkpt>
      <trkpt lat="46.5093330" lon="6.8178830">
        <ele>949.3190000</ele>
        <time>2012-07-28T10:13:29Z</time>
      </trkpt>
      <trkpt lat="46.5089100" lon="6.8180220">
        <ele>946.2470000</ele>
        <time>2012-07-28T10:13:34Z</time>
      </trkpt>
      <trkpt lat="46.5087120" lon="6.8181280">
        <ele>944.0460000</ele>
        <time>2012-07-28T10:13:37Z</time>
      </trkpt>
      <trkpt lat="46.5086270" lon="6.8182070">
        <ele>942.1420000</ele>
        <time>2012-07-28T10:13:40Z</time>
      </trkpt>
      <trkpt lat="46.5086210" lon="6.8182180">
        <ele>940.9050000</ele>
        <time>2012-07-28T10:13:43Z</time>
      </trkpt>
      <trkpt lat="46.5086170" lon="6.8182240">
        <ele>940.4000000</ele>
        <time>2012-07-28T10:13:46Z</time>
      </trkpt>
      <trkpt lat="46.5085980" lon="6.8182670">
        <ele>940.8240000</ele>
        <time>2012-07-28T10:13:52Z</time>
      </trkpt>
      <trkpt lat="46.5085910" lon="6.8182690">
        <ele>940.9030000</ele>
        <time>2012-07-28T10:13:53Z</time>
      </trkpt>
      <trkpt lat="46.5085670" lon="6.8182540">
        <ele>940.5300000</ele>
        <time>2012-07-28T10:13:59Z</time>
      </trkpt>
      <trkpt lat="46.5084340" lon="6.8181920">
        <ele>940.4900000</ele>
        <time>2012-07-28T10:14:06Z</time>
      </trkpt>
      <trkpt lat="46.5082910" lon="6.8181070">
        <ele>941.3070000</ele>
        <time>2012-07-28T10:14:13Z</time>
      </trkpt>
      <trkpt lat="46.5082370" lon="6.8180270">
        <ele>942.5150000</ele>
        <time>2012-07-28T10:14:18Z</time>
      </trkpt>
      <trkpt lat="46.5082180" lon="6.8179950">
        <ele>943.6500000</ele>
        <time>2012-07-28T10:14:24Z</time>
      </trkpt>
      <trkpt lat="46.5081970" lon="6.8179730">
        <ele>944.4980000</ele>
        <time>2012-07-28T10:14:29Z</time>
      </trkpt>
      <trkpt lat="46.5081860" lon="6.8179670">
        <ele>945.2790000</ele>
        <time>2012-07-28T10:14:33Z</time>
      </trkpt>
      <trkpt lat="46.5081710" lon="6.8179780">
        <ele>945.1140000</ele>
        <time>2012-07-28T10:14:38Z</time>
      </trkpt>
      <trkpt lat="46.5081690" lon="6.8179810">
        <ele>944.7740000</ele>
        <time>2012-07-28T10:14:41Z</time>
      </trkpt>
      <trkpt lat="46.5081150" lon="6.8179990">
        <ele>945.0700000</ele>
        <time>2012-07-28T10:14:46Z</time>
      </trkpt>
      <trkpt lat="46.5080060" lon="6.8179740">
        <ele>946.8670000</ele>
        <time>2012-07-28T10:14:54Z</time>
      </trkpt>
      <trkpt lat="46.5078580" lon="6.8179220">
        <ele>949.0070000</ele>
        <time>2012-07-28T10:15:03Z</time>
      </trkpt>
      <trkpt lat="46.5077360" lon="6.8178460">
        <ele>950.3390000</ele>
        <time>2012-07-28T10:15:12Z</time>
      </trkpt>
      <trkpt lat="46.5076340" lon="6.8177880">
        <ele>951.4470000</ele>
        <time>2012-07-28T10:15:19Z</time>
      </trkpt>
      <trkpt lat="46.5075150" lon="6.8177200">
        <ele>952.8930000</ele>
        <time>2012-07-28T10:15:28Z</time>
      </trkpt>
      <trkpt lat="46.5074250" lon="6.8176740">
        <ele>954.3330000</ele>
        <time>2012-07-28T10:15:35Z</time>
      </trkpt>
      <trkpt lat="46.5073140" lon="6.8176050">
        <ele>956.3860000</ele>
        <time>2012-07-28T10:15:44Z</time>
      </trkpt>
      <trkpt lat="46.5072270" lon="6.8175260">
        <ele>957.6150000</ele>
        <time>2012-07-28T10:15:51Z</time>
      </trkpt>
      <trkpt lat="46.5071250" lon="6.8174100">
        <ele>958.6130000</ele>
        <time>2012-07-28T10:15:58Z</time>
      </trkpt>
      <trkpt lat="46.5069930" lon="6.8173190">
        <ele>958.4470000</ele>
        <time>2012-07-28T10:16:03Z</time>
      </trkpt>
      <trkpt lat="46.5069590" lon="6.8172930">
        <ele>958.3790000</ele>
        <time>2012-07-28T10:16:04Z</time>
      </trkpt>
      <trkpt lat="46.5068860" lon="6.8172220">
        <ele>957.9760000</ele>
        <time>2012-07-28T10:16:06Z</time>
      </trkpt>
      <trkpt lat="46.5066040" lon="6.8169450">
        <ele>955.9020000</ele>
        <time>2012-07-28T10:16:14Z</time>
      </trkpt>
      <trkpt lat="46.5064580" lon="6.8167210">
        <ele>955.8690000</ele>
        <time>2012-07-28T10:16:21Z</time>
      </trkpt>
      <trkpt lat="46.5063490" lon="6.8164840">
        <ele>957.0960000</ele>
        <time>2012-07-28T10:16:28Z</time>
      </trkpt>
      <trkpt lat="46.5062510" lon="6.8162020">
        <ele>958.1900000</ele>
        <time>2012-07-28T10:16:36Z</time>
      </trkpt>
      <trkpt lat="46.5061840" lon="6.8161050">
        <ele>958.8480000</ele>
        <time>2012-07-28T10:16:42Z</time>
      </trkpt>
      <trkpt lat="46.5061700" lon="6.8161000">
        <ele>959.3460000</ele>
        <time>2012-07-28T10:16:48Z</time>
      </trkpt>
      <trkpt lat="46.5061210" lon="6.8160990">
        <ele>959.7430000</ele>
        <time>2012-07-28T10:16:56Z</time>
      </trkpt>
      <trkpt lat="46.5060560" lon="6.8160450">
        <ele>959.9330000</ele>
        <time>2012-07-28T10:17:07Z</time>
      </trkpt>
      <trkpt lat="46.5060130" lon="6.8158350">
        <ele>960.9610000</ele>
        <time>2012-07-28T10:17:13Z</time>
      </trkpt>
      <trkpt lat="46.5059430" lon="6.8156690">
        <ele>961.9100000</ele>
        <time>2012-07-28T10:17:18Z</time>
      </trkpt>
      <trkpt lat="46.5058350" lon="6.8155410">
        <ele>963.2020000</ele>
        <time>2012-07-28T10:17:24Z</time>
      </trkpt>
      <trkpt lat="46.5057390" lon="6.8154490">
        <ele>963.7580000</ele>
        <time>2012-07-28T10:17:28Z</time>
      </trkpt>
      <trkpt lat="46.5056250" lon="6.8152850">
        <ele>963.6680000</ele>
        <time>2012-07-28T10:17:32Z</time>
      </trkpt>
      <trkpt lat="46.5054360" lon="6.8150610">
        <ele>962.3890000</ele>
        <time>2012-07-28T10:17:37Z</time>
      </trkpt>
      <trkpt lat="46.5052670" lon="6.8148960">
        <ele>961.4170000</ele>
        <time>2012-07-28T10:17:41Z</time>
      </trkpt>
      <trkpt lat="46.5050320" lon="6.8146470">
        <ele>960.6190000</ele>
        <time>2012-07-28T10:17:46Z</time>
      </trkpt>
      <trkpt lat="46.5048460" lon="6.8144850">
        <ele>960.6330000</ele>
        <time>2012-07-28T10:17:50Z</time>
      </trkpt>
      <trkpt lat="46.5046050" lon="6.8142670">
        <ele>960.4110000</ele>
        <time>2012-07-28T10:17:55Z</time>
      </trkpt>
      <trkpt lat="46.5044560" lon="6.8140400">
        <ele>959.2090000</ele>
        <time>2012-07-28T10:17:59Z</time>
      </trkpt>
      <trkpt lat="46.5041690" lon="6.8137530">
        <ele>956.5560000</ele>
        <time>2012-07-28T10:18:04Z</time>
      </trkpt>
      <trkpt lat="46.5039310" lon="6.8135410">
        <ele>955.5520000</ele>
        <time>2012-07-28T10:18:08Z</time>
      </trkpt>
      <trkpt lat="46.5038090" lon="6.8134380">
        <ele>955.2790000</ele>
        <time>2012-07-28T10:18:10Z</time>
      </trkpt>
      <trkpt lat="46.5034560" lon="6.8132890">
        <ele>955.3790000</ele>
        <time>2012-07-28T10:18:15Z</time>
      </trkpt>
      <trkpt lat="46.5032080" lon="6.8132030">
        <ele>955.8050000</ele>
        <time>2012-07-28T10:18:19Z</time>
      </trkpt>
      <trkpt lat="46.5030320" lon="6.8130920">
        <ele>956.8430000</ele>
        <time>2012-07-28T10:18:24Z</time>
      </trkpt>
      <trkpt lat="46.5029340" lon="6.8130100">
        <ele>959.3280000</ele>
        <time>2012-07-28T10:18:30Z</time>
      </trkpt>
      <trkpt lat="46.5028390" lon="6.8129310">
        <ele>961.3920000</ele>
        <time>2012-07-28T10:18:36Z</time>
      </trkpt>
      <trkpt lat="46.5027360" lon="6.8128680">
        <ele>962.7780000</ele>
        <time>2012-07-28T10:18:41Z</time>
      </trkpt>
      <trkpt lat="46.5026280" lon="6.8128480">
        <ele>963.8470000</ele>
        <time>2012-07-28T10:18:46Z</time>
      </trkpt>
      <trkpt lat="46.5025080" lon="6.8128190">
        <ele>964.6760000</ele>
        <time>2012-07-28T10:18:52Z</time>
      </trkpt>
      <trkpt lat="46.5023400" lon="6.8127920">
        <ele>965.4870000</ele>
        <time>2012-07-28T10:18:58Z</time>
      </trkpt>
      <trkpt lat="46.5023200" lon="6.8127810">
        <ele>965.7490000</ele>
        <time>2012-07-28T10:18:59Z</time>
      </trkpt>
      <trkpt lat="46.5022740" lon="6.8127740">
        <ele>966.1790000</ele>
        <time>2012-07-28T10:19:01Z</time>
      </trkpt>
      <trkpt lat="46.5021210" lon="6.8126680">
        <ele>967.2130000</ele>
        <time>2012-07-28T10:19:08Z</time>
      </trkpt>
      <trkpt lat="46.5019900" lon="6.8125660">
        <ele>967.1280000</ele>
        <time>2012-07-28T10:19:13Z</time>
      </trkpt>
      <trkpt lat="46.5018630" lon="6.8124200">
        <ele>966.9350000</ele>
        <time>2012-07-28T10:19:18Z</time>
      </trkpt>
      <trkpt lat="46.5017220" lon="6.8122940">
        <ele>966.9070000</ele>
        <time>2012-07-28T10:19:23Z</time>
      </trkpt>
      <trkpt lat="46.5016980" lon="6.8122740">
        <ele>966.9650000</ele>
        <time>2012-07-28T10:19:24Z</time>
      </trkpt>
      <trkpt lat="46.5016440" lon="6.8123300">
        <ele>967.0180000</ele>
        <time>2012-07-28T10:19:29Z</time>
      </trkpt>
      <trkpt lat="46.5016780" lon="6.8124020">
        <ele>967.5970000</ele>
        <time>2012-07-28T10:19:34Z</time>
      </trkpt>
      <trkpt lat="46.5017420" lon="6.8124800">
        <ele>968.4390000</ele>
        <time>2012-07-28T10:19:41Z</time>
      </trkpt>
      <trkpt lat="46.5017900" lon="6.8125450">
        <ele>969.3450000</ele>
        <time>2012-07-28T10:19:47Z</time>
      </trkpt>
      <trkpt lat="46.5018270" lon="6.8126050">
        <ele>970.3180000</ele>
        <time>2012-07-28T10:19:52Z</time>
      </trkpt>
      <trkpt lat="46.5018740" lon="6.8126730">
        <ele>971.2900000</ele>
        <time>2012-07-28T10:20:00Z</time>
      </trkpt>
      <trkpt lat="46.5018840" lon="6.8127000">
        <ele>971.9380000</ele>
        <time>2012-07-28T10:20:06Z</time>
      </trkpt>
      <trkpt lat="46.5019010" lon="6.8127850">
        <ele>972.7080000</ele>
        <time>2012-07-28T10:20:15Z</time>
      </trkpt>
      <trkpt lat="46.5019380" lon="6.8128460">
        <ele>973.9650000</ele>
        <time>2012-07-28T10:20:20Z</time>
      </trkpt>
      <trkpt lat="46.5020120" lon="6.8129010">
        <ele>975.8820000</ele>
        <time>2012-07-28T10:20:27Z</time>
      </trkpt>
      <trkpt lat="46.5020700" lon="6.8129110">
        <ele>976.7030000</ele>
        <time>2012-07-28T10:20:31Z</time>
      </trkpt>
      <trkpt lat="46.5021390" lon="6.8129660">
        <ele>977.3840000</ele>
        <time>2012-07-28T10:20:37Z</time>
      </trkpt>
      <trkpt lat="46.5021910" lon="6.8130620">
        <ele>978.5980000</ele>
        <time>2012-07-28T10:20:44Z</time>
      </trkpt>
      <trkpt lat="46.5022880" lon="6.8131710">
        <ele>979.9570000</ele>
        <time>2012-07-28T10:20:50Z</time>
      </trkpt>
      <trkpt lat="46.5023020" lon="6.8132200">
        <ele>980.2550000</ele>
        <time>2012-07-28T10:20:52Z</time>
      </trkpt>
      <trkpt lat="46.5023550" lon="6.8132940">
        <ele>980.8260000</ele>
        <time>2012-07-28T10:20:57Z</time>
      </trkpt>
      <trkpt lat="46.5024250" lon="6.8133480">
        <ele>981.2250000</ele>
        <time>2012-07-28T10:21:02Z</time>
      </trkpt>
      <trkpt lat="46.5024560" lon="6.8133880">
        <ele>981.4360000</ele>
        <time>2012-07-28T10:21:05Z</time>
      </trkpt>
      <trkpt lat="46.5025010" lon="6.8135240">
        <ele>982.5550000</ele>
        <time>2012-07-28T10:21:13Z</time>
      </trkpt>
      <trkpt lat="46.5024990" lon="6.8136040">
        <ele>983.7740000</ele>
        <time>2012-07-28T10:21:17Z</time>
      </trkpt>
      <trkpt lat="46.5025310" lon="6.8136540">
        <ele>985.0520000</ele>
        <time>2012-07-28T10:21:22Z</time>
      </trkpt>
      <trkpt lat="46.5025370" lon="6.8136880">
        <ele>985.4520000</ele>
        <time>2012-07-28T10:21:25Z</time>
      </trkpt>
      <trkpt lat="46.5025580" lon="6.8137910">
        <ele>986.1420000</ele>
        <time>2012-07-28T10:21:30Z</time>
      </trkpt>
      <trkpt lat="46.5026250" lon="6.8138750">
        <ele>987.9200000</ele>
        <time>2012-07-28T10:21:37Z</time>
      </trkpt>
      <trkpt lat="46.5026700" lon="6.8139730">
        <ele>990.0610000</ele>
        <time>2012-07-28T10:21:47Z</time>
      </trkpt>
      <trkpt lat="46.5026950" lon="6.8140840">
        <ele>991.5810000</ele>
        <time>2012-07-28T10:21:54Z</time>
      </trkpt>
      <trkpt lat="46.5027160" lon="6.8141270">
        <ele>992.7680000</ele>
        <time>2012-07-28T10:21:59Z</time>
      </trkpt>
      <trkpt lat="46.5027320" lon="6.8141510">
        <ele>993.1680000</ele>
        <time>2012-07-28T10:22:01Z</time>
      </trkpt>
      <trkpt lat="46.5027920" lon="6.8142470">
        <ele>993.9250000</ele>
        <time>2012-07-28T10:22:08Z</time>
      </trkpt>
      <trkpt lat="46.5028340" lon="6.8143410">
        <ele>995.1190000</ele>
        <time>2012-07-28T10:22:14Z</time>
      </trkpt>
      <trkpt lat="46.5028980" lon="6.8143920">
        <ele>996.1220000</ele>
        <time>2012-07-28T10:22:21Z</time>
      </trkpt>
      <trkpt lat="46.5029810" lon="6.8144720">
        <ele>996.2890000</ele>
        <time>2012-07-28T10:22:28Z</time>
      </trkpt>
      <trkpt lat="46.5030030" lon="6.8144780">
        <ele>996.4680000</ele>
        <time>2012-07-28T10:22:30Z</time>
      </trkpt>
      <trkpt lat="46.5031210" lon="6.8145870">
        <ele>997.3180000</ele>
        <time>2012-07-28T10:22:36Z</time>
      </trkpt>
      <trkpt lat="46.5031650" lon="6.8146490">
        <ele>997.7530000</ele>
        <time>2012-07-28T10:22:39Z</time>
      </trkpt>
      <trkpt lat="46.5032350" lon="6.8147650">
        <ele>998.8100000</ele>
        <time>2012-07-28T10:22:45Z</time>
      </trkpt>
      <trkpt lat="46.5032930" lon="6.8149010">
        <ele>1001.0060000</ele>
        <time>2012-07-28T10:22:53Z</time>
      </trkpt>
      <trkpt lat="46.5033360" lon="6.8149750">
        <ele>1002.1010000</ele>
        <time>2012-07-28T10:22:59Z</time>
      </trkpt>
      <trkpt lat="46.5033770" lon="6.8150470">
        <ele>1003.3360000</ele>
        <time>2012-07-28T10:23:05Z</time>
      </trkpt>
      <trkpt lat="46.5034510" lon="6.8151450">
        <ele>1004.7310000</ele>
        <time>2012-07-28T10:23:12Z</time>
      </trkpt>
      <trkpt lat="46.5034980" lon="6.8152370">
        <ele>1005.8700000</ele>
        <time>2012-07-28T10:23:18Z</time>
      </trkpt>
      <trkpt lat="46.5035060" lon="6.8152470">
        <ele>1006.1020000</ele>
        <time>2012-07-28T10:23:19Z</time>
      </trkpt>
      <trkpt lat="46.5035260" lon="6.8153090">
        <ele>1007.0950000</ele>
        <time>2012-07-28T10:23:23Z</time>
      </trkpt>
      <trkpt lat="46.5036020" lon="6.8154710">
        <ele>1009.4060000</ele>
        <time>2012-07-28T10:23:33Z</time>
      </trkpt>
      <trkpt lat="46.5036370" lon="6.8155550">
        <ele>1010.3290000</ele>
        <time>2012-07-28T10:23:38Z</time>
      </trkpt>
      <trkpt lat="46.5036980" lon="6.8156690">
        <ele>1011.5970000</ele>
        <time>2012-07-28T10:23:45Z</time>
      </trkpt>
      <trkpt lat="46.5037220" lon="6.8157530">
        <ele>1012.4290000</ele>
        <time>2012-07-28T10:23:50Z</time>
      </trkpt>
      <trkpt lat="46.5037530" lon="6.8158740">
        <ele>1014.3840000</ele>
        <time>2012-07-28T10:23:57Z</time>
      </trkpt>
      <trkpt lat="46.5037360" lon="6.8159950">
        <ele>1015.7360000</ele>
        <time>2012-07-28T10:24:03Z</time>
      </trkpt>
      <trkpt lat="46.5037300" lon="6.8160190">
        <ele>1015.9110000</ele>
        <time>2012-07-28T10:24:04Z</time>
      </trkpt>
      <trkpt lat="46.5037680" lon="6.8161970">
        <ele>1017.6640000</ele>
        <time>2012-07-28T10:24:12Z</time>
      </trkpt>
      <trkpt lat="46.5037640" lon="6.8162730">
        <ele>1018.2350000</ele>
        <time>2012-07-28T10:24:16Z</time>
      </trkpt>
      <trkpt lat="46.5037500" lon="6.8163920">
        <ele>1019.5240000</ele>
        <time>2012-07-28T10:24:23Z</time>
      </trkpt>
      <trkpt lat="46.5037440" lon="6.8164340">
        <ele>1019.9320000</ele>
        <time>2012-07-28T10:24:25Z</time>
      </trkpt>
      <trkpt lat="46.5037280" lon="6.8165310">
        <ele>1020.7700000</ele>
        <time>2012-07-28T10:24:32Z</time>
      </trkpt>
      <trkpt lat="46.5037190" lon="6.8165570">
        <ele>1021.2180000</ele>
        <time>2012-07-28T10:24:36Z</time>
      </trkpt>
      <trkpt lat="46.5035940" lon="6.8165700">
        <ele>1022.8740000</ele>
        <time>2012-07-28T10:24:45Z</time>
      </trkpt>
      <trkpt lat="46.5035150" lon="6.8165570">
        <ele>1024.5190000</ele>
        <time>2012-07-28T10:24:51Z</time>
      </trkpt>
      <trkpt lat="46.5034710" lon="6.8165420">
        <ele>1026.2940000</ele>
        <time>2012-07-28T10:24:59Z</time>
      </trkpt>
      <trkpt lat="46.5034220" lon="6.8165500">
        <ele>1027.4720000</ele>
        <time>2012-07-28T10:25:05Z</time>
      </trkpt>
      <trkpt lat="46.5033480" lon="6.8165560">
        <ele>1029.2710000</ele>
        <time>2012-07-28T10:25:13Z</time>
      </trkpt>
      <trkpt lat="46.5033140" lon="6.8165400">
        <ele>1030.1550000</ele>
        <time>2012-07-28T10:25:18Z</time>
      </trkpt>
      <trkpt lat="46.5032600" lon="6.8165320">
        <ele>1031.8730000</ele>
        <time>2012-07-28T10:25:26Z</time>
      </trkpt>
      <trkpt lat="46.5031880" lon="6.8165230">
        <ele>1033.6340000</ele>
        <time>2012-07-28T10:25:35Z</time>
      </trkpt>
      <trkpt lat="46.5031500" lon="6.8165240">
        <ele>1034.9270000</ele>
        <time>2012-07-28T10:25:43Z</time>
      </trkpt>
      <trkpt lat="46.5031340" lon="6.8165020">
        <ele>1035.8720000</ele>
        <time>2012-07-28T10:25:50Z</time>
      </trkpt>
      <trkpt lat="46.5031280" lon="6.8165080">
        <ele>1036.8300000</ele>
        <time>2012-07-28T10:25:55Z</time>
      </trkpt>
      <trkpt lat="46.5031130" lon="6.8165120">
        <ele>1037.6500000</ele>
        <time>2012-07-28T10:26:00Z</time>
      </trkpt>
      <trkpt lat="46.5030870" lon="6.8165100">
        <ele>1039.1350000</ele>
        <time>2012-07-28T10:26:06Z</time>
      </trkpt>
      <trkpt lat="46.5030790" lon="6.8165150">
        <ele>1040.1420000</ele>
        <time>2012-07-28T10:26:12Z</time>
      </trkpt>
      <trkpt lat="46.5030520" lon="6.8165190">
        <ele>1041.1250000</ele>
        <time>2012-07-28T10:26:17Z</time>
      </trkpt>
      <trkpt lat="46.5030010" lon="6.8165370">
        <ele>1042.6120000</ele>
        <time>2012-07-28T10:26:24Z</time>
      </trkpt>
      <trkpt lat="46.5029350" lon="6.8165530">
        <ele>1044.3140000</ele>
        <time>2012-07-28T10:26:33Z</time>
      </trkpt>
      <trkpt lat="46.5028940" lon="6.8165600">
        <ele>1045.4690000</ele>
        <time>2012-07-28T10:26:40Z</time>
      </trkpt>
      <trkpt lat="46.5028490" lon="6.8165670">
        <ele>1045.9510000</ele>
        <time>2012-07-28T10:26:46Z</time>
      </trkpt>
      <trkpt lat="46.5028080" lon="6.8165680">
        <ele>1046.3730000</ele>
        <time>2012-07-28T10:26:54Z</time>
      </trkpt>
      <trkpt lat="46.5027170" lon="6.8165880">
        <ele>1047.1830000</ele>
        <time>2012-07-28T10:27:01Z</time>
      </trkpt>
      <trkpt lat="46.5026130" lon="6.8166100">
        <ele>1049.1400000</ele>
        <time>2012-07-28T10:27:09Z</time>
      </trkpt>
      <trkpt lat="46.5025290" lon="6.8166060">
        <ele>1050.5880000</ele>
        <time>2012-07-28T10:27:16Z</time>
      </trkpt>
      <trkpt lat="46.5024240" lon="6.8165700">
        <ele>1052.6200000</ele>
        <time>2012-07-28T10:27:25Z</time>
      </trkpt>
      <trkpt lat="46.5023520" lon="6.8165750">
        <ele>1053.7370000</ele>
        <time>2012-07-28T10:27:30Z</time>
      </trkpt>
      <trkpt lat="46.5022730" lon="6.8165340">
        <ele>1055.7980000</ele>
        <time>2012-07-28T10:27:36Z</time>
      </trkpt>
      <trkpt lat="46.5021520" lon="6.8165050">
        <ele>1057.5280000</ele>
        <time>2012-07-28T10:27:43Z</time>
      </trkpt>
      <trkpt lat="46.5020100" lon="6.8164410">
        <ele>1056.9760000</ele>
        <time>2012-07-28T10:27:49Z</time>
      </trkpt>
      <trkpt lat="46.5018660" lon="6.8164270">
        <ele>1056.7120000</ele>
        <time>2012-07-28T10:27:55Z</time>
      </trkpt>
      <trkpt lat="46.5017310" lon="6.8163000">
        <ele>1056.7720000</ele>
        <time>2012-07-28T10:28:01Z</time>
      </trkpt>
      <trkpt lat="46.5015940" lon="6.8161090">
        <ele>1056.6150000</ele>
        <time>2012-07-28T10:28:07Z</time>
      </trkpt>
      <trkpt lat="46.5014790" lon="6.8159560">
        <ele>1056.6990000</ele>
        <time>2012-07-28T10:28:12Z</time>
      </trkpt>
      <trkpt lat="46.5012920" lon="6.8158280">
        <ele>1056.9950000</ele>
        <time>2012-07-28T10:28:18Z</time>
      </trkpt>
      <trkpt lat="46.5011860" lon="6.8158720">
        <ele>1057.4830000</ele>
        <time>2012-07-28T10:28:22Z</time>
      </trkpt>
      <trkpt lat="46.5010370" lon="6.8159890">
        <ele>1059.1610000</ele>
        <time>2012-07-28T10:28:29Z</time>
      </trkpt>
      <trkpt lat="46.5009430" lon="6.8161630">
        <ele>1059.9880000</ele>
        <time>2012-07-28T10:28:34Z</time>
      </trkpt>
      <trkpt lat="46.5008380" lon="6.8163500">
        <ele>1060.8220000</ele>
        <time>2012-07-28T10:28:40Z</time>
      </trkpt>
      <trkpt lat="46.5006840" lon="6.8165130">
        <ele>1061.0990000</ele>
        <time>2012-07-28T10:28:46Z</time>
      </trkpt>
      <trkpt lat="46.5005780" lon="6.8166130">
        <ele>1061.6030000</ele>
        <time>2012-07-28T10:28:51Z</time>
      </trkpt>
      <trkpt lat="46.5004820" lon="6.8167030">
        <ele>1063.3760000</ele>
        <time>2012-07-28T10:28:57Z</time>
      </trkpt>
      <trkpt lat="46.5003650" lon="6.8168110">
        <ele>1065.0290000</ele>
        <time>2012-07-28T10:29:02Z</time>
      </trkpt>
      <trkpt lat="46.5001430" lon="6.8169960">
        <ele>1065.7380000</ele>
        <time>2012-07-28T10:29:09Z</time>
      </trkpt>
      <trkpt lat="46.5000460" lon="6.8171850">
        <ele>1065.4390000</ele>
        <time>2012-07-28T10:29:14Z</time>
      </trkpt>
      <trkpt lat="46.4999480" lon="6.8173860">
        <ele>1065.2050000</ele>
        <time>2012-07-28T10:29:20Z</time>
      </trkpt>
      <trkpt lat="46.4998390" lon="6.8176180">
        <ele>1065.4020000</ele>
        <time>2012-07-28T10:29:25Z</time>
      </trkpt>
      <trkpt lat="46.4997410" lon="6.8178130">
        <ele>1065.8940000</ele>
        <time>2012-07-28T10:29:30Z</time>
      </trkpt>
      <trkpt lat="46.4995880" lon="6.8178770">
        <ele>1066.5380000</ele>
        <time>2012-07-28T10:29:35Z</time>
      </trkpt>
      <trkpt lat="46.4992750" lon="6.8179230">
        <ele>1066.9170000</ele>
        <time>2012-07-28T10:29:44Z</time>
      </trkpt>
      <trkpt lat="46.4990110" lon="6.8180060">
        <ele>1066.8830000</ele>
        <time>2012-07-28T10:29:50Z</time>
      </trkpt>
      <trkpt lat="46.4987030" lon="6.8180920">
        <ele>1065.9200000</ele>
        <time>2012-07-28T10:29:56Z</time>
      </trkpt>
      <trkpt lat="46.4986330" lon="6.8181050">
        <ele>1065.5030000</ele>
        <time>2012-07-28T10:29:57Z</time>
      </trkpt>
      <trkpt lat="46.4982360" lon="6.8182740">
        <ele>1062.5920000</ele>
        <time>2012-07-28T10:30:02Z</time>
      </trkpt>
      <trkpt lat="46.4981640" lon="6.8183160">
        <ele>1061.9430000</ele>
        <time>2012-07-28T10:30:03Z</time>
      </trkpt>
      <trkpt lat="46.4978790" lon="6.8183050">
        <ele>1060.0070000</ele>
        <time>2012-07-28T10:30:07Z</time>
      </trkpt>
      <trkpt lat="46.4978100" lon="6.8182730">
        <ele>1059.7170000</ele>
        <time>2012-07-28T10:30:08Z</time>
      </trkpt>
      <trkpt lat="46.4976610" lon="6.8181850">
        <ele>1059.4890000</ele>
        <time>2012-07-28T10:30:11Z</time>
      </trkpt>
      <trkpt lat="46.4975800" lon="6.8181650">
        <ele>1059.6080000</ele>
        <time>2012-07-28T10:30:13Z</time>
      </trkpt>
      <trkpt lat="46.4974580" lon="6.8182530">
        <ele>1060.0260000</ele>
        <time>2012-07-28T10:30:17Z</time>
      </trkpt>
      <trkpt lat="46.4972790" lon="6.8184280">
        <ele>1060.5830000</ele>
        <time>2012-07-28T10:30:22Z</time>
      </trkpt>
      <trkpt lat="46.4970500" lon="6.8185420">
        <ele>1062.0240000</ele>
        <time>2012-07-28T10:30:28Z</time>
      </trkpt>
      <trkpt lat="46.4968510" lon="6.8186740">
        <ele>1063.4820000</ele>
        <time>2012-07-28T10:30:34Z</time>
      </trkpt>
      <trkpt lat="46.4966880" lon="6.8188500">
        <ele>1064.2160000</ele>
        <time>2012-07-28T10:30:39Z</time>
      </trkpt>
      <trkpt lat="46.4965950" lon="6.8190710">
        <ele>1063.8020000</ele>
        <time>2012-07-28T10:30:44Z</time>
      </trkpt>
      <trkpt lat="46.4965040" lon="6.8192280">
        <ele>1062.8160000</ele>
        <time>2012-07-28T10:30:47Z</time>
      </trkpt>
      <trkpt lat="46.4963130" lon="6.8194640">
        <ele>1061.6970000</ele>
        <time>2012-07-28T10:30:51Z</time>
      </trkpt>
      <trkpt lat="46.4961350" lon="6.8195910">
        <ele>1060.9590000</ele>
        <time>2012-07-28T10:30:54Z</time>
      </trkpt>
      <trkpt lat="46.4960410" lon="6.8196990">
        <ele>1060.3830000</ele>
        <time>2012-07-28T10:30:56Z</time>
      </trkpt>
      <trkpt lat="46.4959900" lon="6.8199480">
        <ele>1059.5350000</ele>
        <time>2012-07-28T10:30:59Z</time>
      </trkpt>
      <trkpt lat="46.4959910" lon="6.8203810">
        <ele>1058.6960000</ele>
        <time>2012-07-28T10:31:03Z</time>
      </trkpt>
      <trkpt lat="46.4959090" lon="6.8206720">
        <ele>1057.9920000</ele>
        <time>2012-07-28T10:31:06Z</time>
      </trkpt>
      <trkpt lat="46.4957020" lon="6.8208100">
        <ele>1057.0950000</ele>
        <time>2012-07-28T10:31:10Z</time>
      </trkpt>
      <trkpt lat="46.4955390" lon="6.8206740">
        <ele>1056.0190000</ele>
        <time>2012-07-28T10:31:13Z</time>
      </trkpt>
      <trkpt lat="46.4954610" lon="6.8204930">
        <ele>1054.8370000</ele>
        <time>2012-07-28T10:31:16Z</time>
      </trkpt>
      <trkpt lat="46.4953770" lon="6.8205110">
        <ele>1053.6640000</ele>
        <time>2012-07-28T10:31:19Z</time>
      </trkpt>
      <trkpt lat="46.4953490" lon="6.8205530">
        <ele>1053.1890000</ele>
        <time>2012-07-28T10:31:20Z</time>
      </trkpt>
      <trkpt lat="46.4952800" lon="6.8206880">
        <ele>1052.0340000</ele>
        <time>2012-07-28T10:31:22Z</time>
      </trkpt>
      <trkpt lat="46.4951980" lon="6.8209450">
        <ele>1049.0860000</ele>
        <time>2012-07-28T10:31:26Z</time>
      </trkpt>
      <trkpt lat="46.4952080" lon="6.8210760">
        <ele>1048.1360000</ele>
        <time>2012-07-28T10:31:27Z</time>
      </trkpt>
      <trkpt lat="46.4951800" lon="6.8213860">
        <ele>1045.3810000</ele>
        <time>2012-07-28T10:31:30Z</time>
      </trkpt>
      <trkpt lat="46.4951220" lon="6.8215810">
        <ele>1044.4470000</ele>
        <time>2012-07-28T10:31:32Z</time>
      </trkpt>
      <trkpt lat="46.4950280" lon="6.8222080">
        <ele>1038.2570000</ele>
        <time>2012-07-28T10:31:38Z</time>
      </trkpt>
      <trkpt lat="46.4949470" lon="6.8225690">
        <ele>1034.3730000</ele>
        <time>2012-07-28T10:31:41Z</time>
      </trkpt>
      <trkpt lat="46.4949820" lon="6.8228950">
        <ele>1029.9180000</ele>
        <time>2012-07-28T10:31:45Z</time>
      </trkpt>
      <trkpt lat="46.4949130" lon="6.8230680">
        <ele>1027.9050000</ele>
        <time>2012-07-28T10:31:48Z</time>
      </trkpt>
      <trkpt lat="46.4947940" lon="6.8231180">
        <ele>1027.1040000</ele>
        <time>2012-07-28T10:31:51Z</time>
      </trkpt>
      <trkpt lat="46.4945530" lon="6.8231140">
        <ele>1026.8270000</ele>
        <time>2012-07-28T10:31:55Z</time>
      </trkpt>
      <trkpt lat="46.4943880" lon="6.8230130">
        <ele>1026.7810000</ele>
        <time>2012-07-28T10:31:58Z</time>
      </trkpt>
      <trkpt lat="46.4942920" lon="6.8229390">
        <ele>1026.5750000</ele>
        <time>2012-07-28T10:32:00Z</time>
      </trkpt>
      <trkpt lat="46.4940430" lon="6.8228900">
        <ele>1026.5140000</ele>
        <time>2012-07-28T10:32:05Z</time>
      </trkpt>
      <trkpt lat="46.4938330" lon="6.8229040">
        <ele>1026.6510000</ele>
        <time>2012-07-28T10:32:09Z</time>
      </trkpt>
      <trkpt lat="46.4937340" lon="6.8228880">
        <ele>1026.5040000</ele>
        <time>2012-07-28T10:32:11Z</time>
      </trkpt>
      <trkpt lat="46.4935310" lon="6.8229580">
        <ele>1025.9040000</ele>
        <time>2012-07-28T10:32:15Z</time>
      </trkpt>
      <trkpt lat="46.4934330" lon="6.8230290">
        <ele>1025.5590000</ele>
        <time>2012-07-28T10:32:17Z</time>
      </trkpt>
      <trkpt lat="46.4932230" lon="6.8233150">
        <ele>1024.9440000</ele>
        <time>2012-07-28T10:32:22Z</time>
      </trkpt>
      <trkpt lat="46.4931440" lon="6.8234340">
        <ele>1024.8870000</ele>
        <time>2012-07-28T10:32:24Z</time>
      </trkpt>
      <trkpt lat="46.4929720" lon="6.8236990">
        <ele>1025.1800000</ele>
        <time>2012-07-28T10:32:29Z</time>
      </trkpt>
      <trkpt lat="46.4929120" lon="6.8238190">
        <ele>1025.6200000</ele>
        <time>2012-07-28T10:32:31Z</time>
      </trkpt>
      <trkpt lat="46.4928130" lon="6.8241640">
        <ele>1027.1550000</ele>
        <time>2012-07-28T10:32:37Z</time>
      </trkpt>
      <trkpt lat="46.4927850" lon="6.8244640">
        <ele>1028.6670000</ele>
        <time>2012-07-28T10:32:43Z</time>
      </trkpt>
      <trkpt lat="46.4927810" lon="6.8247280">
        <ele>1029.3780000</ele>
        <time>2012-07-28T10:32:48Z</time>
      </trkpt>
      <trkpt lat="46.4927960" lon="6.8249710">
        <ele>1029.8390000</ele>
        <time>2012-07-28T10:32:53Z</time>
      </trkpt>
      <trkpt lat="46.4927590" lon="6.8252700">
        <ele>1030.7070000</ele>
        <time>2012-07-28T10:32:59Z</time>
      </trkpt>
      <trkpt lat="46.4927360" lon="6.8253400">
        <ele>1031.1130000</ele>
        <time>2012-07-28T10:33:01Z</time>
      </trkpt>
      <trkpt lat="46.4925790" lon="6.8256210">
        <ele>1032.5730000</ele>
        <time>2012-07-28T10:33:08Z</time>
      </trkpt>
      <trkpt lat="46.4924720" lon="6.8259010">
        <ele>1031.9420000</ele>
        <time>2012-07-28T10:33:14Z</time>
      </trkpt>
      <trkpt lat="46.4924440" lon="6.8259890">
        <ele>1031.1630000</ele>
        <time>2012-07-28T10:33:17Z</time>
      </trkpt>
      <trkpt lat="46.4922170" lon="6.8261350">
        <ele>1027.6170000</ele>
        <time>2012-07-28T10:33:23Z</time>
      </trkpt>
      <trkpt lat="46.4919670" lon="6.8262970">
        <ele>1023.5080000</ele>
        <time>2012-07-28T10:33:27Z</time>
      </trkpt>
      <trkpt lat="46.4918590" lon="6.8263900">
        <ele>1021.4590000</ele>
        <time>2012-07-28T10:33:29Z</time>
      </trkpt>
      <trkpt lat="46.4915170" lon="6.8266210">
        <ele>1017.0040000</ele>
        <time>2012-07-28T10:33:34Z</time>
      </trkpt>
      <trkpt lat="46.4914460" lon="6.8266720">
        <ele>1016.0460000</ele>
        <time>2012-07-28T10:33:35Z</time>
      </trkpt>
      <trkpt lat="46.4912030" lon="6.8269250">
        <ele>1013.2770000</ele>
        <time>2012-07-28T10:33:39Z</time>
      </trkpt>
      <trkpt lat="46.4910640" lon="6.8270190">
        <ele>1011.8100000</ele>
        <time>2012-07-28T10:33:41Z</time>
      </trkpt>
      <trkpt lat="46.4909130" lon="6.8270960">
        <ele>1010.3160000</ele>
        <time>2012-07-28T10:33:43Z</time>
      </trkpt>
      <trkpt lat="46.4907090" lon="6.8272120">
        <ele>1008.5190000</ele>
        <time>2012-07-28T10:33:46Z</time>
      </trkpt>
      <trkpt lat="46.4905570" lon="6.8272870">
        <ele>1006.8790000</ele>
        <time>2012-07-28T10:33:51Z</time>
      </trkpt>
      <trkpt lat="46.4904840" lon="6.8273030">
        <ele>1004.8880000</ele>
        <time>2012-07-28T10:33:56Z</time>
      </trkpt>
      <trkpt lat="46.4904660" lon="6.8273070">
        <ele>1004.2270000</ele>
        <time>2012-07-28T10:33:57Z</time>
      </trkpt>
      <trkpt lat="46.4904490" lon="6.8273740">
        <ele>1000.8460000</ele>
        <time>2012-07-28T10:34:03Z</time>
      </trkpt>
      <trkpt lat="46.4904500" lon="6.8274140">
        <ele>1000.4290000</ele>
        <time>2012-07-28T10:34:05Z</time>
      </trkpt>
      <trkpt lat="46.4903760" lon="6.8275330">
        <ele>997.9880000</ele>
        <time>2012-07-28T10:34:11Z</time>
      </trkpt>
      <trkpt lat="46.4903350" lon="6.8277070">
        <ele>995.6490000</ele>
        <time>2012-07-28T10:34:15Z</time>
      </trkpt>
      <trkpt lat="46.4902630" lon="6.8277960">
        <ele>993.5080000</ele>
        <time>2012-07-28T10:34:19Z</time>
      </trkpt>
      <trkpt lat="46.4902490" lon="6.8278600">
        <ele>991.8280000</ele>
        <time>2012-07-28T10:34:24Z</time>
      </trkpt>
      <trkpt lat="46.4902070" lon="6.8279300">
        <ele>991.2900000</ele>
        <time>2012-07-28T10:34:30Z</time>
      </trkpt>
      <trkpt lat="46.4901640" lon="6.8280050">
        <ele>988.4690000</ele>
        <time>2012-07-28T10:34:37Z</time>
      </trkpt>
      <trkpt lat="46.4900730" lon="6.8280860">
        <ele>984.8310000</ele>
        <time>2012-07-28T10:34:48Z</time>
      </trkpt>
      <trkpt lat="46.4899830" lon="6.8281700">
        <ele>983.2650000</ele>
        <time>2012-07-28T10:34:52Z</time>
      </trkpt>
      <trkpt lat="46.4897950" lon="6.8284310">
        <ele>979.6890000</ele>
        <time>2012-07-28T10:34:58Z</time>
      </trkpt>
      <trkpt lat="46.4895860" lon="6.8287490">
        <ele>973.8360000</ele>
        <time>2012-07-28T10:35:04Z</time>
      </trkpt>
      <trkpt lat="46.4894540" lon="6.8289330">
        <ele>969.7190000</ele>
        <time>2012-07-28T10:35:09Z</time>
      </trkpt>
      <trkpt lat="46.4893490" lon="6.8290640">
        <ele>966.7990000</ele>
        <time>2012-07-28T10:35:13Z</time>
      </trkpt>
      <trkpt lat="46.4892800" lon="6.8291260">
        <ele>965.3100000</ele>
        <time>2012-07-28T10:35:15Z</time>
      </trkpt>
      <trkpt lat="46.4892060" lon="6.8292280">
        <ele>963.6460000</ele>
        <time>2012-07-28T10:35:17Z</time>
      </trkpt>
      <trkpt lat="46.4891210" lon="6.8293170">
        <ele>962.8630000</ele>
        <time>2012-07-28T10:35:19Z</time>
      </trkpt>
      <trkpt lat="46.4889360" lon="6.8294960">
        <ele>958.9790000</ele>
        <time>2012-07-28T10:35:24Z</time>
      </trkpt>
      <trkpt lat="46.4888590" lon="6.8295760">
        <ele>957.7410000</ele>
        <time>2012-07-28T10:35:26Z</time>
      </trkpt>
      <trkpt lat="46.4886350" lon="6.8296170">
        <ele>955.4950000</ele>
        <time>2012-07-28T10:35:30Z</time>
      </trkpt>
      <trkpt lat="46.4882550" lon="6.8296720">
        <ele>952.3230000</ele>
        <time>2012-07-28T10:35:36Z</time>
      </trkpt>
      <trkpt lat="46.4878770" lon="6.8296790">
        <ele>949.9500000</ele>
        <time>2012-07-28T10:35:42Z</time>
      </trkpt>
      <trkpt lat="46.4875210" lon="6.8295520">
        <ele>948.3110000</ele>
        <time>2012-07-28T10:35:48Z</time>
      </trkpt>
      <trkpt lat="46.4873030" lon="6.8295930">
        <ele>946.7000000</ele>
        <time>2012-07-28T10:35:52Z</time>
      </trkpt>
      <trkpt lat="46.4869610" lon="6.8298900">
        <ele>944.6170000</ele>
        <time>2012-07-28T10:35:59Z</time>
      </trkpt>
      <trkpt lat="46.4866170" lon="6.8300660">
        <ele>943.9350000</ele>
        <time>2012-07-28T10:36:04Z</time>
      </trkpt>
      <trkpt lat="46.4862060" lon="6.8302570">
        <ele>942.8430000</ele>
        <time>2012-07-28T10:36:09Z</time>
      </trkpt>
      <trkpt lat="46.4859910" lon="6.8303580">
        <ele>941.5570000</ele>
        <time>2012-07-28T10:36:13Z</time>
      </trkpt>
      <trkpt lat="46.4859990" lon="6.8304620">
        <ele>940.9550000</ele>
        <time>2012-07-28T10:36:17Z</time>
      </trkpt>
      <trkpt lat="46.4861860" lon="6.8307800">
        <ele>940.4870000</ele>
        <time>2012-07-28T10:36:24Z</time>
      </trkpt>
      <trkpt lat="46.4863420" lon="6.8309200">
        <ele>940.2260000</ele>
        <time>2012-07-28T10:36:28Z</time>
      </trkpt>
      <trkpt lat="46.4863780" lon="6.8309570">
        <ele>940.1720000</ele>
        <time>2012-07-28T10:36:29Z</time>
      </trkpt>
      <trkpt lat="46.4864520" lon="6.8310380">
        <ele>940.1800000</ele>
        <time>2012-07-28T10:36:31Z</time>
      </trkpt>
      <trkpt lat="46.4867840" lon="6.8312750">
        <ele>939.6800000</ele>
        <time>2012-07-28T10:36:38Z</time>
      </trkpt>
      <trkpt lat="46.4872270" lon="6.8315550">
        <ele>937.7940000</ele>
        <time>2012-07-28T10:36:47Z</time>
      </trkpt>
      <trkpt lat="46.4872770" lon="6.8315750">
        <ele>937.6530000</ele>
        <time>2012-07-28T10:36:48Z</time>
      </trkpt>
      <trkpt lat="46.4873690" lon="6.8316020">
        <ele>937.2210000</ele>
        <time>2012-07-28T10:36:50Z</time>
      </trkpt>
      <trkpt lat="46.4874540" lon="6.8316450">
        <ele>936.6750000</ele>
        <time>2012-07-28T10:36:52Z</time>
      </trkpt>
      <trkpt lat="46.4877130" lon="6.8317330">
        <ele>935.0110000</ele>
        <time>2012-07-28T10:36:59Z</time>
      </trkpt>
      <trkpt lat="46.4878580" lon="6.8317030">
        <ele>934.4060000</ele>
        <time>2012-07-28T10:37:03Z</time>
      </trkpt>
      <trkpt lat="46.4879490" lon="6.8315330">
        <ele>933.5400000</ele>
        <time>2012-07-28T10:37:07Z</time>
      </trkpt>
      <trkpt lat="46.4881650" lon="6.8313430">
        <ele>932.6880000</ele>
        <time>2012-07-28T10:37:11Z</time>
      </trkpt>
      <trkpt lat="46.4883670" lon="6.8312500">
        <ele>931.8600000</ele>
        <time>2012-07-28T10:37:14Z</time>
      </trkpt>
      <trkpt lat="46.4886830" lon="6.8311120">
        <ele>930.7920000</ele>
        <time>2012-07-28T10:37:19Z</time>
      </trkpt>
      <trkpt lat="46.4888450" lon="6.8309680">
        <ele>931.3410000</ele>
        <time>2012-07-28T10:37:23Z</time>
      </trkpt>
      <trkpt lat="46.4890030" lon="6.8308090">
        <ele>932.6650000</ele>
        <time>2012-07-28T10:37:28Z</time>
      </trkpt>
      <trkpt lat="46.4891020" lon="6.8307220">
        <ele>933.9310000</ele>
        <time>2012-07-28T10:37:32Z</time>
      </trkpt>
      <trkpt lat="46.4892130" lon="6.8306160">
        <ele>935.1210000</ele>
        <time>2012-07-28T10:37:36Z</time>
      </trkpt>
      <trkpt lat="46.4893240" lon="6.8304850">
        <ele>936.7310000</ele>
        <time>2012-07-28T10:37:41Z</time>
      </trkpt>
      <trkpt lat="46.4893940" lon="6.8304250">
        <ele>938.0220000</ele>
        <time>2012-07-28T10:37:45Z</time>
      </trkpt>
      <trkpt lat="46.4894940" lon="6.8303290">
        <ele>939.5990000</ele>
        <time>2012-07-28T10:37:51Z</time>
      </trkpt>
      <trkpt lat="46.4895800" lon="6.8302350">
        <ele>941.8350000</ele>
        <time>2012-07-28T10:37:58Z</time>
      </trkpt>
      <trkpt lat="46.4896890" lon="6.8301480">
        <ele>943.8440000</ele>
        <time>2012-07-28T10:38:05Z</time>
      </trkpt>
      <trkpt lat="46.4897500" lon="6.8300680">
        <ele>945.6980000</ele>
        <time>2012-07-28T10:38:11Z</time>
      </trkpt>
      <trkpt lat="46.4898120" lon="6.8300230">
        <ele>947.0470000</ele>
        <time>2012-07-28T10:38:17Z</time>
      </trkpt>
      <trkpt lat="46.4899370" lon="6.8299990">
        <ele>948.6430000</ele>
        <time>2012-07-28T10:38:24Z</time>
      </trkpt>
      <trkpt lat="46.4901050" lon="6.8299390">
        <ele>948.4920000</ele>
        <time>2012-07-28T10:38:29Z</time>
      </trkpt>
      <trkpt lat="46.4902560" lon="6.8298660">
        <ele>947.3970000</ele>
        <time>2012-07-28T10:38:33Z</time>
      </trkpt>
      <trkpt lat="46.4903510" lon="6.8298510">
        <ele>946.6360000</ele>
        <time>2012-07-28T10:38:36Z</time>
      </trkpt>
      <trkpt lat="46.4905810" lon="6.8299780">
        <ele>945.9070000</ele>
        <time>2012-07-28T10:38:41Z</time>
      </trkpt>
      <trkpt lat="46.4906910" lon="6.8300350">
        <ele>945.6690000</ele>
        <time>2012-07-28T10:38:43Z</time>
      </trkpt>
      <trkpt lat="46.4909410" lon="6.8301770">
        <ele>946.0670000</ele>
        <time>2012-07-28T10:38:49Z</time>
      </trkpt>
      <trkpt lat="46.4911130" lon="6.8302020">
        <ele>945.7060000</ele>
        <time>2012-07-28T10:38:54Z</time>
      </trkpt>
      <trkpt lat="46.4912590" lon="6.8301560">
        <ele>944.3590000</ele>
        <time>2012-07-28T10:38:58Z</time>
      </trkpt>
      <trkpt lat="46.4913360" lon="6.8300800">
        <ele>942.9350000</ele>
        <time>2012-07-28T10:39:01Z</time>
      </trkpt>
      <trkpt lat="46.4913870" lon="6.8299870">
        <ele>940.7620000</ele>
        <time>2012-07-28T10:39:05Z</time>
      </trkpt>
      <trkpt lat="46.4915580" lon="6.8297960">
        <ele>937.3190000</ele>
        <time>2012-07-28T10:39:11Z</time>
      </trkpt>
      <trkpt lat="46.4916890" lon="6.8296410">
        <ele>933.3470000</ele>
        <time>2012-07-28T10:39:16Z</time>
      </trkpt>
      <trkpt lat="46.4918360" lon="6.8295830">
        <ele>931.4120000</ele>
        <time>2012-07-28T10:39:19Z</time>
      </trkpt>
      <trkpt lat="46.4920700" lon="6.8297180">
        <ele>928.1740000</ele>
        <time>2012-07-28T10:39:24Z</time>
      </trkpt>
      <trkpt lat="46.4922040" lon="6.8299680">
        <ele>926.5190000</ele>
        <time>2012-07-28T10:39:27Z</time>
      </trkpt>
      <trkpt lat="46.4922270" lon="6.8302480">
        <ele>925.4710000</ele>
        <time>2012-07-28T10:39:31Z</time>
      </trkpt>
      <trkpt lat="46.4922630" lon="6.8302940">
        <ele>924.4010000</ele>
        <time>2012-07-28T10:39:34Z</time>
      </trkpt>
      <trkpt lat="46.4923470" lon="6.8301970">
        <ele>923.1180000</ele>
        <time>2012-07-28T10:39:37Z</time>
      </trkpt>
      <trkpt lat="46.4925410" lon="6.8300400">
        <ele>919.6520000</ele>
        <time>2012-07-28T10:39:42Z</time>
      </trkpt>
      <trkpt lat="46.4926160" lon="6.8299700">
        <ele>917.7060000</ele>
        <time>2012-07-28T10:39:44Z</time>
      </trkpt>
      <trkpt lat="46.4927290" lon="6.8297910">
        <ele>913.6960000</ele>
        <time>2012-07-28T10:39:48Z</time>
      </trkpt>
      <trkpt lat="46.4928030" lon="6.8297730">
        <ele>911.7800000</ele>
        <time>2012-07-28T10:39:50Z</time>
      </trkpt>
      <trkpt lat="46.4930790" lon="6.8297420">
        <ele>909.4240000</ele>
        <time>2012-07-28T10:39:54Z</time>
      </trkpt>
      <trkpt lat="46.4931950" lon="6.8297250">
        <ele>907.6490000</ele>
        <time>2012-07-28T10:39:56Z</time>
      </trkpt>
      <trkpt lat="46.4934110" lon="6.8296160">
        <ele>905.5530000</ele>
        <time>2012-07-28T10:40:01Z</time>
      </trkpt>
      <trkpt lat="46.4934480" lon="6.8295910">
        <ele>905.0090000</ele>
        <time>2012-07-28T10:40:02Z</time>
      </trkpt>
      <trkpt lat="46.4934610" lon="6.8296150">
        <ele>903.2600000</ele>
        <time>2012-07-28T10:40:06Z</time>
      </trkpt>
      <trkpt lat="46.4933920" lon="6.8298140">
        <ele>901.5720000</ele>
        <time>2012-07-28T10:40:11Z</time>
      </trkpt>
      <trkpt lat="46.4935130" lon="6.8301120">
        <ele>898.6050000</ele>
        <time>2012-07-28T10:40:15Z</time>
      </trkpt>
      <trkpt lat="46.4935870" lon="6.8302800">
        <ele>896.9950000</ele>
        <time>2012-07-28T10:40:17Z</time>
      </trkpt>
      <trkpt lat="46.4936300" lon="6.8304650">
        <ele>895.5210000</ele>
        <time>2012-07-28T10:40:19Z</time>
      </trkpt>
      <trkpt lat="46.4936380" lon="6.8307780">
        <ele>894.2030000</ele>
        <time>2012-07-28T10:40:23Z</time>
      </trkpt>
      <trkpt lat="46.4935950" lon="6.8308710">
        <ele>893.5370000</ele>
        <time>2012-07-28T10:40:25Z</time>
      </trkpt>
      <trkpt lat="46.4934720" lon="6.8310250">
        <ele>892.8800000</ele>
        <time>2012-07-28T10:40:29Z</time>
      </trkpt>
      <trkpt lat="46.4931220" lon="6.8312200">
        <ele>891.6880000</ele>
        <time>2012-07-28T10:40:36Z</time>
      </trkpt>
      <trkpt lat="46.4927740" lon="6.8313920">
        <ele>890.4470000</ele>
        <time>2012-07-28T10:40:42Z</time>
      </trkpt>
      <trkpt lat="46.4927140" lon="6.8314200">
        <ele>890.2830000</ele>
        <time>2012-07-28T10:40:43Z</time>
      </trkpt>
      <trkpt lat="46.4924240" lon="6.8315790">
        <ele>889.6810000</ele>
        <time>2012-07-28T10:40:48Z</time>
      </trkpt>
      <trkpt lat="46.4922770" lon="6.8316460">
        <ele>889.6270000</ele>
        <time>2012-07-28T10:40:51Z</time>
      </trkpt>
      <trkpt lat="46.4921180" lon="6.8317830">
        <ele>888.9670000</ele>
        <time>2012-07-28T10:40:55Z</time>
      </trkpt>
      <trkpt lat="46.4919520" lon="6.8320560">
        <ele>885.0930000</ele>
        <time>2012-07-28T10:41:01Z</time>
      </trkpt>
      <trkpt lat="46.4919150" lon="6.8320840">
        <ele>884.0830000</ele>
        <time>2012-07-28T10:41:02Z</time>
      </trkpt>
      <trkpt lat="46.4917150" lon="6.8320800">
        <ele>880.2280000</ele>
        <time>2012-07-28T10:41:06Z</time>
      </trkpt>
      <trkpt lat="46.4914540" lon="6.8320370">
        <ele>877.5400000</ele>
        <time>2012-07-28T10:41:10Z</time>
      </trkpt>
      <trkpt lat="46.4913900" lon="6.8320470">
        <ele>876.7420000</ele>
        <time>2012-07-28T10:41:11Z</time>
      </trkpt>
      <trkpt lat="46.4911680" lon="6.8320890">
        <ele>874.4890000</ele>
        <time>2012-07-28T10:41:14Z</time>
      </trkpt>
      <trkpt lat="46.4909320" lon="6.8321510">
        <ele>872.9300000</ele>
        <time>2012-07-28T10:41:17Z</time>
      </trkpt>
      <trkpt lat="46.4907980" lon="6.8321990">
        <ele>872.3010000</ele>
        <time>2012-07-28T10:41:19Z</time>
      </trkpt>
      <trkpt lat="46.4906730" lon="6.8322780">
        <ele>871.4920000</ele>
        <time>2012-07-28T10:41:21Z</time>
      </trkpt>
      <trkpt lat="46.4902670" lon="6.8326630">
        <ele>867.2600000</ele>
        <time>2012-07-28T10:41:26Z</time>
      </trkpt>
      <trkpt lat="46.4898750" lon="6.8330460">
        <ele>861.3880000</ele>
        <time>2012-07-28T10:41:30Z</time>
      </trkpt>
      <trkpt lat="46.4892730" lon="6.8336770">
        <ele>854.8150000</ele>
        <time>2012-07-28T10:41:35Z</time>
      </trkpt>
      <trkpt lat="46.4890490" lon="6.8339060">
        <ele>851.8250000</ele>
        <time>2012-07-28T10:41:37Z</time>
      </trkpt>
      <trkpt lat="46.4886810" lon="6.8342890">
        <ele>847.0300000</ele>
        <time>2012-07-28T10:41:41Z</time>
      </trkpt>
      <trkpt lat="46.4885840" lon="6.8343580">
        <ele>846.1710000</ele>
        <time>2012-07-28T10:41:42Z</time>
      </trkpt>
      <trkpt lat="46.4882920" lon="6.8344980">
        <ele>844.7860000</ele>
        <time>2012-07-28T10:41:45Z</time>
      </trkpt>
      <trkpt lat="46.4880220" lon="6.8346370">
        <ele>845.2080000</ele>
        <time>2012-07-28T10:41:49Z</time>
      </trkpt>
      <trkpt lat="46.4877960" lon="6.8344530">
        <ele>846.6050000</ele>
        <time>2012-07-28T10:41:55Z</time>
      </trkpt>
      <trkpt lat="46.4876650" lon="6.8343390">
        <ele>847.2520000</ele>
        <time>2012-07-28T10:41:58Z</time>
      </trkpt>
      <trkpt lat="46.4875260" lon="6.8342800">
        <ele>847.9190000</ele>
        <time>2012-07-28T10:42:02Z</time>
      </trkpt>
      <trkpt lat="46.4873890" lon="6.8342970">
        <ele>848.9990000</ele>
        <time>2012-07-28T10:42:06Z</time>
      </trkpt>
      <trkpt lat="46.4872900" lon="6.8343270">
        <ele>850.6150000</ele>
        <time>2012-07-28T10:42:11Z</time>
      </trkpt>
      <trkpt lat="46.4872270" lon="6.8343790">
        <ele>852.0270000</ele>
        <time>2012-07-28T10:42:16Z</time>
      </trkpt>
      <trkpt lat="46.4871670" lon="6.8343880">
        <ele>852.9240000</ele>
        <time>2012-07-28T10:42:20Z</time>
      </trkpt>
      <trkpt lat="46.4870910" lon="6.8344120">
        <ele>853.8830000</ele>
        <time>2012-07-28T10:42:25Z</time>
      </trkpt>
      <trkpt lat="46.4869990" lon="6.8344290">
        <ele>854.8470000</ele>
        <time>2012-07-28T10:42:31Z</time>
      </trkpt>
      <trkpt lat="46.4869390" lon="6.8344310">
        <ele>855.9130000</ele>
        <time>2012-07-28T10:42:35Z</time>
      </trkpt>
      <trkpt lat="46.4868350" lon="6.8344020">
        <ele>857.3290000</ele>
        <time>2012-07-28T10:42:41Z</time>
      </trkpt>
      <trkpt lat="46.4868140" lon="6.8343920">
        <ele>857.5690000</ele>
        <time>2012-07-28T10:42:42Z</time>
      </trkpt>
      <trkpt lat="46.4866950" lon="6.8343110">
        <ele>859.7310000</ele>
        <time>2012-07-28T10:42:50Z</time>
      </trkpt>
      <trkpt lat="46.4866490" lon="6.8342790">
        <ele>860.5390000</ele>
        <time>2012-07-28T10:42:54Z</time>
      </trkpt>
      <trkpt lat="46.4865520" lon="6.8342200">
        <ele>861.9730000</ele>
        <time>2012-07-28T10:43:00Z</time>
      </trkpt>
      <trkpt lat="46.4864740" lon="6.8341720">
        <ele>863.5100000</ele>
        <time>2012-07-28T10:43:06Z</time>
      </trkpt>
      <trkpt lat="46.4864250" lon="6.8341420">
        <ele>865.3720000</ele>
        <time>2012-07-28T10:43:13Z</time>
      </trkpt>
      <trkpt lat="46.4863430" lon="6.8341230">
        <ele>867.0570000</ele>
        <time>2012-07-28T10:43:21Z</time>
      </trkpt>
      <trkpt lat="46.4862670" lon="6.8341260">
        <ele>868.9390000</ele>
        <time>2012-07-28T10:43:30Z</time>
      </trkpt>
      <trkpt lat="46.4862430" lon="6.8341260">
        <ele>869.8560000</ele>
        <time>2012-07-28T10:43:34Z</time>
      </trkpt>
      <trkpt lat="46.4861520" lon="6.8341080">
        <ele>871.7920000</ele>
        <time>2012-07-28T10:43:42Z</time>
      </trkpt>
      <trkpt lat="46.4860360" lon="6.8341330">
        <ele>872.9960000</ele>
        <time>2012-07-28T10:43:48Z</time>
      </trkpt>
      <trkpt lat="46.4859030" lon="6.8341600">
        <ele>873.3570000</ele>
        <time>2012-07-28T10:43:53Z</time>
      </trkpt>
      <trkpt lat="46.4857160" lon="6.8343120">
        <ele>872.1080000</ele>
        <time>2012-07-28T10:43:57Z</time>
      </trkpt>
      <trkpt lat="46.4856570" lon="6.8344520">
        <ele>870.8000000</ele>
        <time>2012-07-28T10:43:59Z</time>
      </trkpt>
      <trkpt lat="46.4854240" lon="6.8346980">
        <ele>867.3170000</ele>
        <time>2012-07-28T10:44:04Z</time>
      </trkpt>
      <trkpt lat="46.4851170" lon="6.8348760">
        <ele>865.1410000</ele>
        <time>2012-07-28T10:44:08Z</time>
      </trkpt>
      <trkpt lat="46.4847380" lon="6.8352680">
        <ele>859.1310000</ele>
        <time>2012-07-28T10:44:13Z</time>
      </trkpt>
      <trkpt lat="46.4845830" lon="6.8353960">
        <ele>856.0620000</ele>
        <time>2012-07-28T10:44:15Z</time>
      </trkpt>
      <trkpt lat="46.4843580" lon="6.8354810">
        <ele>851.7840000</ele>
        <time>2012-07-28T10:44:18Z</time>
      </trkpt>
      <trkpt lat="46.4840080" lon="6.8353740">
        <ele>848.2620000</ele>
        <time>2012-07-28T10:44:22Z</time>
      </trkpt>
      <trkpt lat="46.4838830" lon="6.8352600">
        <ele>847.5900000</ele>
        <time>2012-07-28T10:44:24Z</time>
      </trkpt>
      <trkpt lat="46.4834650" lon="6.8349080">
        <ele>846.4430000</ele>
        <time>2012-07-28T10:44:30Z</time>
      </trkpt>
      <trkpt lat="46.4831530" lon="6.8345780">
        <ele>844.8940000</ele>
        <time>2012-07-28T10:44:34Z</time>
      </trkpt>
      <trkpt lat="46.4829060" lon="6.8340760">
        <ele>841.8730000</ele>
        <time>2012-07-28T10:44:38Z</time>
      </trkpt>
      <trkpt lat="46.4827570" lon="6.8334790">
        <ele>838.0900000</ele>
        <time>2012-07-28T10:44:42Z</time>
      </trkpt>
      <trkpt lat="46.4826110" lon="6.8325640">
        <ele>831.7640000</ele>
        <time>2012-07-28T10:44:48Z</time>
      </trkpt>
      <trkpt lat="46.4825120" lon="6.8324290">
        <ele>828.1750000</ele>
        <time>2012-07-28T10:44:51Z</time>
      </trkpt>
      <trkpt lat="46.4823360" lon="6.8324930">
        <ele>825.0840000</ele>
        <time>2012-07-28T10:44:54Z</time>
      </trkpt>
      <trkpt lat="46.4822710" lon="6.8323790">
        <ele>823.3950000</ele>
        <time>2012-07-28T10:44:56Z</time>
      </trkpt>
      <trkpt lat="46.4822590" lon="6.8323060">
        <ele>822.6530000</ele>
        <time>2012-07-28T10:44:57Z</time>
      </trkpt>
      <trkpt lat="46.4822380" lon="6.8321980">
        <ele>821.9730000</ele>
        <time>2012-07-28T10:44:59Z</time>
      </trkpt>
      <trkpt lat="46.4822310" lon="6.8321670">
        <ele>819.9610000</ele>
        <time>2012-07-28T10:45:02Z</time>
      </trkpt>
      <trkpt lat="46.4822330" lon="6.8321700">
        <ele>819.0530000</ele>
        <time>2012-07-28T10:45:03Z</time>
      </trkpt>
    </trkseg>
  </trk>

</gpx>
